[[{"header":{"parameterUnit":"m.s-1","parameterCategory":1,"la1":30.6,"la2":28.766,"lo1":-90.7593,"lo2":-88.6598,"dy":0.0162,"dx":0.0183,"nx":116,"ny":114,"refTime":"2024-05-14T06:00:00:Z","depth":0,"parameterNumber":2,"parameterNumberName":"U-component_of_WINDS"},"data":[0.0,0.0,0.0,0.0,0.0,0.0,0.0,0.0,0.0,0.0,0.0,0.0,0.0,0.0,0.0,0.0,0.0,0.0,0.0,0.0,0.0,0.0,0.0,0.0,0.0,0.0,0.0,0.0,0.0,0.0,0.0,0.0,0.0,0.0,0.0,0.0,0.0,0.0,0.0,0.0,0.0,0.0,0.0,0.0,0.0,0.0,0.0,0.0,0.0,0.0,0.0,0.0,0.0,0.0,0.0,0.0,0.0,0.0,0.0,0.0,0.0,0.0,0.0,0.0,0.0,0.0,0.0,0.0,0.0,0.0,0.0,0.0,0.0,0.0,0.0,0.0,0.0,0.0,0.0,0.0,0.0,0.0,0.0,0.0,0.0,0.0,0.0,0.0,0.0,0.0,0.0,0.0,0.0,0.0,0.0,0.0,0.0,0.0,0.0,0.0,0.0,0.0,0.0,0.0,0.0,0.0,0.0,0.0,0.0,0.0,0.0,0.0,0.0,0.0,0.0,0.0,0.0,0.0,0.0,0.0,0.0,0.0,0.0,0.0,0.0,0.0,0.0,0.0,0.0,0.0,0.0,0.0,0.0,0.0,0.0,0.0,0.0,0.0,0.0,0.0,0.0,0.0,0.0,0.0,0.0,0.0,0.0,0.0,0.0,0.0,0.0,0.0,0.0,0.0,0.0,0.0,0.0,0.0,0.0,0.0,0.0,0.0,0.0,0.0,0.0,0.0,0.0,0.0,0.0,0.0,0.0,0.0,0.0,0.0,0.0,0.0,0.0,0.0,0.0,0.0,0.0,0.0,0.0,0.0,0.0,0.0,0.0,0.0,0.0,0.0,0.0,0.0,0.0,0.0,0.0,0.0,0.0,0.0,0.0,0.0,0.0,0.0,0.0,0.0,0.0,0.0,0.0,0.0,0.0,0.0,0.0,0.0,0.0,0.0,0.0,0.0,0.0,0.0,0.0,0.0,0.0,0.0,0.0,0.0,0.0,0.0,0.0,0.0,0.0,0.0,0.0,0.0,0.0,0.0,0.0,0.0,0.0,0.0,0.0,0.0,0.0,0.0,0.0,0.0,0.0,0.0,0.0,0.0,0.0,0.0,0.0,0.0,0.0,0.0,0.0,0.0,0.0,0.0,0.0,0.0,0.0,0.0,0.0,0.0,0.0,0.0,0.0,0.0,0.0,0.0,0.0,0.0,0.0,0.0,0.0,0.0,0.0,0.0,0.0,0.0,0.0,0.0,0.0,0.0,0.0,0.0,0.0,0.0,0.0,0.0,0.0,0.0,0.0,0.0,0.0,0.0,0.0,0.0,0.0,0.0,0.0,0.0,0.0,0.0,0.0,0.0,0.0,0.0,0.0,0.0,0.0,0.0,0.0,0.0,0.0,0.0,0.0,0.0,0.0,0.0,0.0,0.0,0.0,0.0,0.0,0.0,0.0,0.0,0.0,0.0,0.0,0.0,0.0,0.0,0.0,0.0,0.0,0.0,0.0,0.0,0.0,0.0,0.0,0.0,0.0,0.0,0.0,0.0,0.0,0.0,0.0,0.0,0.0,0.0,0.0,0.0,0.0,0.0,0.0,0.0,0.0,0.0,0.0,0.0,0.0,0.0,0.0,0.0,0.0,0.0,0.0,0.0,0.0,0.0,0.0,0.0,0.0,0.0,0.0,0.0,0.0,0.0,0.0,0.0,0.0,0.0,0.0,0.0,0.0,0.0,0.0,0.0,0.0,0.0,0.0,0.0,0.0,0.0,0.0,0.0,0.0,0.0,0.0,0.0,0.0,0.0,0.0,0.0,0.0,0.0,0.0,0.0,0.0,0.0,0.0,0.0,0.0,0.0,0.0,0.0,0.0,0.0,0.0,0.0,0.0,0.0,0.0,0.0,0.0,0.0,0.0,0.0,0.0,0.0,0.0,0.0,0.0,0.0,0.0,0.0,0.0,0.0,0.0,0.0,0.0,0.0,0.0,0.0,0.0,0.0,0.0,0.0,0.0,0.0,0.0,0.0,0.0,0.0,0.0,0.0,0.0,0.0,0.0,0.0,0.0,0.0,0.0,0.0,0.0,0.0,0.0,0.0,0.0,0.0,0.0,0.0,0.0,0.0,0.0,0.0,0.0,0.0,0.0,0.0,0.0,0.0,0.0,0.0,0.0,0.0,0.0,0.0,0.0,0.0,0.0,0.0,0.0,0.0,0.0,0.0,0.0,0.0,0.0,0.0,0.0,0.0,0.0,0.0,0.0,0.0,0.0,0.0,0.0,0.0,0.0,0.0,0.0,0.0,0.0,0.0,0.0,0.0,0.0,0.0,0.0,0.0,0.0,0.0,0.0,0.0,0.0,0.0,0.0,0.0,0.0,0.0,0.0,0.0,0.0,0.0,0.0,0.0,0.0,0.0,0.0,0.0,0.0,0.0,0.0,0.0,0.0,0.0,0.0,0.0,0.0,0.0,0.0,0.0,0.0,0.0,0.0,0.0,0.0,0.0,0.0,0.0,0.0,0.0,0.0,0.0,0.0,0.0,0.0,0.0,0.0,0.0,0.0,0.0,0.0,0.0,0.0,0.0,0.0,0.0,0.0,0.0,0.0,0.0,0.0,0.0,0.0,0.0,0.0,0.0,0.0,0.0,0.0,0.0,0.0,0.0,0.0,0.0,0.0,0.0,0.0,0.0,0.0,0.0,0.0,0.0,0.0,0.0,0.0,0.0,0.0,0.0,0.0,0.0,0.0,0.0,0.0,0.0,0.0,0.0,0.0,0.0,0.0,0.0,0.0,0.0,0.0,0.0,0.0,0.0,0.0,0.0,0.0,0.0,0.0,0.0,0.0,0.0,0.0,0.0,0.0,0.0,0.0,0.0,0.0,0.0,0.0,0.0,0.0,0.0,0.0,0.0,0.0,0.0,0.0,0.0,0.0,0.0,0.0,0.0,0.0,0.0,0.0,0.0,0.0,0.0,0.0,0.0,0.0,0.0,0.0,0.0,0.0,0.0,0.0,0.0,0.0,0.0,0.0,0.0,0.0,0.0,0.0,0.0,0.0,0.0,0.0,0.0,0.0,0.0,0.0,0.0,0.0,0.0,0.0,0.0,0.0,0.0,0.0,0.0,0.0,0.0,0.0,0.0,0.0,0.0,0.0,0.0,0.0,0.0,0.0,0.0,0.0,0.0,0.0,0.0,0.0,0.0,0.0,0.0,0.0,0.0,0.0,0.0,0.0,0.0,0.0,0.0,0.0,0.0,0.0,0.0,0.0,0.0,0.0,0.0,0.0,0.0,0.0,0.0,0.0,0.0,0.0,0.0,0.0,0.0,0.0,0.0,0.0,0.0,0.0,0.0,0.0,0.0,0.0,0.0,0.0,0.0,0.0,0.0,0.0,0.0,0.0,0.0,0.0,0.0,0.0,0.0,0.0,0.0,0.0,0.0,0.0,0.0,0.0,0.0,0.0,0.0,0.0,0.0,0.0,0.0,0.0,0.0,0.0,0.0,0.0,0.0,0.0,0.0,0.0,0.0,0.0,0.0,0.0,0.0,0.0,0.0,0.0,0.0,0.0,0.0,0.0,0.0,0.0,0.0,0.0,0.0,0.0,0.0,0.0,0.0,0.0,0.0,0.0,0.0,0.0,0.0,0.0,0.0,0.0,0.0,0.0,0.0,0.0,0.0,0.0,0.0,0.0,0.0,0.0,0.0,0.0,0.0,0.0,0.0,0.0,0.0,0.0,0.0,0.0,0.0,0.0,0.0,0.0,0.0,0.0,0.0,0.0,0.0,0.0,0.0,0.0,0.0,0.0,0.0,0.0,0.0,0.0,0.0,0.0,0.0,0.0,0.0,0.0,0.0,0.0,0.0,0.0,0.0,0.0,0.0,0.0,0.0,0.0,0.0,0.0,0.0,0.0,0.0,0.0,0.0,0.0,0.0,0.0,0.0,0.0,0.0,0.0,0.0,0.0,0.0,0.0,0.0,0.0,0.0,0.0,0.0,0.0,0.0,0.0,0.0,0.0,0.0,0.0,0.0,0.0,0.0,0.0,0.0,0.0,0.0,0.0,0.0,0.0,0.0,0.0,0.0,0.0,0.0,0.0,0.0,0.0,0.0,0.0,0.0,0.0,0.0,0.0,0.0,0.0,0.0,0.0,0.0,0.0,0.0,0.0,0.0,0.0,0.0,0.0,0.0,0.0,0.0,0.0,0.0,0.0,0.0,0.0,0.0,0.0,0.0,0.0,0.0,0.0,0.0,0.0,0.0,0.0,0.0,0.0,0.0,0.0,0.0,0.0,0.0,0.0,0.0,0.0,0.0,0.0,0.0,0.0,0.0,0.0,0.0,0.0,0.0,0.0,0.0,0.0,0.0,0.0,0.0,0.0,0.0,0.0,0.0,0.0,0.0,0.0,0.0,0.0,0.0,0.0,0.0,0.0,0.0,0.0,0.0,0.0,0.0,0.0,0.0,0.0,0.0,0.0,0.0,0.0,0.0,0.0,0.0,0.0,0.0,0.0,0.0,0.0,0.0,0.0,0.0,0.0,0.0,0.0,0.0,0.0,0.0,0.0,0.0,0.0,0.0,0.0,0.0,0.0,0.0,0.0,0.0,0.0,0.0,0.0,0.0,0.0,0.0,0.0,0.0,0.0,0.0,0.0,0.0,0.0,0.0,0.0,0.0,0.0,0.0,0.0,0.0,0.0,0.0,0.0,0.0,0.0,0.0,0.0,0.0,0.0,0.0,0.0,0.0,0.0,0.0,0.0,0.0,0.0,0.0,0.0,0.0,0.0,0.0,0.0,0.0,0.0,0.0,0.0,0.0,0.0,0.0,0.0,0.0,0.0,0.0,0.0,0.0,0.0,0.0,0.0,0.0,0.0,0.0,0.0,0.0,0.0,0.0,0.0,0.0,0.0,0.0,0.0,0.0,0.0,0.0,0.0,0.0,0.0,0.0,0.0,0.0,0.0,0.0,0.0,0.0,0.0,0.0,0.0,0.0,0.0,0.0,0.0,0.0,0.0,0.0,0.0,0.0,0.0,0.0,0.0,0.0,0.0,0.0,0.0,0.0,0.0,0.0,0.0,0.0,0.0,0.0,0.0,0.0,0.0,0.0,0.0,0.0,0.0,0.0,0.0,0.0,0.0,0.0,0.0,0.0,0.0,0.0,0.0,0.0,0.0,0.0,0.0,0.0,0.0,0.0,0.0,0.0,0.0,0.0,0.0,0.0,0.0,0.0,0.0,0.0,0.0,0.0,0.0,0.0,0.0,0.0,0.0,0.0,0.0,0.0,0.0,0.0,0.0,0.0,0.0,0.0,0.0,0.0,0.0,0.0,0.0,0.0,0.0,0.0,0.0,0.0,0.0,0.0,0.0,0.0,0.0,0.0,0.0,0.0,0.0,0.0,0.0,0.0,0.0,0.0,0.0,0.0,0.0,0.0,0.0,0.0,0.0,0.0,0.0,0.0,0.0,0.0,0.0,0.0,0.0,0.0,0.0,0.0,0.0,0.0,0.0,0.0,0.0,0.0,0.0,0.0,0.0,0.0,0.0,0.0,0.0,0.0,0.0,0.0,0.0,0.0,0.0,0.0,0.0,0.0,0.0,0.0,0.0,0.0,0.0,0.0,0.0,0.0,0.0,0.0,0.0,0.0,0.0,0.0,0.0,0.0,0.0,0.0,0.0,0.0,0.0,0.0,0.0,0.0,0.0,0.0,0.0,0.0,0.0,0.0,0.0,0.0,0.0,0.0,0.0,0.0,0.0,0.0,0.0,0.0,0.0,0.0,0.0,0.0,0.0,0.0,0.0,0.0,0.0,0.0,0.0,0.0,0.0,0.0,0.0,0.0,0.0,0.0,0.0,0.0,0.0,0.0,0.0,0.0,0.0,0.0,0.0,0.0,0.0,0.0,0.0,0.0,0.0,0.0,0.0,0.0,0.0,0.0,0.0,0.0,0.0,0.0,0.0,0.0,0.0,0.0,0.0,0.0,0.0,0.0,0.0,0.0,0.0,0.0,0.0,0.0,0.0,0.0,0.0,0.0,0.0,0.0,0.0,0.0,0.0,0.0,0.0,0.0,0.0,0.0,0.0,0.0,0.0,0.0,0.0,0.0,-7.314,0.0,0.0,0.0,0.0,0.0,0.0,0.0,0.0,0.0,0.0,0.0,0.0,0.0,0.0,0.0,0.0,0.0,0.0,0.0,0.0,0.0,0.0,0.0,0.0,-3.8302,-3.8522,-3.9021,-3.8736,-3.8387,-3.8034,0.0,0.0,0.0,0.0,0.0,-3.8762,-3.8955,-3.8594,-3.7501,-4.0743,-4.4091,-4.7478,-4.5175,-4.2699,-4.017,0.0,0.0,0.0,0.0,0.0,0.0,0.0,0.0,0.0,0.0,0.0,0.0,0.0,0.0,0.0,0.0,0.0,0.0,0.0,0.0,0.0,0.0,0.0,0.0,0.0,0.0,0.0,0.0,0.0,0.0,0.0,0.0,0.0,0.0,0.0,0.0,0.0,0.0,0.0,0.0,0.0,0.0,0.0,0.0,0.0,0.0,0.0,0.0,0.0,0.0,0.0,0.0,0.0,0.0,0.0,0.0,0.0,0.0,0.0,0.0,0.0,0.0,0.0,0.0,0.0,0.0,0.0,0.0,0.0,0.0,0.0,-8.2872,0.0,0.0,0.0,0.0,0.0,0.0,0.0,0.0,0.0,0.0,0.0,0.0,0.0,0.0,0.0,0.0,0.0,0.0,0.0,0.0,0.0,-3.6147,-3.6911,-3.7455,-3.7877,-3.825,-3.8034,-3.7757,-3.7411,-3.7863,0.0,0.0,-3.8788,-3.9124,-3.9524,-3.9387,-3.9621,-4.0193,-4.7342,-5.1924,-5.4229,-5.5692,-5.379,-4.8953,-4.3598,0.0,0.0,0.0,0.0,0.0,0.0,0.0,0.0,0.0,0.0,0.0,0.0,0.0,0.0,0.0,0.0,0.0,0.0,0.0,0.0,0.0,0.0,0.0,0.0,0.0,0.0,0.0,0.0,0.0,0.0,0.0,0.0,0.0,0.0,0.0,0.0,0.0,0.0,0.0,0.0,0.0,0.0,0.0,0.0,0.0,0.0,0.0,0.0,0.0,0.0,0.0,0.0,0.0,0.0,0.0,0.0,0.0,0.0,0.0,0.0,0.0,0.0,0.0,-10.1548,-10.2002,-10.437,-10.2728,-10.6237,-11.325,-10.8717,-10.4944,-10.1321,-9.2404,0.0,0.0,0.0,0.0,0.0,0.0,0.0,0.0,0.0,0.0,0.0,0.0,0.0,0.0,0.0,0.0,0.0,0.0,0.0,-3.6039,-3.6435,-3.6888,-3.7353,-3.7678,-3.8028,-3.8179,-3.8044,-3.8802,-3.9226,-3.9217,-3.8846,-3.8686,-3.8762,-3.8302,-4.0578,-4.5717,-5.9048,-6.5369,-6.5103,-6.6014,-6.62,-6.554,-5.5815,-5.0992,-4.9918,0.0,0.0,0.0,0.0,0.0,0.0,0.0,0.0,0.0,0.0,0.0,0.0,0.0,0.0,0.0,0.0,0.0,0.0,0.0,0.0,0.0,0.0,0.0,0.0,0.0,0.0,0.0,0.0,0.0,0.0,0.0,0.0,0.0,0.0,0.0,0.0,0.0,0.0,0.0,0.0,0.0,-6.8525,-7.0979,0.0,0.0,0.0,0.0,0.0,0.0,0.0,0.0,0.0,0.0,0.0,0.0,0.0,-10.3061,-11.3686,-11.8498,-12.4381,-13.095,-13.1956,-13.3521,-13.5256,-13.2991,-13.3959,-13.7404,-13.3553,0.0,-11.4847,-10.5091,0.0,0.0,0.0,0.0,0.0,0.0,0.0,0.0,0.0,0.0,0.0,0.0,0.0,0.0,0.0,0.0,0.0,0.0,0.0,0.0,0.0,-3.9684,-4.2812,-4.4504,-4.9238,-4.9748,-4.3968,-4.5722,-4.4179,-3.7952,-3.78,-3.8584,-4.0041,-4.4038,-5.1516,-6.2699,-6.967,-7.286,-7.2153,-7.4081,-7.4948,-7.5131,-6.9379,-6.3565,-5.8044,-5.7224,0.0,0.0,0.0,0.0,0.0,0.0,0.0,0.0,0.0,0.0,0.0,0.0,0.0,0.0,0.0,0.0,0.0,0.0,0.0,0.0,0.0,0.0,0.0,0.0,0.0,0.0,0.0,0.0,0.0,0.0,0.0,0.0,0.0,0.0,0.0,0.0,0.0,0.0,0.0,-6.4931,-7.5168,-7.8699,-7.7322,-7.3432,0.0,0.0,0.0,0.0,0.0,0.0,0.0,0.0,0.0,-11.0215,-11.4004,-12.1524,-13.3664,-13.5952,-13.9494,-14.4118,-14.3643,-14.4505,-14.6198,-14.3331,-14.3689,-14.6423,-14.1017,-13.5687,-13.0536,-12.0084,-11.1375,-10.3895,0.0,0.0,0.0,0.0,-8.3068,-8.4504,0.0,0.0,0.0,0.0,0.0,0.0,0.0,0.0,0.0,0.0,0.0,0.0,-3.8096,-4.457,-4.9952,-5.2931,-5.8563,-5.8231,-4.9698,-5.0516,-4.7002,-3.7227,-3.727,-3.8504,-4.0554,-5.0204,-6.1755,-7.5102,-7.8605,-7.9973,-7.9347,-8.082,-8.169,-8.1734,-8.0363,-7.5305,-6.74,-6.6432,-6.091,-5.2517,0.0,0.0,0.0,0.0,0.0,0.0,0.0,0.0,0.0,0.0,0.0,0.0,0.0,0.0,0.0,0.0,0.0,0.0,0.0,0.0,0.0,0.0,0.0,0.0,0.0,0.0,0.0,0.0,0.0,0.0,0.0,0.0,0.0,0.0,0.0,0.0,0.0,-7.0679,-8.1931,-8.5581,-8.6539,-8.4205,0.0,0.0,0.0,0.0,0.0,0.0,-10.0119,-10.4876,-11.3648,-12.7806,-13.1663,-13.8631,-14.9186,-14.9339,-15.0539,-15.2856,-15.0903,-15.104,-15.3172,-15.0017,-15.0121,-15.2847,-14.6667,-14.3801,-14.299,-13.1396,-12.1669,-11.3171,-10.7904,-10.18,-9.6055,-9.7012,-9.7311,-9.8688,0.0,0.0,0.0,0.0,0.0,0.0,0.0,0.0,0.0,0.0,0.0,-4.3514,-4.4509,-5.1526,-5.7594,-6.1241,-5.9889,-5.6953,-5.2634,-4.9221,-4.4548,-3.8227,-3.7799,-3.8136,-3.8905,-5.4345,-6.681,-7.5687,-8.4971,-8.9081,-8.8098,-8.6279,-8.5679,-8.6125,-8.6036,-8.3893,-7.9695,-7.4566,-6.8675,-6.223,-5.3218,0.0,0.0,0.0,0.0,0.0,0.0,0.0,0.0,0.0,0.0,0.0,0.0,0.0,0.0,0.0,0.0,0.0,0.0,0.0,0.0,0.0,0.0,0.0,0.0,0.0,0.0,0.0,0.0,0.0,0.0,0.0,0.0,0.0,0.0,0.0,0.0,0.0,0.0,-8.9531,-10.2518,0.0,0.0,0.0,0.0,-8.7588,-9.3889,-10.3787,-11.6903,-12.1049,-13.0253,-14.6344,-14.9727,-15.2637,-15.5411,-15.6836,-15.839,-15.9945,-15.7581,-15.8444,-16.1969,-15.8015,-15.7898,-16.0617,-15.6674,-15.2912,-14.8615,-13.6535,-13.0227,-12.6876,-11.4727,-11.0119,-11.0298,-11.0298,-11.1136,-11.347,0.0,0.0,0.0,0.0,0.0,-3.1698,-3.2197,-3.2187,-3.2191,-3.2412,-4.0697,-4.6339,-4.5924,-5.8615,-6.7856,-6.944,-7.3261,-7.2713,-6.571,-5.9977,-5.3353,-4.5402,-4.0681,-4.4368,-5.7477,-6.7556,-7.7718,-8.7865,-9.1075,-9.199,-9.0505,-8.8054,-8.7555,-8.8359,-8.62,-8.5573,-8.641,-8.5317,-7.889,-6.8828,-6.5769,-5.8604,0.0,0.0,0.0,0.0,0.0,0.0,0.0,0.0,0.0,0.0,0.0,0.0,0.0,0.0,0.0,0.0,0.0,0.0,0.0,0.0,0.0,0.0,0.0,0.0,0.0,0.0,0.0,0.0,0.0,0.0,0.0,0.0,0.0,0.0,0.0,0.0,0.0,-9.779,-10.4792,0.0,-9.9526,-10.4664,-10.7392,-10.5273,-11.8291,-12.941,-13.6554,-14.0464,-14.5704,-15.2907,-15.5072,-15.6764,-15.8117,-15.9064,-16.0079,-16.1094,-16.0675,-16.1414,-16.3259,-15.9308,-15.919,-16.1904,-15.557,-15.2111,-15.0289,-14.3539,-13.8065,-13.3519,-12.7774,-12.5739,-12.5978,-12.6397,-12.6577,-12.7055,0.0,0.0,0.0,-3.2963,-3.2031,-3.1547,-3.2396,-3.2183,-3.3305,-3.6868,-4.5793,-5.2642,-5.4912,-6.8091,-7.7322,-7.8281,-8.1734,-7.993,-7.0432,-6.3837,-5.5751,-4.5619,-4.3735,-5.1036,-6.8466,-7.5512,-8.3552,-9.2394,-9.4101,-9.3962,-9.1885,-8.9374,-8.8382,-8.8182,-8.6043,-8.5546,-8.6686,-8.9766,-8.5902,-7.7236,-7.5623,-6.7191,-5.5016,0.0,0.0,0.0,0.0,0.0,0.0,0.0,0.0,0.0,0.0,0.0,0.0,0.0,0.0,0.0,0.0,0.0,0.0,0.0,0.0,0.0,0.0,0.0,0.0,0.0,0.0,0.0,0.0,0.0,0.0,0.0,0.0,0.0,0.0,0.0,-10.168,-10.2997,-10.9999,-11.3764,-11.1532,-11.6871,-12.1341,-12.3649,-13.6852,-14.6209,-14.9118,-15.2298,-15.5005,-15.6967,-15.832,-15.9199,-15.9673,-16.0214,-16.0891,-16.1906,-16.2379,-16.2988,-16.3665,-16.0842,-16.0451,-16.1566,-15.6441,-15.3525,-15.2079,-14.8657,-14.442,-13.939,-13.6769,-13.5793,-13.5973,-13.6212,-13.5913,-13.5195,0.0,-3.358,-3.2889,-3.365,-3.2421,-3.1618,-3.2325,-3.2972,-3.6639,-4.5645,-5.4051,-6.2666,-7.1687,-7.9777,-8.5284,-8.7351,-8.4057,-7.7158,-6.6116,-5.9941,-5.1109,-3.8683,-4.7197,-5.7833,-6.974,-7.7234,-8.3407,-8.8066,-9.3814,-9.5135,-9.2449,-9.0099,-8.7701,-8.5213,-8.6175,-8.4538,-8.1548,-8.7374,-8.9101,-8.72,-8.1713,-7.3405,-6.3217,0.0,0.0,0.0,0.0,0.0,0.0,0.0,0.0,0.0,0.0,0.0,0.0,0.0,0.0,0.0,0.0,0.0,0.0,0.0,0.0,0.0,0.0,0.0,0.0,0.0,0.0,0.0,0.0,0.0,0.0,0.0,0.0,0.0,-8.3943,-9.6593,-10.6468,-10.5391,-11.9395,-12.8742,-12.7273,-13.4353,-13.9952,-14.2256,-14.8122,-15.2298,-15.3787,-15.5884,-15.7711,-15.9267,-16.0011,-16.0417,-16.0417,-16.0417,-16.1094,-16.2582,-16.2582,-16.2988,-16.3597,-16.2921,-16.177,-16.0417,-16.0417,-15.8174,-15.4278,-15.1982,-14.8846,-14.4856,-14.0591,-13.9384,-13.9803,-13.9204,-13.8486,-13.7529,-3.4829,-3.4341,-3.361,-3.3239,-3.2894,-3.2424,-3.1753,-3.2452,-3.6091,-4.4537,-5.6023,-6.6179,-7.3535,-8.3266,-8.8978,-8.8247,-8.4672,-7.9151,-7.1718,-6.2922,-5.5102,-4.8996,-5.925,-6.8009,-7.4664,-8.1885,-8.5838,-8.6552,-9.077,-9.174,-8.992,-8.7134,-8.5795,-8.6217,-8.4199,-8.2683,-8.1753,-8.6337,-8.7384,-8.607,-8.2994,-7.6814,-6.9053,0.0,0.0,0.0,0.0,0.0,0.0,0.0,0.0,0.0,0.0,0.0,0.0,0.0,0.0,0.0,0.0,0.0,0.0,0.0,0.0,0.0,0.0,0.0,0.0,0.0,0.0,0.0,0.0,0.0,0.0,0.0,-9.655,-10.6668,-9.9829,-10.9819,-11.9275,-12.3225,-12.897,-13.3586,-13.6543,-14.0662,-14.4588,-14.7923,-15.2279,-15.5411,-15.6899,-15.7508,-15.832,-15.9335,-15.9538,-15.9605,-15.9605,-16.0079,-16.1094,-16.2582,-16.2582,-16.2718,-16.2921,-16.2718,-16.177,-16.0417,-16.0417,-15.7261,-15.1982,-15.1325,-14.748,-14.198,-14.0718,-14.0162,-13.9922,-13.9683,-13.8606,-13.693,-3.4552,-3.4471,-3.4233,-3.3805,-3.3486,-3.3089,-3.2349,-3.2965,-3.792,-5.0284,-5.9898,-6.9571,-8.0143,-8.7916,-9.0985,-8.7771,-8.2564,-7.6252,-6.8819,-6.1238,-5.8494,-6.1683,-6.903,-7.4982,-7.8904,-8.3879,-8.5472,-8.3869,-8.7786,-8.892,-8.6808,-8.5789,-8.4745,-8.4278,-8.2801,-8.2109,-8.1988,-8.4015,-8.4603,-8.4089,-8.2043,-7.8207,-7.2959,-6.8721,-6.2466,-5.5344,-5.3608,-5.3489,-5.3278,-4.7403,0.0,0.0,0.0,0.0,0.0,0.0,0.0,0.0,0.0,0.0,0.0,0.0,0.0,0.0,0.0,0.0,0.0,0.0,0.0,0.0,0.0,0.0,0.0,0.0,-11.2151,-12.2503,-12.1342,-12.4883,-12.9428,-13.4111,-13.6423,-13.9801,-14.5141,-14.7312,-14.9878,-15.3475,-15.6035,-15.7711,-15.8591,-15.8996,-15.9267,-15.9741,-15.9808,-15.9808,-15.9808,-16.0214,-16.1026,-16.2109,-16.0735,-16.025,-16.0317,-15.8843,-15.7336,0.0,-15.6343,-15.4255,-15.048,-14.957,-14.657,0.0,0.0,0.0,0.0,0.0,-13.7768,-13.5913,-3.4127,-3.4395,-3.4678,-3.4602,-3.4097,-3.3655,-3.3556,-3.4005,-4.0793,-5.9003,-6.4247,-7.2336,-8.8634,-9.2156,-9.1671,-8.7575,-7.9708,-7.1274,-6.2417,-5.9551,-6.3332,-7.4648,-7.7404,-8.005,-8.2829,-8.4903,-8.4514,-8.1991,-8.6455,-8.7323,-8.4502,-8.6009,-8.4903,-8.1548,-8.2951,-8.3149,-8.2792,-8.2525,-8.2257,-8.2178,-8.0616,-7.8218,-7.5591,-7.1701,-6.5568,-5.8984,-5.6601,-5.6305,-5.6577,-5.3329,0.0,0.0,0.0,0.0,0.0,0.0,0.0,0.0,0.0,0.0,0.0,0.0,0.0,0.0,0.0,0.0,0.0,0.0,0.0,0.0,0.0,0.0,0.0,0.0,-12.7798,-13.851,-14.3277,-14.0156,-13.8178,-14.0216,-14.2209,-14.5917,-15.2241,-15.3604,-15.5189,-15.8188,-15.9064,-15.9402,-15.9402,0.0,0.0,0.0,0.0,-16.0282,-16.0282,-16.008,-16.0349,-16.0956,-15.775,-15.6315,-15.6315,-15.3272,-15.1415,-15.0071,-15.0775,-15.0544,-14.9507,-14.7365,-14.5225,-14.3563,-14.1376,-14.0042,-13.9444,-13.8007,-13.6391,-13.4716,-3.5,-3.5092,-3.4788,-3.4137,-3.4263,-3.4105,-3.3111,-3.4449,-4.1815,-5.9309,-6.5023,-7.3483,-8.939,-9.1913,-9.2154,-9.1295,-8.1195,-7.2505,-6.7122,-7.3008,-7.8111,-8.0935,-8.5244,-8.7711,-8.8156,-8.9473,-8.9204,-8.7095,-9.1237,-9.0462,-8.475,-8.8833,-8.8774,-8.5415,-8.8878,-9.0519,-9.0139,-8.6975,-8.6029,-8.5976,-8.1801,-7.9856,-7.8748,-7.6606,-7.4188,-7.207,-7.0547,-7.0421,-7.0081,-6.5678,-6.5076,-6.5995,-6.6678,-6.7115,0.0,0.0,0.0,0.0,0.0,0.0,0.0,0.0,0.0,0.0,0.0,0.0,0.0,0.0,0.0,0.0,0.0,0.0,0.0,-12.2734,-13.7548,-14.8799,-14.9613,-14.9355,-14.8538,-14.6612,-14.7405,-14.9598,-15.3967,-15.4907,-15.6783,-15.9674,-16.0079,-16.0214,-16.0214,-15.9808,-15.9538,-15.9538,-15.9538,-15.9538,-15.9538,-15.7548,-15.7087,-15.7816,0.0,0.0,-15.227,-15.2094,-15.1415,-15.0071,-15.0775,-14.9634,-14.7186,-14.6022,-14.3136,-13.9194,-13.808,-13.7648,-13.7289,-13.5374,-13.4476,-13.3818,-3.5078,-3.4863,-3.4448,-3.4634,-3.4786,-3.4712,-3.4093,-3.4862,-4.0275,-5.3445,-5.806,-6.4774,-7.7302,-7.9254,-7.9354,-7.8473,-7.3994,-7.0249,-6.789,-8.0614,-8.9359,-9.1632,-9.519,-9.6377,-9.4906,-9.4214,-9.3557,-9.2979,-9.5934,-9.6024,-9.3639,-9.6427,-9.6757,-9.503,-9.7323,-9.8258,-9.7788,-9.4243,-9.3161,-9.3049,-8.8969,-8.7017,-8.6597,-8.2545,-8.0815,-8.0739,-8.1825,-8.1924,-8.1484,-7.8861,-7.9046,-8.0177,-8.1491,-8.2827,-8.1237,0.0,0.0,0.0,0.0,0.0,0.0,0.0,0.0,0.0,0.0,0.0,0.0,0.0,0.0,-9.3242,-10.3969,0.0,-12.6849,-13.6902,-14.648,-15.3263,-15.509,-15.5687,-15.4846,-15.2468,-15.2354,-15.4236,-15.8282,-15.896,-15.9722,-16.0959,-16.1297,-16.1297,-16.0959,-16.0959,-16.0823,-16.0417,-16.0417,-16.0214,-15.9876,-15.7261,-15.5961,-15.6356,-15.1671,-14.9129,-14.8814,-14.7566,-14.6584,-14.6026,-14.6336,-14.5597,-14.4096,-14.2755,-14.0479,-13.7708,-13.6092,-13.5374,-13.5314,-13.4357,-13.316,-13.2024,-3.4687,-3.4296,-3.4174,-3.5341,-3.5393,-3.5277,-3.5247,-3.5513,-3.8924,-4.8029,-5.1242,-5.6018,-6.4784,-6.6416,-6.5647,-6.2656,-6.8027,-7.11,-6.9962,-8.7529,-9.9521,-10.311,-10.5307,-10.5303,-10.3019,-10.057,-9.9962,-10.136,-10.2662,-10.3427,-10.3861,-10.5421,-10.5677,-10.4991,-10.6035,-10.6302,-10.5943,-10.2765,-10.1402,-10.122,-9.7363,-9.6066,-9.5594,-9.1039,-8.8441,-8.7427,-8.9714,-8.9091,-8.7293,-8.9729,-9.0132,-9.0612,-9.4685,-9.7418,-9.5728,-7.929,-8.0062,0.0,0.0,0.0,0.0,0.0,0.0,0.0,0.0,-8.4951,-8.8365,-9.5171,-10.0139,-10.7998,-12.2559,-12.8871,-13.6399,-15.0133,-15.3719,-15.5884,-15.9064,-15.9538,-15.8863,-15.7248,-15.6889,-15.8482,-16.2039,-16.2515,-16.2379,-16.1973,-16.2312,-16.2379,-16.1973,-16.2379,-16.2312,-16.1703,-16.1703,-16.1161,-15.967,-15.6608,-15.4737,-15.3943,-14.8399,-14.5597,-14.5535,-14.3007,-14.1838,-14.1838,-14.1778,-14.1538,-14.1179,-13.9444,-13.8127,-13.693,-13.4776,-13.3639,-13.322,-13.322,-13.1723,-12.9922,-3.3908,-3.3959,-3.4289,-3.5433,-3.5629,-3.5655,-3.5521,-3.6573,-4.0707,-4.9808,-5.2872,-5.6901,-6.4153,-6.5649,-6.3166,-5.583,-7.3852,-8.3898,-7.9355,-9.8768,-11.1162,-11.246,-11.4005,-11.4527,-11.3753,-11.1743,-11.2044,-11.4377,-11.3851,-11.2031,-10.8837,-11.3439,-11.3601,-10.9942,-11.3479,-11.4918,-11.4609,-11.0937,-10.9521,-10.9304,-10.481,-10.3088,-10.3659,-10.5277,-10.049,-9.2446,-9.2444,-8.6345,-8.0749,-9.435,-9.3568,-8.9323,-10.3097,-10.8005,-10.656,-9.3542,-9.0662,-8.7238,-6.6535,-6.3427,-6.8318,-7.8206,-8.169,-8.8172,0.0,-10.7964,-10.7593,-12.4022,-12.9469,-13.3749,-14.2456,-14.7156,-15.1013,-15.4802,-15.7237,-15.8996,-16.0079,-16.0282,-16.0282,-16.0754,-16.0889,-16.1228,-16.1635,-16.2176,-16.2785,-16.3394,-16.2921,-16.2785,-16.3394,-16.2921,-16.2582,-16.2515,-16.2515,-16.0735,-15.7186,-15.4181,-15.0802,-14.7435,-14.4217,-14.2356,-14.2356,-14.2157,-14.1838,-14.1838,-14.1239,-14.0282,-13.9204,-13.8366,-13.6571,-13.4357,-13.4117,-13.2501,-13.0467,-13.0467,-12.9509,-12.854,-3.4501,-3.4751,-3.5145,-3.5577,-3.5743,-3.5905,-3.628,-3.6869,-3.8945,-4.3439,-4.5185,-4.7459,-5.1225,-5.2303,-5.0939,-4.6657,-6.8676,-8.2018,-8.0132,-10.372,-11.7776,-11.7936,-12.0761,-12.2177,-12.1804,-12.1711,-12.1915,-12.2194,-12.2952,-12.2057,-11.9302,-12.2124,-12.2528,-12.0787,-12.2541,-12.3199,-12.2899,-11.9303,-11.805,-11.7656,-11.3289,-11.1517,-11.1885,-11.1776,-10.8245,-10.2288,-9.6212,-9.0797,0.0,-9.3386,-9.3921,-9.4541,-10.7393,-10.8921,-10.4693,-9.7949,-9.2213,-8.7276,-8.412,-8.3121,-8.5581,-9.7252,-10.1979,-10.6528,-11.7001,-11.8378,-12.0943,-13.3566,-13.8122,-14.2246,-15.0053,-15.3178,-15.5275,-15.7508,-15.8726,-15.9605,-16.0282,-16.0011,-15.9538,-15.8996,-15.9673,-16.0688,-16.1973,-16.3191,-16.3733,-16.3124,-16.3597,-16.38,-16.3665,-16.38,-16.3733,-16.3259,-16.1197,-15.8976,-15.6884,-15.1567,-14.8169,-14.6522,-14.3517,-14.1838,-14.1838,-14.1838,-14.1658,-14.1239,-14.0641,-13.9563,-13.8247,-13.681,-13.5135,-13.3279,-13.2142,-13.0526,-12.897,-12.9748,-12.8911,-12.7991,-3.5034,-3.543,-3.5764,-3.599,-3.6144,-3.639,-3.6861,-3.7113,-3.7732,-3.8831,-3.9757,-4.0772,-4.1858,-4.2679,-4.2551,-4.1274,-6.1544,-7.6082,-8.0378,-10.3207,-11.8235,-12.2369,-12.5736,-12.7938,-12.8796,-12.9472,-12.94,-12.82,-12.9412,-12.8864,-12.6696,-12.8013,-12.8611,-12.8611,-12.8611,-12.8611,-12.8376,-12.5992,-12.4848,-12.4372,-12.1226,-11.9665,-11.8873,-11.6481,-11.27,-10.7168,-9.8229,-9.1804,-8.7701,-8.8797,-8.8905,-9.0275,-10.2297,-10.2693,-9.797,-9.5636,-8.7915,-8.217,-9.1626,-9.378,-9.6414,-10.8802,-11.6343,-12.1071,-12.2806,-12.5978,-13.0608,-13.7882,-14.1317,-14.5255,-15.2481,-15.4483,-15.6087,-15.8591,-15.9199,-15.9538,-16.0011,-15.9335,-15.8049,-15.629,-15.6899,-15.8185,-16.0011,-16.2582,-16.4003,-16.3597,-16.4341,-16.4815,-16.4612,-16.4747,-16.4061,-16.2557,-15.9623,-15.7079,-15.431,-14.9381,-14.6215,-14.5099,-14.3067,-14.1838,-14.1838,-14.1658,-14.1179,-14.0282,-13.9444,-13.8307,-13.693,-13.5015,-13.3399,-13.2023,-13.0407,-12.8791,-12.7654,-12.8611,-12.7774,-12.7077,-3.5034,-3.5341,-3.5862,-3.6714,-3.6889,-3.6954,-3.7031,-3.7638,-3.8361,-3.9176,-4.0404,-4.1313,-4.1586,-4.2321,-4.2662,-4.2286,-5.4809,-6.8493,-8.2139,-9.6155,-11.075,-12.6234,-12.8944,-13.1834,-13.5551,-13.4462,-13.3552,-13.2972,-13.2394,-13.0763,-12.8133,-12.933,-12.9928,-12.9928,-12.9928,-12.9928,-12.9928,-12.969,-12.9331,-12.8734,-12.8137,-12.6643,-12.4612,-12.1267,-11.3262,-10.2997,-9.6582,-8.5972,-7.5652,-8.0524,-7.5566,-7.0049,-8.4101,-8.8232,-8.7856,-8.6479,-7.7741,-7.062,-8.0554,-8.5521,-9.1267,-10.5091,-11.7779,-12.7534,-13.0108,-13.2861,-13.5818,-13.9729,-14.201,-14.5316,-15.0532,-15.2683,-15.4666,-15.7711,-15.8793,-15.9335,-15.9335,-15.8049,-15.629,-15.4057,-15.3178,-15.311,0.0,-15.9199,-16.3597,-16.5695,-16.5221,-16.5424,-16.6912,-16.5627,-16.3085,-15.9499,-15.9147,-15.5444,-14.8006,-14.776,-14.5774,-14.2097,-14.1838,-14.1838,-14.1838,-14.1179,-14.0162,-13.8905,-13.7648,-13.6332,-13.4895,-13.292,-13.1305,-12.9988,-12.9389,-12.7893,-12.6218,-12.6218,-12.538,-12.5087,-3.5997,-3.6331,-3.6714,-3.7555,-3.7753,-3.8083,-3.9314,-3.9204,-3.9148,-3.975,-4.0988,0.0,0.0,0.0,0.0,0.0,-5.5423,-6.5258,-7.0734,-9.2472,-10.8267,-11.4971,-12.6761,-13.3965,-13.6079,-13.7274,-13.7011,-13.518,-13.3547,-13.1706,-12.9313,-12.8463,-12.8312,-12.8731,-12.8731,-12.897,-12.9389,-12.9389,-12.903,-12.8312,-12.6756,-12.1789,-11.4906,-11.1136,-10.192,-8.9858,0.0,-7.407,-6.8794,-6.9677,-6.7889,-6.7603,-7.9842,-7.9537,-7.445,-7.3552,-7.5707,-8.0853,-9.2165,-9.8568,-10.5211,-11.8198,-12.6277,-13.1604,-13.3818,-13.5015,-13.6601,-13.9915,-13.4866,-13.3248,-14.4416,-14.196,-14.1717,-15.2039,-15.5208,-15.637,-15.6206,-15.4999,-15.2582,-14.8391,-14.7902,0.0,0.0,0.0,0.0,-16.2109,-16.3394,-16.3373,-16.1718,-16.1319,-15.9477,-15.5926,-15.2865,-15.0085,-14.7514,-14.4958,-14.3309,-14.1838,-14.1359,-14.1179,-14.1179,-14.0521,-13.9324,-13.7529,-13.6212,-13.4656,-13.292,-13.0886,-12.933,-12.8013,-12.7414,-12.6218,-12.4781,-12.4781,-12.4243,-12.414,0.0,-3.6794,-3.7165,-3.8324,-3.8556,0.0,0.0,0.0,0.0,0.0,0.0,0.0,0.0,0.0,0.0,0.0,0.0,-5.9117,-6.4363,-8.1962,-9.5165,-10.1787,-11.3551,-12.0597,-12.2102,-12.4109,-12.4073,-12.1435,-12.4316,-12.4729,-12.2588,-12.4755,-12.6262,-12.6867,-12.6318,-12.6397,-12.6996,-12.6696,-12.4302,-12.0532,-11.8796,-11.1615,-10.1501,-9.773,-8.8873,0.0,-6.9842,-6.4397,-6.0442,-5.9273,-5.8927,-6.085,-7.1659,-7.1457,-6.7986,-7.1577,-7.6425,-8.4085,-10.0304,-10.7844,-11.4308,-12.7295,-13.2322,-13.4417,-13.5733,-13.5973,-13.6295,-13.6773,-13.0525,-12.8069,-13.7972,-13.3983,-13.312,-14.5651,-14.814,-14.9203,-15.1185,-15.025,-14.8235,-14.4951,-14.4346,-14.4154,0.0,0.0,0.0,-15.6983,-15.9628,-15.9988,-15.7195,-15.7035,-15.5409,-15.2106,-14.9115,-14.6957,-14.5523,-14.3248,-14.1778,-14.1479,-14.088,-14.0282,-13.9803,-13.9384,-13.7828,-13.5434,-13.4417,-13.2861,-13.0826,-12.8791,-12.7534,-12.6636,-12.5739,-12.4721,-12.3824,-12.3824,-12.3405,-12.3255,0.0,0.0,-3.7315,0.0,0.0,0.0,0.0,0.0,0.0,0.0,0.0,0.0,0.0,0.0,0.0,0.0,0.0,0.0,-6.2304,-6.573,-7.3511,-8.7312,-9.1451,-9.446,-9.665,-9.8249,-9.7741,-9.514,-10.6271,-11.0388,-10.8206,-11.7472,-12.2248,-12.2927,-12.1301,-12.0872,-12.1472,-12.0872,-11.5176,-10.6229,-10.4912,-9.6892,-8.5462,-8.223,-7.4869,-6.5772,-6.266,-5.7034,-5.099,-5.0451,-4.9728,-5.0917,-6.0946,-6.5413,-6.9183,-8.0494,-8.0434,-8.1751,-10.4912,-11.3291,-11.8557,-13.1783,-13.5494,-13.5973,-13.5913,-13.5673,-13.4297,-12.9808,-12.7889,-12.7571,-12.9431,-12.7355,-12.8371,-13.7983,-13.8368,-13.9441,-14.5143,-14.4602,-14.3805,-14.3933,-14.2279,-14.1961,-14.3869,-14.4347,0.0,-15.0544,0.0,-15.5535,-15.3376,-15.3143,-15.1234,-14.7576,-14.7205,-14.5523,-14.1838,-14.1838,-14.1479,-14.082,-14.0102,-13.9085,-13.7888,-13.7768,-13.5973,-13.298,-13.2202,-13.0766,-12.8791,-12.6816,-12.5978,-12.5799,-12.4602,-12.3704,-12.3105,-12.3105,-12.2687,-12.2654,0.0,0.0,0.0,0.0,0.0,0.0,0.0,0.0,0.0,0.0,0.0,0.0,0.0,0.0,0.0,0.0,0.0,0.0,-4.9446,-6.0368,-6.8663,-7.2959,-8.5987,-9.3287,-9.3652,-9.6348,-9.7322,-9.6349,-9.8001,-9.8387,-9.7656,-9.8176,-9.8556,-9.8776,-9.8299,-9.8456,-9.8962,-9.7983,-9.582,-9.285,-9.0819,-8.3666,-7.3971,-7.1637,-6.4276,-5.5119,-5.4281,-5.1828,-4.9134,-4.9972,-5.5573,-6.41,-7.4433,-7.8759,-8.235,-9.4558,-9.9645,-10.4613,-11.9515,-12.6936,-13.1305,-13.4895,-13.5913,-13.5613,-13.4117,-13.1484,-12.6397,-11.5984,-10.5546,-9.8498,-9.8723,-10.1064,-10.7464,-12.136,-13.2702,-14.078,-14.377,-14.3678,-14.2483,-13.9892,-13.9403,-13.9403,-13.9648,-14.2131,-14.3601,0.0,-14.9145,-15.1671,-14.9171,-14.899,-14.7452,-14.4291,-14.355,-14.2991,-14.1838,-14.1359,-14.076,-14.0102,-13.8965,-13.8247,-13.7888,-13.6451,-13.4716,-13.292,-13.0766,-12.897,-12.7474,-12.5439,-12.4302,-12.3883,-12.3524,-12.2986,-12.2447,-12.2447,-12.2268,-12.2594,0.0,0.0,0.0,0.0,0.0,0.0,0.0,0.0,0.0,0.0,0.0,0.0,0.0,0.0,0.0,0.0,0.0,0.0,0.0,-5.3078,-5.8364,-5.9171,-6.9743,-7.5479,-7.5285,-7.7737,-7.9021,-7.8728,-8.2276,-8.4046,-8.4018,-8.664,-8.7872,-8.7878,-8.7387,-8.7498,-8.8182,-8.6691,-8.3557,0.0,0.0,-6.9961,-6.0685,-5.9308,-5.5119,-4.9912,-4.9912,-5.2366,-5.6615,-6.2839,-7.1457,-8.0913,-8.8933,-9.2524,-9.6354,-10.952,-11.3171,-11.5804,-12.8492,-13.4297,-13.6751,-13.6511,-13.5793,-13.316,-12.5619,-12.131,-11.4966,-10.1261,-9.1327,-8.6299,-9.0633,-9.3219,-10.0037,-11.6359,-12.7029,-13.487,-13.9402,-14.038,-14.0311,-14.0118,-13.9444,-13.9204,-14.0042,-14.1275,-14.1586,0.0,-14.5778,-14.7365,-14.4782,-14.4836,-14.4318,-14.2436,-14.1778,-14.1239,-14.1,-14.0042,-13.9444,-13.8965,-13.7409,-13.6511,-13.6092,-13.4776,-13.31,-13.1185,0.0,-12.7714,-12.6098,-12.4422,-12.3345,-12.2746,-12.2746,-12.2327,-12.1789,-12.2088,-12.2917,-12.4233,0.0,0.0,0.0,0.0,0.0,0.0,0.0,0.0,0.0,0.0,-4.0157,-4.1185,0.0,0.0,0.0,0.0,0.0,0.0,0.0,0.0,-4.7131,-4.7939,-5.0949,-5.2637,-5.2858,-5.4473,-5.5377,-5.5532,-6.4624,-6.9106,-6.9129,-7.7379,-8.1137,-8.1029,-8.0141,-8.0197,-8.0569,-7.8822,-7.3442,-6.5934,-6.3538,-5.7214,-4.8955,0.0,-4.8177,-4.8177,-4.8237,-5.5299,-6.649,-7.9716,-8.9591,-9.7431,-10.3296,-10.6528,-11.0657,-12.3345,-12.3225,-12.1609,-13.3938,-13.7708,-13.8007,-13.711,-13.5195,-12.9689,-11.5086,-10.94,-10.2578,-8.6419,-8.0973,-8.1709,-8.9907,-9.1271,-9.6995,-11.5357,-12.0608,-12.5619,-13.4596,-13.6511,-13.8426,-14.2197,-14.0641,-14.0102,-14.2496,-14.1119,-14.0521,-14.1658,-14.3608,-14.3804,-14.1258,-14.1479,-14.1718,-14.1598,-14.1179,-14.0521,-13.9803,-13.8486,-13.7888,-13.7708,-13.5853,-13.4596,-13.3998,-13.298,-13.1364,-12.921,-12.8133,0.0,-12.5021,-12.3584,-12.2687,-12.2208,-12.2208,-12.1789,-12.143,-12.1968,-12.4015,-12.613,0.0,0.0,0.0,0.0,0.0,0.0,0.0,0.0,0.0,0.0,-4.0524,-4.1625,0.0,0.0,0.0,0.0,0.0,0.0,0.0,0.0,0.0,-4.625,-4.8159,-4.9774,-5.1169,-5.2784,-5.3989,-5.459,-5.7131,-5.769,-5.6505,-5.8806,-5.9253,-5.806,-5.854,-5.8847,-5.8753,-5.6809,-5.5011,-5.3344,-5.1212,-4.9314,-4.7638,-4.7519,0.0,0.0,-4.8117,-5.4102,-6.4276,-8.0674,-9.2583,-10.2638,-11.4906,-12.0472,-12.3704,-12.9988,-13.2202,-13.3579,-13.8127,-13.9444,-13.9144,-13.7349,-13.3818,-12.6996,-11.2393,-10.4912,-9.5037,-7.3791,-6.7328,-6.5652,-6.6249,-6.9863,-7.9862,-10.1996,-11.022,-11.8617,-13.31,-13.6631,-13.8606,-14.1,-14.082,-14.094,-14.1957,-14.1239,-14.076,0.0,-14.1935,-14.2175,-14.1718,-14.1239,-14.076,-14.0282,-14.0641,-14.0282,-13.9085,-13.8247,-13.7648,-13.705,-13.5135,-13.4117,-13.3878,-13.1604,-13.0287,-12.9689,-12.6876,0.0,-12.5021,-12.3105,-12.2268,-12.2208,-12.2208,-12.2088,-12.2028,-12.2208,-12.4015,-12.6552,0.0,0.0,0.0,0.0,0.0,0.0,0.0,-4.0304,-4.072,-4.1285,-4.205,-4.2559,-4.2839,-4.324,-4.3461,0.0,0.0,0.0,0.0,0.0,0.0,-4.5883,-4.7425,-4.9114,-5.0729,-5.1977,-5.3023,-5.3809,0.0,-5.3288,-5.2271,-5.2984,-5.2753,-5.1758,-5.2976,-5.3518,-5.3315,-5.1262,-5.0429,-5.0274,-4.8157,-4.7279,-4.7279,-4.7279,0.0,0.0,-4.8057,-5.4221,-6.3677,-7.3612,-8.7676,-10.3835,-12.0113,-12.7055,-12.9928,-13.3519,-13.5733,-13.7529,-13.9803,-14.0401,-13.9803,-13.705,-13.2741,-12.3704,-10.3296,-9.4319,-8.3906,-6.1403,-5.5538,-5.5538,-5.9368,-6.7508,-7.9238,-9.6593,-10.7605,-11.8378,-13.1125,-13.3698,-13.6092,-14.082,-14.0521,-14.0282,-14.1239,-14.076,-14.0521,-14.088,-14.1479,-14.1838,-14.1838,-14.1239,-14.0282,-13.8905,-13.9204,-13.8726,-13.7409,-13.6391,-13.4866,-13.2688,-13.2545,-13.1229,-12.9222,-12.945,-12.921,-12.8372,-12.6457,0.0,-12.4542,-12.3225,-12.2268,-12.1669,-12.2088,-12.1968,-12.1952,-12.3675,-12.5981,-12.8558,0.0,0.0,0.0,0.0,0.0,0.0,-4.1111,-4.1379,-4.1867,-4.3274,-4.3796,-4.366,-4.2596,-4.3104,-4.3541,0.0,0.0,0.0,0.0,0.0,0.0,0.0,0.0,0.0,-5.0729,0.0,0.0,0.0,-5.2401,0.0,0.0,0.0,0.0,0.0,-5.2909,-5.3518,-5.3315,-5.1262,-5.0429,0.0,0.0,-4.7279,0.0,0.0,0.0,0.0,0.0,-5.3084,-6.0505,-6.5951,-7.9382,-9.6886,-11.3949,-12.3584,-12.9146,-13.2502,-13.4127,-13.6221,-14.0507,-14.1334,-14.0042,-13.681,-13.1783,-12.1011,-9.5456,-8.5498,-7.5322,-5.2942,-4.7932,-5.0186,-5.8637,-6.6729,-7.7442,-9.3361,-10.2159,-11.2127,-12.6714,-12.8557,-13.118,-13.8147,-13.933,-13.917,-13.8501,-13.867,-13.919,-13.9665,-14.02,0.0,-14.1419,-14.1119,-13.9922,-13.7768,-13.7768,-13.7289,-13.5973,-13.4716,-13.2396,-12.8819,-12.9587,-12.8106,-12.4818,-12.6821,-12.7426,-12.7055,-12.6218,0.0,0.0,-12.3405,-12.2447,-12.149,-12.1968,-12.1849,-12.1873,-12.5006,-12.8006,-13.05,0.0,0.0,0.0,0.0,0.0,0.0,-4.1846,-4.2268,-4.3228,-4.5534,-4.5347,-4.4466,-4.2995,-4.3386,-4.349,0.0,0.0,0.0,0.0,0.0,0.0,0.0,0.0,0.0,0.0,0.0,0.0,0.0,0.0,0.0,0.0,0.0,0.0,0.0,0.0,0.0,-5.3315,-5.1262,0.0,0.0,0.0,0.0,0.0,0.0,0.0,0.0,0.0,-4.7997,-5.0631,-6.2959,-6.9453,-7.4515,-8.7395,-10.3117,-11.7942,-12.3336,-12.5391,-12.9014,-14.1661,-14.2931,-14.0042,-13.681,-13.1125,-11.9874,-9.5277,-8.5333,-7.5054,-5.2858,-4.8475,-5.1045,-5.8684,-5.5179,-6.0505,-8.9172,-8.4325,-8.731,-11.7218,-12.0701,-12.2702,-12.932,-13.6181,-13.8238,-13.1228,-13.3713,-13.5726,-13.5783,-13.5841,0.0,-13.9845,-14.0641,-13.9683,-13.705,-13.7588,-13.7289,-13.5973,-13.4716,-13.2396,-12.8877,-12.7225,-12.5703,-12.4818,-12.3798,-12.4631,-12.6996,-12.5739,0.0,0.0,-12.3405,-12.2806,-12.2088,-12.2208,-12.2208,-12.2474,-12.519,-12.8006,-13.05,0.0,0.0,0.0,0.0,0.0,0.0,-4.1919,-4.2373,-4.2847,-4.4049,-4.4769,-4.4448,-4.2748,-4.3092,-4.2891,-4.1609,-4.2095,0.0,0.0,0.0,0.0,0.0,0.0,0.0,0.0,0.0,-5.0998,-5.153,0.0,0.0,0.0,0.0,0.0,0.0,0.0,0.0,0.0,-5.1262,0.0,0.0,0.0,0.0,0.0,0.0,0.0,0.0,0.0,0.0,-4.9977,-5.5193,-6.1939,-6.7971,-6.7641,-7.8421,-9.4545,-11.2745,-11.9638,-12.4426,-13.9,-14.2268,-14.0581,-13.693,-13.0407,-11.8834,-9.5358,-8.4603,-7.3803,-5.3703,-4.919,-4.9727,-5.2765,-5.8655,-6.5352,-7.2365,-8.1137,-9.1683,-10.4884,-11.1173,-11.7451,-12.6147,-13.1185,-13.2537,-12.9387,-13.0781,-13.2178,-13.1841,-13.2178,0.0,-13.2672,-13.2843,-13.3055,-13.3115,-13.1097,-12.9472,-12.8272,-12.6958,-12.4833,-12.1284,-12.1624,-12.1164,-12.0489,-12.1702,-12.3747,-12.6457,-12.5918,0.0,0.0,-12.3824,-12.3105,-12.2208,-12.2208,-12.3198,-12.4976,-12.7594,-13.0303,-13.2891,0.0,0.0,0.0,0.0,0.0,-3.962,-4.1952,-4.237,-4.2702,-4.3535,-4.4212,-4.4042,-4.2513,-4.2091,-4.1553,-4.0622,-4.1321,0.0,0.0,0.0,0.0,0.0,0.0,0.0,0.0,0.0,-5.123,-5.1475,-5.1918,-5.1708,0.0,0.0,0.0,0.0,0.0,0.0,0.0,0.0,0.0,0.0,0.0,0.0,0.0,0.0,0.0,0.0,0.0,0.0,0.0,0.0,0.0,-6.1536,-5.5102,-6.0419,-7.3766,-9.8502,-10.9937,-11.8047,-13.3676,-14.0262,-14.1845,-13.861,-12.9595,-11.6129,-9.6017,-8.3178,-7.0762,-5.3701,-4.9693,-4.9085,-4.8429,-5.7674,-6.4872,-6.3333,-7.4073,-8.6283,-9.6623,-10.1304,-10.6816,-11.5736,-12.0456,-12.2432,-12.0857,-12.5689,-12.8764,-12.8164,-12.8328,0.0,-12.8108,-12.5919,-12.5835,-12.8887,-12.637,-12.4948,-12.4793,-12.2507,-12.0626,-11.9231,-11.9242,-11.9067,-11.9309,-12.1416,-12.3514,-12.6098,-12.6098,0.0,0.0,-12.4123,-12.3345,-12.2208,-12.2208,-12.3419,-12.5343,-12.89,-13.1285,-13.3458,0.0,0.0,0.0,0.0,0.0,-3.9797,-4.1985,-4.2377,-4.3089,-4.489,-4.4047,-4.2943,-4.2392,-4.0324,-3.9359,-4.0036,-4.1185,0.0,0.0,0.0,0.0,0.0,0.0,0.0,-4.9775,-5.1213,-5.2028,-5.2201,-5.2201,-5.2196,-5.23,-5.23,-5.2706,0.0,0.0,0.0,0.0,0.0,0.0,0.0,0.0,0.0,0.0,0.0,0.0,0.0,0.0,0.0,0.0,0.0,0.0,0.0,0.0,-5.2433,-5.8766,-7.9148,-9.4238,-10.8013,-12.5589,-13.7033,-14.4124,-14.2876,-12.8995,-11.1718,-9.755,-8.1137,-6.5247,-5.241,-5.0088,-4.9805,-4.7709,-4.7459,-5.2476,-6.7341,-5.9085,-6.2075,-9.4702,-9.1662,-8.8352,-9.3967,-10.2754,-10.6669,-10.2279,-11.6244,-12.5353,-12.4826,-12.4245,0.0,-12.8324,-12.1038,-11.9409,-12.4796,-12.5014,-12.6024,-12.8562,-12.388,-12.3263,-12.6662,-12.1771,-12.074,-12.2614,-12.286,-12.3981,0.0,0.0,0.0,0.0,-12.4123,-12.3345,-12.2208,-12.2208,-12.2208,-12.2977,-12.8149,-13.0104,-13.0894,0.0,0.0,0.0,0.0,0.0,0.0,-4.0515,-4.0653,-4.0961,-4.1665,-4.1895,-4.2027,-4.2117,-4.0988,-4.0637,-4.1527,-4.0588,0.0,0.0,0.0,0.0,0.0,0.0,0.0,-4.9703,-5.0293,-5.1101,-5.2201,-5.3264,-5.3529,-5.3112,-5.3653,-5.3991,-5.4194,-5.2964,0.0,0.0,0.0,0.0,0.0,0.0,0.0,0.0,0.0,0.0,0.0,0.0,0.0,0.0,0.0,0.0,0.0,0.0,0.0,0.0,-6.3314,-7.5723,-9.0052,-10.4843,-11.1737,-11.4047,-11.1221,-10.3936,-9.4165,-8.2174,-7.2774,-6.402,-5.4273,-5.1317,-5.0197,-4.9567,-5.3039,-5.7754,-6.3101,-6.5286,-7.1973,-8.8576,-9.1447,-9.5461,-10.4464,-11.1662,-11.59,-11.4794,0.0,-12.0352,-12.0199,0.0,0.0,-12.0255,-12.0292,-12.0578,-12.1245,-12.1245,-12.1215,-12.1295,-12.1175,-12.1952,-12.3002,-12.0343,-12.0571,-12.3494,-12.263,-12.3806,0.0,0.0,0.0,0.0,-12.4123,-12.3345,-12.2208,-12.2208,-12.3358,-12.519,-12.6761,-12.9705,-13.3081,0.0,0.0,0.0,0.0,0.0,0.0,-3.9369,-3.9717,-3.9849,-3.977,-4.0239,-4.0681,-4.1093,-4.0239,-4.0075,-4.1391,-3.9986,0.0,0.0,0.0,0.0,0.0,0.0,0.0,-4.9007,-5.0181,-5.1405,-5.2678,-5.4174,-5.472,-5.4329,-5.4387,-5.4313,-5.3908,-5.2178,-5.1336,0.0,0.0,0.0,0.0,0.0,0.0,-4.849,0.0,0.0,0.0,0.0,0.0,0.0,0.0,0.0,0.0,0.0,0.0,0.0,0.0,-6.2496,-7.3436,-8.8572,-9.6669,-10.0138,-9.8361,-9.1472,-8.3185,-7.5592,-6.7451,-6.0712,-5.7771,-5.6136,-5.5961,-5.8394,-5.9168,-6.1498,-6.7968,-6.5574,-6.9244,-8.7146,-8.8708,-9.2327,-10.4002,-11.0304,-11.3793,0.0,-11.6806,-11.8463,-11.8212,0.0,0.0,-11.8561,-12.0777,-12.2078,-12.2129,-12.2129,-12.2041,-12.2277,-12.2316,-12.3187,-12.5388,-12.2632,-12.305,-12.5918,-12.5099,-12.5588,0.0,0.0,0.0,0.0,-12.4243,-12.3345,-12.2208,-12.2208,-12.3138,-12.4976,-12.697,-12.9769,-13.2891,0.0,0.0,0.0,0.0,0.0,0.0,0.0,-3.935,-3.963,-3.9046,-3.9083,-3.9296,-3.9678,-3.8573,-3.8377,-4.0018,-3.9494,0.0,0.0,0.0,0.0,0.0,0.0,-4.6914,-4.78,-5.0573,-5.2481,-5.3368,-5.4834,-5.5684,-5.5612,-5.4542,-5.37,-5.3041,-5.1134,-5.0274,-5.0119,-4.9166,0.0,0.0,-4.7366,-4.8512,0.0,0.0,0.0,0.0,0.0,0.0,0.0,0.0,0.0,0.0,0.0,0.0,0.0,0.0,0.0,0.0,0.0,-8.8385,-9.7292,-9.7901,-8.7617,-7.6792,-7.4627,-6.3937,0.0,-6.1436,-6.2355,-6.4183,-7.0235,-6.4275,-6.3283,-7.8121,-6.16,-5.7786,-8.9305,-8.5159,-8.3539,-9.6618,-10.1942,-10.4553,-10.4302,-11.3191,-11.8815,-11.8313,0.0,0.0,-12.2053,-12.282,-12.3957,-12.6449,-12.683,-12.7782,-12.9542,-12.5867,-12.6901,-13.2083,-12.8011,-12.7264,-12.921,-12.921,-12.8791,0.0,0.0,0.0,0.0,-12.4362,-12.3345,-12.2208,-12.2208,-12.2208,-12.2756,-12.7881,-12.9905,-13.0894,0.0,0.0,0.0,0.0,0.0,0.0,0.0,0.0,0.0,0.0,-3.9337,-3.9795,-4.0083,-3.9934,-4.0106,0.0,0.0,0.0,0.0,0.0,0.0,0.0,-4.413,-4.5891,-4.7746,-4.9629,-5.1279,-5.2537,-5.4661,-5.5619,-5.5612,-5.4542,-5.3964,-5.3691,-5.0549,-4.8759,-4.7988,-4.7794,0.0,0.0,-4.8157,-4.8759,0.0,0.0,0.0,0.0,-5.3576,-5.3719,0.0,0.0,0.0,0.0,0.0,0.0,0.0,0.0,-5.0992,-5.1932,-5.6912,0.0,-6.6779,-6.5831,-6.2922,-6.008,0.0,-5.6156,-5.4123,-5.5488,-5.4514,-5.3978,-5.6081,-5.8145,-6.1545,-6.7293,-6.4626,-6.8291,-8.6452,-9.6131,-10.4036,-11.0479,-11.4446,-11.5953,-11.4245,-11.6706,-11.8514,-11.8815,0.0,-12.2307,-12.3453,-12.8715,-13.1746,-13.1815,-13.3796,-13.315,-12.9542,-13.0288,-13.1449,-13.2741,-13.1354,-13.0521,-13.0526,-12.9988,-12.9449,0.0,0.0,0.0,-12.5021,-12.3883,-12.2866,-12.2208,-12.2208,-12.2208,-12.2594,-12.5981,-12.8353,-13.05,0.0,0.0,0.0,0.0,0.0,0.0,0.0,0.0,0.0,0.0,-3.9056,-3.9483,-3.9661,-3.9929,-4.0137,0.0,0.0,0.0,0.0,0.0,0.0,-4.2286,-4.4384,-4.617,-4.7317,-4.9501,-5.1138,-5.2261,-5.4123,-5.4974,-5.4901,-5.3421,-5.2523,-5.2059,-4.9846,-4.8512,-4.7988,-4.7988,-4.7709,-4.7366,-4.7904,0.0,0.0,0.0,0.0,0.0,-5.3165,-5.3446,0.0,-5.3991,-5.3515,-5.2767,0.0,0.0,0.0,0.0,-4.9854,-4.9052,-4.9563,-5.1507,-5.3268,-5.2964,-5.2553,-5.2208,-5.2296,-5.2031,-5.43,-6.296,-6.0022,-5.8395,-6.7036,-6.7204,-6.7688,-7.2823,-7.1708,-7.4969,-8.8446,-10.1074,-11.0529,-11.5099,-11.776,-11.8915,0.0,-11.8212,-11.8363,-11.8614,0.0,-12.1907,-12.5356,-12.9277,-13.2712,-13.5423,-13.6398,-13.5699,-13.2688,-13.3368,-13.3579,-13.298,-13.2621,-13.1963,-13.1065,-13.0646,-13.0108,0.0,0.0,0.0,-12.538,-12.4992,-12.4562,-12.4233,-12.5404,-12.5707,-12.613,-12.8698,-13.0698,-13.2253,0.0,0.0,0.0,0.0,0.0,0.0,0.0,0.0,0.0,0.0,0.0,0.0,0.0,0.0,0.0,0.0,0.0,0.0,0.0,0.0,-4.2354,-4.2422,-4.5263,-4.6819,-4.6955,-4.9729,-5.149,-5.2101,-5.3473,-5.4152,-5.4,-5.2226,-5.0869,-4.9854,-4.9213,-4.8984,-4.9085,-4.9085,-4.8429,-4.7538,-4.7709,0.0,0.0,0.0,0.0,0.0,0.0,0.0,0.0,-5.3382,-5.2702,-5.2009,-5.2706,0.0,0.0,0.0,0.0,0.0,-4.8233,-4.9737,-5.1407,-5.2172,-5.0908,-4.9963,-5.1932,-5.1119,-5.4941,-7.256,-6.8788,-6.7494,-8.4695,-8.0779,-7.6913,-8.3079,-8.0013,-8.0884,-9.3209,-10.2988,-11.073,-11.5199,-11.6907,0.0,-11.8614,-11.8313,-11.8112,-11.8313,-11.8321,-12.0914,-12.693,-12.8165,-13.1178,-13.6813,-13.65,-13.5973,-13.5853,-13.5195,-13.4297,-13.316,-13.298,-13.2382,-13.1125,-13.0945,-13.0526,-12.9748,0.0,0.0,-12.6029,-12.6632,-12.6688,-12.6403,-12.9166,-13.0104,-13.05,-13.3081,-13.4086,-13.4523,0.0,0.0,0.0,0.0,0.0,0.0,0.0,0.0,0.0,0.0,0.0,0.0,0.0,0.0,0.0,0.0,0.0,0.0,0.0,-4.1813,-4.2557,-4.3234,-4.5534,-4.709,-4.7699,-4.9999,-5.1161,-5.1012,-5.3634,-5.4476,-5.36,-5.2918,-5.163,-4.9832,-4.9708,-4.9828,-5.0197,-5.0197,-4.9567,-4.8677,-4.9567,0.0,0.0,0.0,0.0,0.0,0.0,0.0,0.0,-5.2706,-5.2369,-5.1967,-5.0755,0.0,0.0,0.0,0.0,0.0,-4.7449,-5.3469,-5.9405,-5.9538,-5.4421,-5.1197,-5.8006,-5.4988,-5.3915,-6.5038,-6.5029,-6.6997,-8.0268,-8.3399,-8.3022,-8.0078,-8.4807,-9.1369,-9.9211,-10.7412,-11.3291,-11.545,0.0,-11.8313,-11.7057,-11.7308,-11.7911,-11.8865,-12.1094,-12.2948,-12.4439,-13.0167,-13.3306,-13.3213,-13.5533,-13.6212,-13.5195,-13.4476,-13.4117,-13.3818,-13.3279,-13.2621,-13.1783,-13.0706,-12.9808,-12.909,0.0,-12.532,-12.5309,-12.5957,-12.6254,-12.6403,-12.9166,-13.0104,-13.05,-13.3081,-13.4086,-13.4523,0.0,0.0,0.0,0.0,0.0,0.0,0.0,0.0,0.0,0.0,0.0,0.0,0.0,0.0,0.0,0.0,0.0,0.0,-4.1136,-4.188,-4.2543,-4.3165,-4.5909,-4.7564,-4.7902,-5.0067,-5.1296,-5.1322,-5.2823,-5.3262,-5.2565,-5.144,-5.0876,-5.0655,-5.0277,-5.053,-5.1262,-5.1262,-5.0288,-4.8841,0.0,0.0,0.0,0.0,0.0,0.0,0.0,0.0,0.0,0.0,-5.1691,-5.1558,-5.076,0.0,0.0,0.0,0.0,0.0,-4.5349,-4.8588,-5.454,-6.5368,-6.6331,-6.5637,-6.9116,-6.7447,-6.6786,-7.2391,-6.8711,-6.7497,-7.7508,-8.1351,-8.5564,-9.3458,-9.8217,-10.2339,-10.6347,-11.0447,-11.3542,-11.5501,0.0,-11.761,-11.7509,-11.7961,-11.8463,-11.9016,-12.0046,-12.1083,-12.2685,-12.5744,-12.8548,-13.1385,-13.2367,-13.3446,-13.4417,-13.4117,-13.3998,-13.3998,-13.3339,-13.2621,-13.2023,-13.0586,-12.9449,-12.8432,0.0,-12.575,-12.6708,-12.7866,-12.9166,-13.0698,-13.3335,-13.4457,-13.4523,-13.587,-13.6298,-13.6477,0.0,0.0,0.0,0.0,0.0,0.0,0.0,0.0,0.0,0.0,0.0,0.0,0.0,0.0,0.0,0.0,0.0,0.0,-4.1407,-4.2286,-4.2981,-4.3361,-4.6407,-4.8118,-4.8068,-5.048,-5.1764,-5.1745,-5.2395,-5.2482,-5.1843,-5.0697,-5.0691,-5.1566,-5.1173,-5.1466,-5.2279,-5.2279,-5.1197,-4.9504,0.0,0.0,0.0,0.0,0.0,0.0,0.0,0.0,0.0,0.0,0.0,0.0,0.0,0.0,0.0,-4.7587,-4.7656,-4.7539,-4.4549,-4.7339,-5.4221,-6.7567,-7.2056,-7.4526,-8.0062,-7.9633,-7.9478,-8.4487,-7.8978,-7.5844,-8.3776,-8.5991,-9.0672,-10.3255,-10.8215,-11.078,-11.2688,-11.3442,-11.4446,-11.6304,-11.6806,-11.7308,-11.8313,-11.8664,-11.8865,-11.8865,-11.8212,-11.8473,-12.0412,-12.1366,-12.4021,-12.8524,-12.9885,-13.1513,-13.3698,-13.3579,-13.3519,-13.3519,-13.298,-13.2382,-13.1723,-13.0227,-12.8911,-12.7774,-12.5739,-12.5881,-12.808,-12.9408,-13.1739,-13.4338,-13.7145,-13.809,-13.809,-13.809,-13.809,-13.809,0.0,0.0,0.0,0.0,0.0,0.0,0.0,0.0,0.0,0.0,0.0,0.0,0.0,0.0,0.0,0.0,0.0,0.0,-4.2151,-4.3572,-4.438,-4.4216,-4.7273,-4.8811,-4.8695,-5.1699,-5.2686,-5.1467,-5.3291,-5.3496,-5.2197,-5.2398,-5.2496,-5.2269,-5.2574,-5.2942,-5.3382,-5.3382,-5.2697,-5.1704,-5.1704,0.0,0.0,0.0,0.0,0.0,0.0,0.0,0.0,0.0,0.0,0.0,0.0,0.0,-4.8748,-4.7605,-5.2327,-5.6025,-4.7431,-5.7752,-6.9423,-6.3498,-6.0805,-6.5473,-8.8256,-8.6514,-8.3992,-9.7433,-9.8272,-9.9092,-10.7109,-10.6323,-10.2617,-9.7522,-10.6033,-11.3944,-11.6605,-11.7459,-11.8012,-11.8715,-11.8413,-11.8313,-11.8966,-11.8514,-11.8313,-11.8313,-11.7308,-11.6153,-11.5646,-12.0857,-12.3473,-12.274,-12.9394,-13.2916,-13.31,-13.2501,-13.2142,-13.2142,-13.2142,-13.1723,-13.1065,-12.915,-12.7833,-12.7055,-12.508,-12.5214,-12.7335,-12.9217,-13.1739,-13.4338,-13.7145,-13.809,-13.809,-13.809,-13.809,-13.809,0.0,0.0,0.0,0.0,0.0,0.0,0.0,0.0,0.0,0.0,0.0,-4.023,-4.1038,0.0,0.0,0.0,0.0,-4.1542,-4.2219,-4.3301,-4.4188,-4.4937,-4.7139,-4.8677,-4.9354,-5.2101,-5.3837,-5.4333,-5.4168,-5.3517,-5.2551,-5.2788,-5.2797,-5.2693,-5.2885,-5.3152,-5.3518,-5.3518,-5.2836,-5.1921,-5.1921,-5.1557,0.0,0.0,0.0,0.0,0.0,0.0,0.0,0.0,-4.9661,-4.939,-4.939,-4.9187,-4.8673,-4.7087,-4.8679,-4.9978,-4.5334,-5.4581,-6.637,-6.9542,-7.032,-7.4809,-9.1925,-9.8448,-10.1155,-10.2547,-10.3571,-10.4095,-10.3321,-10.4621,-10.5703,-10.5278,-11.0579,-11.5601,-11.8062,-11.8614,-11.8815,-11.9016,-11.8865,-11.8815,-11.9016,-11.8514,-11.8062,-11.771,-11.8305,-11.834,-11.7201,-12.0631,-12.3383,-12.4957,-12.7572,-12.9999,-13.2382,-13.2501,-13.2382,-13.2023,-13.1664,-13.1245,-13.0945,-12.8611,-12.7055,-12.6397,-12.4422,-12.4829,-12.6714,-12.9027,-13.1739,-13.4338,-13.7145,-13.782,-13.7586,-13.9218,-13.9855,-14.0048,0.0,0.0,0.0,0.0,0.0,0.0,0.0,0.0,-3.9245,0.0,0.0,0.0,0.0,-4.1432,0.0,0.0,-4.1808,-4.1954,-4.2286,-4.3436,-4.439,-4.5069,-4.7139,-4.8744,-4.975,-5.2236,-5.4045,-5.5216,-5.3682,-5.2719,-5.2533,-5.2722,-5.2954,-5.3231,-5.34,-5.3506,-5.3518,-5.3518,-5.2976,-5.2018,-5.2018,-5.1531,0.0,0.0,0.0,0.0,0.0,0.0,0.0,0.0,-4.8849,-4.8714,-4.8917,-4.8984,-4.8736,-4.7365,-5.0429,-5.3364,-4.9011,-5.7663,-6.9123,-7.4031,-7.846,-8.4564,-9.6055,-10.4493,-11.0178,-11.1076,-11.0231,-10.7407,-10.1035,-10.2826,-10.5658,-10.6913,-11.1985,-11.6505,-11.8715,-11.9016,-11.8966,-11.8815,-11.8765,-11.8614,-11.8313,-11.771,-11.7715,-11.8057,-11.8818,-11.9303,-11.9041,-12.1607,-12.3987,-12.5603,-12.7031,-12.9175,-13.2023,-13.2262,-13.2382,-13.2322,-13.1424,-13.0945,-13.0646,-12.8372,-12.6816,-12.5739,-12.4183,-12.4964,-12.7594,-12.905,-13.1671,-13.4842,-13.6649,-13.759,-13.779,-13.9985,-14.0942,-14.1287,0.0,0.0,0.0,0.0,0.0,0.0,0.0,0.0,-3.9575,-4.075,-4.1274,0.0,0.0,0.0,0.0,0.0,-4.2672,-4.2943,-4.2339,-4.4451,-4.532,-4.441,-4.734,-4.9281,-4.9819,-5.2236,-5.3308,-5.2902,-5.1448,-5.1196,-5.1964,-5.2308,-5.3032,-5.403,-5.4451,-5.4194,-5.3518,-5.3518,-5.3044,-5.23,-5.23,-5.1826,-5.1217,0.0,0.0,0.0,0.0,0.0,0.0,0.0,-4.8511,-4.8037,-4.8781,-4.8984,-4.8933,-4.8829,-5.9708,-6.9631,-6.0228,-7.0001,-8.1392,-7.5407,-8.1871,-9.2165,-10.1441,-10.3117,-10.7485,-12.4602,-12.0681,-11.1891,-10.4423,-10.3766,-10.3415,-9.9833,-10.847,-11.6455,-11.8715,-11.9016,-11.8815,-11.8313,-11.8212,-11.7811,-11.6656,-11.6003,-11.6936,-11.903,-11.8492,-11.84,-12.0276,-12.3597,-12.5106,-12.3897,-12.7834,-13.0706,-13.2023,-13.1364,-13.1723,-13.298,-13.1664,-13.0646,-12.9988,-12.8731,-12.6996,-12.514,-12.4422,-12.6358,-13.004,-12.94,-13.1641,-13.5925,-13.5925,-13.7001,-13.8872,-13.9565,-14.0532,-14.1607,0.0,0.0,0.0,0.0,0.0,0.0,0.0,0.0,-4.0751,-4.114,-4.1882,0.0,0.0,0.0,0.0,0.0,0.0,-4.3746,-4.3558,-4.5236,-4.6602,-4.7421,-4.8346,-4.9672,-5.1408,-5.2218,-5.2974,-5.3625,-5.3213,-5.2902,-5.2644,-5.3812,-5.3662,-5.258,-5.3981,-5.3513,-5.1552,-5.1087,-5.1162,-5.149,-5.0827,-5.0827,-5.115,0.0,0.0,0.0,0.0,0.0,0.0,0.0,0.0,0.0,-4.8037,-4.824,-4.954,-5.6136,-6.1349,-6.4056,-5.9886,-7.3321,0.0,-7.7505,-8.5701,-9.8808,-10.9879,-11.2692,-11.5744,-12.5978,-12.4331,-12.0159,-11.7082,-11.6237,-11.5774,-11.5126,-11.9499,-12.3581,-12.5517,-12.6162,-12.6055,-12.5033,-12.4584,-12.4155,-12.3028,-12.2331,-12.187,-12.1077,-12.2507,-12.3052,-12.266,-12.62,-12.7898,-12.7543,-12.963,-13.1125,-13.2023,-13.1783,-13.2382,-13.3639,-13.1424,-13.0227,-12.9928,-12.8192,-12.6577,-12.5021,-12.3943,-12.3983,-12.4699,-12.7799,-13.1052,-13.4437,-13.491,-13.5634,-13.6671,-13.9375,-14.1329,-14.2977,0.0,0.0,0.0,0.0,0.0,0.0,-4.0441,-4.0959,-4.1628,-4.2412,-4.2928,-4.331,0.0,0.0,0.0,0.0,-4.3489,-4.4049,-4.4112,-4.5198,-4.6661,-4.8338,-4.8692,-4.9847,-5.213,-5.2257,-5.2632,-5.3379,-5.2605,-5.2375,-5.2507,-5.3766,-5.3568,-5.2455,-5.425,-5.3231,-5.0236,-5.027,-5.0222,-5.0159,-4.9624,-4.956,-4.9864,0.0,0.0,0.0,0.0,0.0,0.0,0.0,0.0,0.0,-4.7225,-5.0338,-5.4659,-5.9911,-6.6481,-7.1767,-7.0349,-8.2125,0.0,-9.0459,-9.6833,-10.6408,-11.5684,-11.9993,-12.3405,-12.8611,-12.6755,-12.4449,-12.468,-12.2549,-12.1231,-12.2795,-12.5065,-12.6727,-12.7828,-12.8379,-12.7993,-12.656,-12.6395,-12.5843,-12.4355,-12.3418,-12.2961,-12.289,-12.3766,-12.4738,-12.4974,-12.7487,-12.8731,-12.8731,-12.9748,-13.0706,-13.1664,-13.1664,-13.2023,-13.2801,-13.0945,-12.9748,-12.921,-12.7774,-12.6218,-12.4829,-12.5305,-12.522,-12.4904,-12.9027,-13.1626,-13.2813,-13.3016,-13.386,-13.5435,-13.8069,-14.0639,-14.2932,0.0,0.0,-3.8737,-3.9082,0.0,0.0,-4.1161,-4.1512,-4.224,-4.4068,-4.4097,-4.4129,0.0,0.0,0.0,-4.2885,-4.3529,-4.4083,-4.4218,-4.5026,-4.6163,-4.782,-4.8626,-5.0069,-5.2165,-5.2236,-5.2212,-5.2052,-5.0623,-5.0611,-5.1999,-5.2726,-5.2983,-5.2983,-5.4653,-5.3219,-4.9512,-5.0255,-4.9885,-4.8761,-4.8628,-4.8361,-4.7902,-4.7834,0.0,0.0,0.0,0.0,0.0,0.0,0.0,0.0,-4.6481,-5.318,-6.0841,-6.0565,-7.2636,-8.6011,-8.5365,-9.329,0.0,-10.8024,-11.1519,0.0,-12.0506,-12.5871,-13.0037,-13.1125,-12.8057,-12.6044,-12.794,-12.4477,-12.2461,-12.5431,-12.6936,-12.7609,-12.8109,-12.8165,-12.7553,-12.583,-12.5607,-12.4884,-12.3049,-12.1826,-12.2175,-12.4588,-12.374,-12.4331,-12.6996,-12.7594,-12.8013,-12.8013,-12.8791,-12.9748,-13.0945,-13.0945,-13.0945,-13.1065,-13.0108,-12.909,-12.8013,-12.7527,-12.6378,-12.507,-12.7818,-12.8632,-12.8383,-13.1826,-13.2442,-13.1121,-13.0377,-13.189,-13.4534,-13.6158,-13.8435,-14.1247,0.0,0.0,-3.8132,-3.9473,0.0,0.0,-4.1803,-4.2927,-4.3803,-4.4239,-4.4632,-4.4827,-4.4988,-4.4363,0.0,-4.3786,-4.4744,-4.5442,-4.5512,-4.6858,-4.8097,-4.9159,-5.0545,-5.1565,-5.2089,-5.2089,-5.156,-5.046,-5.1339,-5.1877,-5.2236,-5.3044,-5.2964,-5.2119,-5.2773,-5.1764,-4.9529,-4.8691,-4.8563,-4.8875,-4.81,-4.7894,-4.7834,-4.7293,-4.6549,0.0,0.0,0.0,0.0,0.0,0.0,0.0,-4.5669,-4.7407,-5.0618,-5.8525,-6.8301,-7.6832,-7.8557,-9.1176,0.0,-10.2112,-11.3006,-12.5486,-13.0774,-13.296,-13.2678,-12.8222,-12.9809,-13.1704,-13.1229,-13.1982,-13.2487,-13.231,-13.3118,-13.3647,-13.2706,-13.3118,-13.2824,-13.1411,-13.1176,-13.0411,-12.8469,-12.7998,-12.7416,-12.6596,-12.6417,-12.6176,-12.6337,-12.6996,-12.7295,-12.7295,-12.8911,-12.9928,-13.0227,-13.0227,-13.0526,0.0,-12.8192,-12.7055,-12.7295,-12.9455,-13.0377,-13.0454,-12.9378,-12.9349,-13.0256,-12.9719,-12.9706,-12.9633,-12.8889,-12.9522,-13.1086,-13.3552,-13.5638,-13.789,0.0,0.0,0.0,0.0,0.0,0.0,0.0,0.0,-4.447,-4.4855,-4.5131,-4.5301,-4.5099,-4.465,0.0,0.0,-4.4469,-4.5076,-4.5883,-4.6691,-4.7865,-4.9481,-5.0729,-5.1486,-5.1435,-5.1435,-5.0987,-4.9975,-5.107,-5.1668,-5.1788,-5.2915,-5.2618,-5.136,-5.236,-5.1026,-4.7939,-4.7701,-4.7438,-4.722,-4.6777,-4.6695,-4.6819,-4.6413,-4.5805,-4.5128,-4.5128,0.0,0.0,0.0,0.0,0.0,0.0,0.0,-5.3352,-5.8111,-6.6123,-7.4744,-8.097,-9.1003,-10.1628,-10.9497,0.0,-12.9279,-13.3009,-13.4392,-13.4074,-13.1153,-13.2461,-13.4172,-13.4355,-13.4491,-13.4297,-13.3579,-13.4117,-13.4177,-13.322,-13.3339,-13.322,-13.2202,-13.1783,-13.1065,-12.9689,-12.897,-12.8192,-12.7175,-12.6816,-12.6457,-12.6098,-12.6397,-12.6756,-12.7055,-12.7774,-12.8252,-12.8611,-12.8252,-12.8133,-12.8192,-12.6397,-12.7093,-12.9508,-12.9199,-13.0102,-13.1576,-13.0704,-13.0286,-13.0198,-12.9787,-12.881,-12.8077,-12.7332,-12.764,-12.8907,-13.1442,-13.3592,-13.5792,0.0,0.0,0.0,0.0,0.0,0.0,0.0,0.0,0.0,-4.547,-4.5624,-4.5475,-4.526,-4.4849,-4.4493,0.0,0.0,0.0,-4.581,-4.6177,-4.7278,-4.9481,-5.0215,-5.0655,-5.0802,-5.0574,-5.0198,-4.9725,-5.0319,-5.1022,-5.179,-5.2705,-5.2405,-5.1274,-5.244,-5.0676,-4.6754,-4.7374,-4.691,-4.5851,-4.5719,-4.5684,-4.5737,-4.5737,-4.5263,-4.4587,-4.4722,-4.4722,-4.4587,-4.4722,0.0,0.0,0.0,0.0,-5.7181,-5.5869,-6.2545,-7.2401,-8.1407,-8.9651,-10.037,-11.976,-12.6824,-12.9976,-13.2883,-13.439,-13.5095,-13.6266,-13.5131,-13.4396,-13.6295,-13.4355,-13.2382,-13.2322,-13.2322,-13.2083,-13.1424,-13.1305,-13.1125,-13.0586,-12.9988,-12.9389,-12.8791,-12.7774,-12.7055,-12.6936,-12.6397,-12.6098,-12.6098,-12.6098,-12.6397,-12.6876,-12.6397,-12.6397,-12.6936,-12.6277,-12.5619,-12.514,-12.4781,-12.7062,-13.1512,-12.8366,-12.9063,-13.2256,-13.2135,-13.1447,-13.0518,-13.0317,-12.9352,-12.7621,-12.6734,-12.6823,-12.7876,-13.0432,-13.2274,-13.4169,0.0,0.0,0.0,0.0,0.0,0.0,0.0,0.0,0.0,0.0,-4.5624,-4.5547,-4.5512,-4.4966,-4.4599,-4.4546,-4.5185,-4.5663,-4.5883,0.0,0.0,-4.9554,-4.9627,-4.9994,-5.0802,-4.9586,-4.9019,-4.8926,-4.9075,-5.0921,-5.4292,-5.2962,-5.2607,-5.3099,-5.1983,-5.0754,-4.948,-4.8332,-4.772,-4.7518,-4.6844,-4.6229,-4.5737,-4.5737,-4.5263,-4.4654,-4.5331,-4.5128,-4.4654,-4.5331,-4.5128,0.0,0.0,0.0,-4.6322,-4.5961,-5.1978,-5.9614,-6.3725,-8.1871,-10.388,-12.1544,-12.7983,-13.1602,-13.7805,-13.849,-13.8288,-14.0123,-13.6829,-13.3282,-13.3816,-13.1922,-13.0227,-12.9689,-12.9569,-12.9389,-12.8731,-12.8611,-12.8611,-12.8492,-12.8432,-12.8133,-12.7414,-12.7175,-12.6876,-12.6277,-12.6158,-12.6098,-12.6098,-12.6098,-12.6098,-12.6218,-12.6098,-12.6098,-12.6218,-12.5619,-12.52,-12.514,-12.3405,-12.473,-12.8568,-12.7472,-13.0691,-13.7078,-13.4427,-13.3448,-13.3441,-13.1407,-13.0657,-13.046,-12.8983,-12.8484,-12.8875,-13.0752,-13.1557,-13.2413,0.0,0.0,0.0,0.0,0.0,0.0,0.0,0.0,0.0,0.0,0.0,-4.5624,-4.5624,-4.5011,-4.4599,-4.4599,-4.4994,-4.559,-4.6544,-4.7645,-4.8453,-4.882,-4.882,-4.904,-4.9407,-4.8483,-4.8021,-4.8147,-4.8196,-5.0452,-5.4712,-5.4239,-5.479,-5.6034,-5.354,-5.1356,-4.939,-4.7902,-4.6819,-4.6007,-4.5669,-4.8849,-5.3179,-4.7293,-4.8511,-5.2636,-4.7421,-4.5397,-4.532,-4.5973,-4.601,-4.5805,-4.5805,0.0,0.0,0.0,-4.7959,-5.4274,-6.9558,-8.7145,-10.5257,-12.2503,-12.8415,-13.1239,-13.6716,-13.7684,-13.7887,-13.9308,-13.6728,-13.425,-13.4372,-13.2329,-13.0097,-12.7707,-12.7414,-12.7295,-12.6996,-12.7295,-12.7654,-12.8133,-12.7774,-12.7414,-12.7055,-12.6756,-12.6397,-12.6098,-12.6098,-12.6098,-12.6098,-12.6098,-12.5918,-12.5619,-12.52,-12.4781,-12.4482,-12.3405,-12.2746,-12.2327,-12.1549,-12.3319,-12.7352,-12.6135,-12.9428,-13.606,-13.3489,-13.2603,-13.2692,-13.0823,-12.9973,-12.9857,-12.9149,-12.8451,-12.8287,-13.026,-13.1147,-13.2022,0.0,0.0,0.0,0.0,0.0,0.0,0.0,0.0,0.0,0.0,0.0,-4.5624,-4.5624,0.0,0.0,0.0,-4.5143,-4.5957,-4.7352,-4.8012,-4.8306,-4.8306,-4.797,-4.7746,-4.7746,-4.6873,-4.6397,-4.6491,-4.6765,-4.9657,-5.4946,-5.5331,-5.7176,-6.0016,-5.6245,-5.2798,-4.9729,-4.8037,-4.6819,-4.6133,-4.8036,-5.3236,-5.9411,-5.5051,-5.7672,-6.2605,-5.3558,-5.0068,-4.9379,0.0,-4.6837,-4.6819,-4.6514,-4.6574,0.0,0.0,0.0,-5.1057,-7.2349,-8.5081,-9.6994,-11.6266,-12.2542,-12.6,-13.2915,-13.5046,-13.579,-13.6805,-13.5874,-13.4613,-13.452,-13.214,-12.9001,-12.5837,-12.538,-12.538,-12.538,-12.6098,-12.6816,-12.7295,-12.6996,-12.6816,-12.6816,-12.6397,-12.6098,-12.6098,-12.6098,-12.6098,-12.6098,-12.5918,-12.5619,-12.514,-12.4302,-12.3584,-12.2926,-12.1609,-12.0532,-11.9754,-11.9515,-12.1365,-12.4911,-12.4027,-12.6894,-13.2036,-13.0925,-13.1077,-13.1841,-13.0663,-13.0245,-13.0432,-13.064,-13.0188,-12.9877,-13.15,-13.2489,-13.3539,0.0,0.0,0.0,0.0,0.0,0.0,0.0,0.0,0.0,0.0,0.0,-4.5624,-4.5624,-4.565,-4.5779,-4.5779,-4.652,-4.7352,-4.8159,-4.8306,-4.8306,-4.8306,-4.707,0.0,-4.6349,-4.4541,-4.3527,-4.3478,-4.4331,-4.862,-5.5966,-5.5757,-5.9176,-6.5357,-5.9944,-5.5547,-5.1961,-4.9796,-4.9255,-5.0396,-5.7492,-5.9873,-6.0455,-7.2653,-7.5906,-7.2938,-6.6072,0.0,0.0,-5.0641,-4.7317,-4.6634,-4.5777,-4.6085,-4.6589,0.0,0.0,0.0,-5.9949,-6.5356,-7.3601,-9.761,-10.6688,-11.3422,-12.7455,-13.1189,-13.2136,-13.3625,-13.3726,-13.3447,-13.2292,-12.9441,-12.6296,-12.3735,-12.3345,-12.3345,-12.3345,-12.4422,-12.52,-12.526,-12.5799,-12.6158,-12.6158,-12.6098,-12.6098,-12.6098,-12.6098,-12.6098,-12.6098,-12.5499,-12.514,-12.514,-12.3883,-12.2866,-12.2268,-12.0951,-11.9634,-11.8318,-11.7719,-11.8002,-11.9524,-12.0404,-12.2477,-12.5141,-12.7397,-12.9725,-13.2135,-13.1358,-13.2722,-13.512,-13.5284,-13.5398,-13.5513,-13.6604,-13.7098,-13.7174,0.0,0.0,0.0,0.0,0.0,0.0,0.0,0.0,0.0,0.0,0.0,0.0,0.0,-4.6031,-4.6005,-4.6561,-4.6925,-4.7425,-4.8233,-4.8306,-4.8306,-4.8306,-4.7858,-4.7361,-4.703,-4.5879,-4.4865,-4.3984,-4.4429,-4.6986,-5.1514,-5.2904,-5.4801,-5.7021,-5.7114,-5.5893,-5.3518,-4.9323,-4.7496,-4.803,-5.6371,-6.3811,-6.9524,-6.761,-7.4562,-8.336,0.0,0.0,0.0,-5.9389,-5.4524,-4.9531,-4.9214,-4.9342,-4.9468,-4.8559,-4.8164,-5.0488,-6.191,-6.5717,-7.0662,-8.8163,-9.9314,-10.7755,-11.3928,-12.2529,-12.943,-13.0039,-13.1595,-13.2341,-13.0162,-12.8512,-12.6921,-12.4821,-12.3198,-12.2567,-12.2567,-12.4003,-12.514,-12.514,-12.5739,-12.5918,-12.5499,-12.5499,-12.526,-12.4841,-12.4482,-12.3209,-12.1237,-12.0593,-11.9019,-11.6673,-11.6037,-11.6061,-11.6564,-11.7803,-11.7839,-11.7001,-11.6283,-11.679,-11.8321,-11.9329,-12.1068,-12.3357,-12.6249,-12.9191,-13.1556,-13.1449,-13.302,-13.5605,-13.5195,-13.5556,-13.6097,-13.6507,-13.6965,-13.7502,0.0,0.0,0.0,0.0,0.0,-4.4299,-4.3912,-4.4184,-4.4595,-4.513,0.0,0.0,0.0,0.0,-4.6798,-4.7386,-4.7494,-4.7719,-4.8306,-4.8306,-4.8306,-4.8306,-4.7858,-4.7474,-4.703,-4.595,-4.4865,-4.4054,-4.4156,-4.5872,-4.9052,-5.0744,-5.2102,-5.3219,-5.439,-5.4253,-5.3023,-4.9622,-4.7742,-4.8073,-5.9831,-6.7165,-7.1423,-7.2758,-7.8974,0.0,0.0,0.0,0.0,0.0,-6.4571,-5.8444,-5.5302,-5.2009,-4.9354,-4.9491,-4.9083,-5.0289,-5.8586,-6.1028,-6.441,-7.7942,-8.7211,-9.5398,-10.4193,-11.3801,-12.2123,-12.5844,-12.8032,-12.9142,-12.807,-12.6512,-12.4999,-12.4168,-12.2279,-12.125,-12.149,-12.3405,-12.4721,-12.4542,-12.52,-12.538,-12.4542,-12.4302,-12.3824,-12.3225,-12.2507,0.0,-11.7507,-11.6872,-11.4668,-11.0744,-11.0228,-11.0455,-11.1133,-11.3528,-11.4522,-11.3871,-11.4127,-11.4864,-11.5834,-11.7815,-11.9483,-12.0518,-12.57,-12.885,-13.0555,-13.1143,-13.3036,-13.5383,-13.5467,-13.6276,-13.7413,-13.787,-13.8536,-13.9189,0.0,0.0,-4.5475,-4.512,-4.5154,-4.5065,-4.4676,-4.4948,-4.5459,-4.6221,0.0,0.0,0.0,0.0,0.0,-4.8382,-4.8379,-4.8379,-4.8379,-4.8306,-4.8306,-4.8306,-4.707,-4.6349,-4.6308,-4.4424,-4.3409,-4.3291,-4.3405,-4.5331,-4.8849,-4.9593,-5.1894,-5.5274,-5.2369,-5.0819,-5.039,-5.0648,-5.0344,-5.128,-6.8451,-7.0396,-6.5629,-8.9671,0.0,0.0,-8.4529,-8.2558,0.0,-7.8426,-7.6436,-7.2456,-6.3228,-5.3637,-4.6184,-4.8074,-4.8098,-4.7836,0.0,0.0,0.0,-6.6373,-6.9891,-7.6048,-9.8781,-10.5411,-10.9877,-12.1023,-12.3264,-12.3873,-12.6047,-12.2943,-12.049,-12.1711,-12.0336,-11.9455,-12.0113,-12.2507,-12.3597,-12.3225,-12.4015,-12.4482,-12.3225,-12.2447,-12.1789,-12.1071,-12.0472,-11.8665,-11.5487,-11.4566,-11.1984,-10.7958,-10.7404,-10.674,-10.6186,-10.8573,-10.9324,-10.8965,-11.0999,-11.1914,-11.1459,-11.568,-11.7113,-11.7004,-12.513,-12.8865,-12.8925,-13.0762,-13.2671,-13.4747,-13.6715,-13.8308,-13.9696,-14.1312,-14.2106,-14.2437,0.0,-4.5184,-4.5475,-4.512,-4.5611,-4.5826,-4.5507,-4.6063,-4.6594,0.0,0.0,0.0,-4.8785,-4.979,-5.0373,-5.0108,-4.9554,-4.926,-4.926,-4.8673,-4.8306,-4.8306,-4.797,-4.7547,-4.7102,-4.6585,-4.5528,-4.4123,-4.463,-4.4947,-4.4993,-4.6278,-4.7024,-4.7297,-4.8233,-4.7818,-4.641,-4.677,-4.777,-5.0615,-6.7703,-7.5219,-7.7295,0.0,0.0,0.0,0.0,-8.7863,-8.2881,0.0,-7.7188,-5.9448,0.0,0.0,-4.8263,-4.8345,-4.873,-4.9022,-4.8829,0.0,0.0,0.0,0.0,0.0,-8.4708,-9.5195,-10.5146,-11.5617,-11.9393,-12.1017,-12.2283,-12.1033,-12.0366,-12.1031,-12.0457,-11.9993,-12.0233,-12.0105,-11.9893,-11.966,-12.001,-11.9544,-11.7566,-11.8961,-11.9335,0.0,-11.4874,-11.1916,-10.8907,-10.3898,-10.0387,-9.9393,-10.0892,-10.1653,-10.1492,-10.4077,-10.6205,-10.8273,-10.8336,-10.946,-11.1459,-11.4991,-11.6665,-11.6699,-12.4578,-12.7732,-12.7353,-13.1173,-13.3949,-13.5811,-13.7202,-13.8902,-14.0837,-14.1875,-14.2317,-14.2401,-4.4497,-4.4919,-4.5337,-4.5781,-4.597,-4.6315,-4.6923,-4.7322,-4.7843,0.0,0.0,0.0,-5.0102,-5.0745,-5.1043,-5.0842,-5.0362,-4.9921,-4.9627,-4.9114,-4.8673,-4.8306,-4.8306,-4.8151,-4.7797,-4.7187,-4.6338,-4.5215,-4.5126,-4.4611,-4.391,-4.479,-4.4697,-4.3783,-4.5208,-4.521,-4.4095,-4.4685,-4.6323,-5.0347,-6.8427,0.0,0.0,-9.0188,-9.7089,0.0,0.0,0.0,-9.0729,-9.8713,-8.5034,0.0,0.0,0.0,-4.9202,-4.8301,-4.8583,-4.9056,-4.9082,-4.9824,-5.1028,-5.264,0.0,0.0,-7.801,-8.6535,-9.5396,-10.9614,-11.3518,-11.4924,-11.6529,-11.6097,-11.6168,-11.7431,-11.8427,-11.8897,-11.8572,-11.8147,-11.7147,-11.5391,-11.4813,-11.3906,-11.2036,-11.2669,-11.2807,-11.1413,-10.9124,-10.6214,-10.3237,-9.815,-9.5062,-9.4861,-9.6358,-9.7011,-9.6753,-9.9334,-10.1632,-10.3421,-10.5545,-10.7175,-10.8872,-11.2987,-11.5142,-11.5865,-12.2888,-12.5948,-12.6344,-13.1363,-13.4134,-13.5311,-13.7205,-13.8901,-14.0497,-14.2127,-14.2496,-14.231,0.0,-4.4572,-4.5028,-4.6377,-4.6335,-4.6641,-4.8441,-4.8662,-4.9085,0.0,-5.0861,-5.111,-5.1635,-5.1377,-5.1103,-5.1103,-5.0989,-5.0695,-4.9965,-4.9892,-4.945,-4.879,-4.8641,-4.8603,-4.8603,-4.7401,-4.6744,-4.6755,-4.5474,-4.4768,-4.4822,-4.4778,-4.4255,-4.3421,-4.3487,-4.3513,-4.3588,-4.423,-4.6773,-5.1872,-6.9384,-7.4131,0.0,0.0,-9.533,-9.0053,-9.9322,-10.0675,-9.8984,-10.4396,-9.4657,0.0,0.0,0.0,-5.1327,-4.8364,-4.8451,-4.9457,-4.944,-4.973,-5.0735,-5.4246,-5.291,0.0,-7.5073,-7.8655,-8.3161,-10.1149,-10.4342,-10.4553,-10.7149,-10.6857,-10.7109,-10.9319,-11.2577,-11.5075,-11.589,-11.6176,-11.4889,-11.0319,-10.9362,-10.8259,-10.644,-10.5569,-10.4802,-10.3972,-10.2913,-10.1279,-9.8148,-9.5211,-9.3656,-9.3154,-9.3154,-9.2903,-9.2401,-9.5044,-9.639,-9.6799,-10.2576,-10.5196,-10.5041,-11.0318,-11.3298,-11.4645,-12.0394,-12.3962,-12.5937,-13.1583,-13.38,-13.4103,-13.7121,-13.8684,-13.9597,-14.201,-14.274,-14.2414,-4.3975,-4.4411,-4.465,-4.5003,-4.6566,-4.7843,-4.8277,-4.9956,-5.1206,-5.1177,-5.1815,-5.2785,-5.4168,-5.3609,-5.32,-5.32,-5.2294,-5.1811,-5.2011,-5.1378,-5.1108,-5.1281,-5.0994,-5.0784,-5.0784,-5.0225,-4.9658,-4.9163,-4.7773,-4.6786,-4.627,-4.5738,-4.4993,-4.4212,-4.4801,-4.5398,-4.5994,-4.6717,-5.2283,-6.1054,-6.5901,0.0,-8.3693,-9.4383,-10.2502,-10.8388,-10.9809,-10.5411,-9.7698,0.0,-8.8875,-8.736,0.0,0.0,-6.4894,-5.0692,-5.1359,-5.5379,-4.9703,0.0,0.0,0.0,0.0,0.0,-6.5459,-6.9357,-7.3395,-8.1738,-8.4539,-8.5506,-8.515,-8.6181,-8.7156,-8.7263,-9.4088,-10.2655,-11.1974,-11.1923,-10.8994,-10.4679,-10.3553,-10.23,-10.0488,-10.2379,-10.2975,-10.0927,-9.8494,-9.5549,-9.2681,-9.1785,-9.1547,-9.1446,-9.1446,-9.1346,-9.1246,-9.1669,-9.3209,-9.5813,-9.9167,-10.2147,-10.4348,-10.9225,-11.242,-11.4645,-11.9852,-12.3916,-12.7105,-13.287,-13.4661,-13.4404,-13.7408,-13.942,-14.0682,-14.1914,-14.2726,-14.3287,-4.3869,-4.4035,-4.4408,-4.5601,-4.6817,-4.8124,-4.9514,-5.0994,-5.2196,-5.2747,-5.3794,-5.4578,-5.4988,-5.4836,-5.4603,-5.4153,-5.3568,-5.3308,-5.3512,-5.2761,-5.2409,-5.2659,-5.2065,-5.1611,-5.1372,-5.1195,-5.0695,-4.9775,-4.877,-4.792,-4.7245,-4.6613,-4.7742,-5.035,-4.6977,-4.8364,-5.3039,-4.9227,-5.21,-5.9944,-6.987,0.0,-9.2353,-10.2096,-10.9268,-11.4072,-11.3327,-10.9877,-10.4802,-9.8037,-9.2371,0.0,-7.6667,-7.1371,-6.6386,0.0,-5.5496,-5.8461,0.0,0.0,0.0,-5.1168,0.0,0.0,0.0,-6.5493,-6.8149,-7.4574,-7.6113,-7.636,-7.6395,-7.6618,-7.7411,-7.905,-8.5762,-9.1514,-9.2896,-9.9772,-10.2353,-9.6656,-9.4849,-9.2861,-9.0268,-9.127,-9.2039,-9.2463,-9.2308,-9.1617,-9.009,-9.009,-9.009,-9.009,-9.009,-9.009,-9.009,-9.009,-9.0973,-9.2486,-9.5639,-9.84,-10.1115,-10.5164,-10.9392,-11.3895,-11.8254,-12.2977,-12.7922,-13.334,-13.5948,-13.6797,-13.9401,-14.0615,-14.1128,-14.2607,-14.3091,-14.3175,-4.3754,-4.3771,-4.4288,-4.6248,-4.7114,-4.8346,-5.0601,-5.1743,-5.2899,-5.4791,-5.7933,-5.9741,-5.9215,-6.0934,-6.2159,-6.2159,-6.0921,-5.9786,-5.9051,-5.7428,-5.655,-5.6671,-5.4352,-5.361,-5.4787,-5.3045,-5.1563,-5.0562,-4.9697,-4.8897,-4.817,-4.7523,-5.0139,-5.5174,-5.0693,-5.2435,-5.8424,-5.3314,-5.4551,-6.1341,0.0,-8.6678,-9.327,-10.4631,-11.0357,-11.2334,-11.3282,-11.3001,-11.1771,-10.8185,0.0,-8.472,-8.1599,-7.543,0.0,0.0,0.0,0.0,0.0,0.0,0.0,0.0,0.0,-5.3759,0.0,0.0,0.0,-6.7964,0.0,0.0,0.0,0.0,0.0,-7.0378,0.0,0.0,0.0,-8.3115,0.0,-8.5275,-8.5088,-8.3549,-7.9484,-7.841,-7.9799,-8.4178,-8.5612,-8.7101,-8.8684,-8.8885,-8.8935,-8.8935,-8.8935,-8.8935,-8.8935,-8.8935,-8.8935,-8.8986,-9.2443,-9.4962,-9.6863,-10.091,-10.5974,-11.1908,-11.6249,-12.1894,-12.818,-13.3422,-13.6977,-13.9401,-14.122,-14.1687,-14.1496,-14.3197,-14.3436,-14.3034,-4.3461,-4.4083,-4.4671,-4.4923,-4.7353,-4.9446,-4.9706,-5.165,-5.4096,-5.6846,-6.6559,-7.3486,-7.4097,-8.0926,-8.6661,-8.9567,-8.4012,-7.8863,-7.5465,-7.0959,-6.8564,-6.8905,-6.1267,-6.0074,-6.6815,-5.8872,-5.4205,-5.331,-5.1595,-5.0367,-4.9745,-4.899,-4.9435,-5.1104,-5.7428,-5.8016,-5.4635,-6.0822,-6.9711,0.0,-8.4015,-8.1061,0.0,-8.7469,-9.6587,-10.3896,-11.1084,-11.281,-11.0283,0.0,-9.6875,-9.1014,0.0,-7.6408,-8.0089,0.0,0.0,0.0,0.0,0.0,0.0,0.0,-5.3632,0.0,0.0,0.0,-5.3938,-5.0516,0.0,0.0,0.0,0.0,0.0,-4.5867,0.0,0.0,-5.5406,-6.256,-6.7718,-6.7504,-7.6023,-7.9255,-7.1958,-7.0414,-7.3346,-8.185,-7.828,-7.9039,-8.6726,-8.7529,-8.778,-8.778,-8.778,-8.778,-8.778,-8.778,-8.778,-8.778,-9.083,-9.2321,-9.2704,-9.8779,-10.3143,-10.6311,-11.3914,-12.07,-12.6985,-13.2941,-13.7485,-14.09,-14.1023,-14.167,-14.2576,-14.2812,-14.3103,-14.3301,-4.3426,-4.4121,-4.4926,-4.5605,-4.8083,-5.0192,-5.0919,-5.4315,-5.7267,-5.8538,-6.4571,-6.9202,-7.0501,-7.3252,0.0,-8.5309,0.0,-7.924,0.0,0.0,-7.0157,-6.479,-6.0403,-5.9473,-6.2452,-5.8128,-5.5541,-5.4897,-5.2957,-5.1916,-5.1601,-5.1083,-5.3379,-5.7954,-6.2252,-6.62,-6.9927,0.0,-7.5749,0.0,0.0,0.0,0.0,-9.6869,-10.7132,-11.0284,-11.2768,-11.3541,-11.2536,0.0,-9.8464,0.0,0.0,0.0,0.0,0.0,0.0,0.0,0.0,0.0,0.0,0.0,0.0,0.0,-5.2167,0.0,-5.1025,0.0,0.0,0.0,0.0,0.0,0.0,0.0,-4.8053,0.0,0.0,0.0,-6.1366,-6.124,0.0,0.0,-6.2339,-6.7888,-7.3132,-7.6687,-7.8185,-8.1312,-8.6444,-8.7477,-8.7942,-8.7942,-8.8303,-8.7696,-8.5671,-8.5671,-8.5671,-8.5671,-8.7612,-8.9414,-9.1104,-9.4647,-9.9377,-10.5245,-11.1703,-11.9334,-12.7531,-13.2934,-13.7907,-14.1921,-14.2264,-14.2717,-14.3162,-14.3434,-14.3488,-14.3241,-4.3925,-4.4623,-4.5611,-4.6908,-4.916,-5.1228,-5.2793,-5.6425,-5.9246,-5.9928,-6.48,-6.91,-7.1274,-7.5634,0.0,0.0,-9.1395,-9.0051,0.0,0.0,-7.6819,-7.1797,-6.3648,0.0,-6.576,-6.0095,-5.6725,-5.5987,-5.4351,-5.3487,-5.3326,-5.2929,-5.5866,-6.1625,-6.4849,-7.0977,-7.9202,0.0,-8.25,-8.3138,-8.9906,-9.0863,-8.9929,-10.6878,-11.4443,-11.6091,-11.5261,-11.4761,-11.4003,-11.0249,-10.0669,0.0,-9.9447,0.0,0.0,0.0,0.0,0.0,-6.2465,0.0,0.0,0.0,0.0,0.0,0.0,0.0,0.0,0.0,0.0,0.0,0.0,0.0,-4.3519,-4.4028,0.0,-4.6757,0.0,-4.8418,0.0,0.0,0.0,0.0,0.0,-6.2463,-6.8533,-7.1009,0.0,-8.129,-8.5827,-8.7708,-8.8813,-8.9134,-8.9721,-8.8618,-8.5305,-8.5305,-8.5138,-8.4315,-8.532,-8.6882,-8.9175,-9.1514,-9.6252,-10.3222,-10.9574,-11.7813,-12.7334,-13.2637,-13.7668,-14.2295,-14.3126,-14.3335,-14.3327,-14.3819,-14.3708,-14.2875,-4.5164,-4.5929,-4.6973,-4.8646,-5.0616,-5.2748,-5.5195,-5.6747,-5.8578,0.0,0.0,0.0,0.0,0.0,0.0,0.0,0.0,-12.2416,-11.4868,0.0,-9.4162,-10.0582,-7.5365,-6.8955,-8.5532,-6.8199,-5.8187,-5.6549,-5.594,-5.5232,-5.4653,-5.4137,-5.4943,-5.7042,-6.4402,-6.9609,-7.334,-8.1937,-9.2997,-10.4722,-10.5723,-11.2105,-11.9844,0.0,-11.0147,-11.6428,-11.7904,0.0,0.0,-10.7192,-10.3199,0.0,0.0,0.0,0.0,0.0,0.0,0.0,0.0,0.0,0.0,-5.7151,0.0,0.0,0.0,0.0,-5.1452,0.0,0.0,0.0,0.0,-4.5389,-4.4932,-4.3721,-4.3601,0.0,0.0,0.0,0.0,0.0,0.0,0.0,0.0,-5.0544,-5.527,0.0,-6.8577,-7.4624,-8.43,-8.7665,-8.9927,-9.1082,-9.1687,-9.0794,-8.8144,-8.8144,-8.6975,-8.4315,-8.4918,-8.542,-8.6246,-9.0102,-9.4165,-9.8685,-10.7557,-11.6528,-12.5612,-13.107,-13.6669,-14.203,-14.2682,-14.272,-14.2624,-14.3585,-14.3573,-14.2435,-4.7012,-4.7748,-4.8287,-4.8818,-5.0871,-5.3417,-5.6275,-5.8946,0.0,0.0,0.0,0.0,0.0,0.0,-11.6469,0.0,0.0,-12.3022,-11.8326,-10.3793,0.0,0.0,0.0,-6.8483,-8.1685,-6.7752,-5.9862,-5.8683,-5.7545,-5.6823,-5.6595,-5.6407,-5.6611,-5.7534,-6.5705,-7.4086,0.0,0.0,0.0,0.0,0.0,-11.1838,-11.5436,0.0,0.0,-11.9323,-11.869,-11.8079,0.0,-11.4014,-10.9441,-10.5487,-10.9987,-10.3978,-9.6146,-10.0215,-9.8163,0.0,0.0,0.0,-9.1148,-7.1503,0.0,0.0,0.0,0.0,0.0,0.0,0.0,0.0,0.0,-4.7339,-4.6079,-4.4875,-4.4407,-4.3624,0.0,0.0,0.0,0.0,0.0,0.0,0.0,0.0,0.0,0.0,-7.3739,0.0,-8.7299,-8.9675,-9.137,-9.2032,-9.3244,-9.2588,-8.9802,-8.9802,-8.9397,-8.8431,-8.9395,-8.9358,-8.8169,-9.0717,-9.3733,-9.7706,-10.5112,-11.4558,-12.4898,-13.0767,-13.6669,-14.2028,-14.2662,-14.2698,-14.248,-14.3429,-14.3197,-14.1413,-4.8586,-4.9378,-4.9983,-5.0593,0.0,-5.5016,-5.7397,0.0,0.0,0.0,-8.7794,0.0,-11.2175,0.0,-12.1381,0.0,-13.0307,-12.7617,-11.9224,-11.0304,0.0,-10.3022,-8.5497,0.0,-9.0431,-7.5366,-6.6593,-6.5199,-6.0527,-5.8259,-5.8233,-5.8046,-5.8123,-5.8649,-6.4212,-7.4583,-8.8335,-9.608,-10.4455,0.0,0.0,-11.6491,0.0,0.0,-11.9438,-11.6561,0.0,-11.9646,-11.9238,-11.9418,-11.6257,-11.3538,-12.0381,-11.4009,-10.521,-11.1216,-10.8132,-10.1912,-9.7944,-10.1861,0.0,-8.3809,-8.3617,0.0,-6.481,0.0,0.0,0.0,0.0,0.0,0.0,-5.5268,-4.9999,-5.3046,-4.9621,-4.5658,0.0,-4.1035,0.0,0.0,0.0,0.0,0.0,0.0,-6.0776,-6.7212,-7.4735,-8.1659,0.0,0.0,-9.2212,-9.3322,-9.4781,-9.4537,-9.1971,-9.1971,-9.1581,-9.0598,-9.1813,-9.168,-9.0729,-9.2499,-9.5237,-9.923,-10.5762,-11.4558,-12.4848,-13.1004,-13.6899,-14.2101,-14.2295,-14.2224,-14.2028,-14.3126,-14.2097,-13.9034,-4.9885,-5.0923,0.0,0.0,-5.575,0.0,0.0,0.0,-7.2818,0.0,-9.1887,-10.1084,-11.4501,-12.535,-13.2103,-13.3104,-14.0119,0.0,-12.0211,-11.9885,0.0,0.0,-10.3794,-10.3135,-11.1029,0.0,0.0,0.0,-6.4694,-5.955,-5.955,-5.9049,-5.934,-6.0103,-6.0392,-7.112,-8.9197,-9.1741,-10.455,-12.3051,-12.5799,-12.6197,-12.5226,-12.5302,-11.8168,-10.9317,-11.8891,-12.0776,-11.9179,-12.2408,-12.3234,-12.3097,-12.4498,-12.4227,-12.2991,-12.2212,-12.1979,-11.9809,-10.9542,-10.7996,-10.624,-9.3675,0.0,0.0,0.0,0.0,-7.622,0.0,0.0,0.0,0.0,0.0,-5.6563,-6.6034,-5.7932,-4.9173,-4.5737,-4.3784,0.0,0.0,0.0,0.0,0.0,0.0,-5.2955,-6.8725,-7.1291,-7.6109,0.0,0.0,-9.2273,-9.4723,-9.6881,-9.7072,-9.5086,-9.5028,-9.3704,-9.1189,-9.2213,-9.2899,-9.336,-9.5335,-9.8291,-10.2677,-10.8703,-11.6559,-12.5561,-13.151,-13.7193,-14.2194,-14.1505,-14.0967,-14.0918,-14.2738,-14.0399,-13.5565,-5.0748,-5.3507,-5.5685,0.0,-5.6669,-5.8102,0.0,0.0,0.0,0.0,-11.38,-12.7746,-14.1609,-14.6192,-14.752,-14.5625,-14.6967,0.0,0.0,0.0,0.0,-13.1422,-11.2117,-10.5412,-11.4473,-9.2328,0.0,-7.6823,-6.5851,-6.0473,-6.0473,-5.9966,-5.9874,-6.0103,-5.982,-7.0331,-8.8343,-9.1558,-10.569,-12.6212,-12.8444,-12.4576,0.0,0.0,-12.0868,-11.2618,-12.0604,-12.2556,-12.1646,-12.2764,-12.288,-12.2757,-12.3389,-12.3311,-12.2933,-12.2699,-12.2796,-12.2315,-11.9519,-11.9952,-11.8511,-10.7264,-10.4477,-10.1815,0.0,0.0,0.0,0.0,0.0,0.0,0.0,0.0,0.0,-5.678,-5.2389,-4.9088,-4.7379,0.0,0.0,-4.3101,0.0,0.0,0.0,-5.093,-5.9229,-6.3923,-7.0057,-7.7838,-8.7672,0.0,0.0,-9.731,-10.1151,-10.2909,-10.2368,-10.1826,-10.0751,-9.8744,-9.801,-9.7131,-9.6168,-9.7135,-9.9987,-10.4334,-11.026,-11.7828,-12.6538,-13.2585,-13.7095,-14.0082,-13.9589,-13.9062,-13.8873,-14.0819,-13.9202,-13.5509,-5.2577,-5.6194,0.0,-5.7982,0.0,0.0,-6.9908,0.0,0.0,-10.4428,-11.7719,0.0,-14.1795,-14.9478,-15.2704,-14.9912,-14.8899,0.0,0.0,0.0,0.0,-13.0994,-12.2387,-11.9299,-12.2774,-10.3924,0.0,-8.403,0.0,-6.4112,-6.0482,-6.0217,-6.0103,-6.0103,-6.0044,-6.8468,-8.3396,-9.4753,-10.7581,-12.0791,-12.6873,0.0,0.0,-12.5937,-12.3591,-11.7802,-12.1768,-12.2894,-12.2522,-12.2808,-12.2923,-12.2921,-12.2489,-12.2997,-12.3613,-12.3195,-12.3776,-12.4764,-12.5538,-12.6517,-12.5895,-11.987,-11.8315,-11.5472,-10.5178,-10.3216,-10.2975,0.0,0.0,0.0,0.0,0.0,0.0,-5.439,-5.1316,-5.0186,0.0,0.0,0.0,0.0,-4.7851,0.0,0.0,-5.307,-6.1145,-6.1733,-6.6492,-7.1956,0.0,0.0,0.0,-9.341,-10.1176,-10.5096,-10.499,-10.4503,-10.3186,-10.0842,-10.0516,-9.9468,-9.7774,-10.0318,-10.2765,-10.5529,-11.2411,-11.9336,-12.6187,-13.1596,-13.5635,-13.8221,-13.7058,-13.5894,-13.5229,-13.8027,-13.8013,-13.6089,-5.4995,0.0,0.0,0.0,0.0,0.0,0.0,-8.1172,0.0,-10.6662,0.0,-12.442,-13.2229,-14.4864,-15.1769,-14.9329,0.0,-14.1334,-12.7223,-13.6817,-13.7071,-12.3899,-13.2763,-13.6103,-13.2025,-11.7715,0.0,0.0,0.0,-6.8559,-6.0103,-6.0044,-6.0044,-6.0132,-6.0508,-6.709,0.0,-9.9409,-11.0005,-11.4005,-12.4074,-12.7136,-12.5587,-12.6717,-12.5218,-12.2422,-12.2096,-12.22,-12.2609,-12.2718,-12.3036,-12.3167,-12.2295,-12.3198,-12.4364,-12.3825,-12.4978,-12.6915,-12.8471,-12.9282,-12.9713,-12.9817,-12.9735,-12.7148,-11.7558,-11.4656,-11.3886,-11.3753,-10.4858,-10.1906,0.0,0.0,0.0,0.0,0.0,0.0,0.0,0.0,0.0,0.0,0.0,0.0,0.0,0.0,-5.9829,-6.0054,-6.1447,-6.3556,0.0,0.0,0.0,-8.9432,-10.0315,-10.6122,-10.6006,0.0,-10.3994,-10.0743,-10.1471,-10.0964,-9.9404,-10.3664,-10.5956,-10.6903,-11.4973,-12.0831,-12.5352,-12.9721,-13.3367,-13.6008,-13.4098,-13.2136,-13.0763,-13.4481,-13.5922,-13.5698,0.0,0.0,0.0,0.0,0.0,-8.9297,-10.1562,-11.3672,-12.2812,-12.6401,-13.93,-14.8401,-14.8883,-15.0509,-15.0559,-14.8336,-14.7577,0.0,0.0,0.0,0.0,-13.7678,-13.7919,-13.6411,-13.2872,-11.8638,-10.5405,0.0,-8.0302,-6.9126,-6.0103,-5.969,-5.9722,-6.0103,-6.0189,-7.0502,-8.8732,-10.1768,0.0,-12.1874,-12.5319,-12.5833,-12.4612,-12.4156,-12.217,-11.9728,-11.9557,-12.0907,-12.2699,-12.3034,-12.3467,-12.4125,-12.4877,-12.4708,-12.4395,-12.5688,-12.6682,-12.7685,-12.8629,-13.0219,-13.1304,-13.0361,-12.9863,-12.9276,-12.7814,-12.5608,-12.4096,-12.4737,-12.0292,-11.4673,-10.9454,0.0,0.0,0.0,0.0,0.0,0.0,0.0,0.0,0.0,0.0,-6.0609,0.0,0.0,0.0,0.0,0.0,0.0,0.0,0.0,0.0,0.0,-10.8511,0.0,0.0,0.0,-10.865,-10.6669,-10.3768,-10.2841,-10.3655,-10.4654,-10.7006,-11.0704,-11.6438,-12.0783,-12.4192,-12.9488,-13.1634,-13.13,-13.0656,-12.9344,-12.7896,-13.0506,-13.0358,-12.9488,0.0,0.0,0.0,0.0,0.0,0.0,0.0,-13.2187,0.0,-13.1015,-13.6863,-14.1228,-13.9218,-14.569,-14.9105,-14.6527,-14.6293,-14.538,-14.3384,-14.2995,-14.2106,-14.0099,-13.8447,0.0,-13.2296,-12.3088,-11.0295,-9.4059,-8.5158,-7.3607,-5.9874,-5.9771,-5.9722,-6.0013,-6.5269,-7.3426,0.0,0.0,0.0,-11.584,-12.1115,-12.2825,-12.202,-12.1161,-11.901,-11.6279,-11.6246,-11.7885,-12.027,-12.1678,-12.3009,-12.4145,-12.4596,-12.5416,-12.6332,-12.7227,-12.85,-12.9787,-13.0404,-13.1375,-13.1882,-13.0478,-13.0073,-12.9918,-12.9805,-12.8078,-12.6659,-12.7042,-12.4007,-11.7676,-10.6228,-9.4472,0.0,0.0,0.0,0.0,0.0,0.0,0.0,0.0,0.0,0.0,0.0,0.0,0.0,0.0,0.0,0.0,0.0,0.0,0.0,0.0,0.0,0.0,0.0,0.0,0.0,-10.5885,-10.4516,-10.3582,-10.3354,-10.5158,-10.7476,-11.001,-11.5266,-11.9063,-12.2098,-12.6799,-12.8224,-12.7234,-12.6617,-12.5315,-12.4037,-12.5636,-12.5413,-12.5075,0.0,-6.6742,0.0,0.0,-10.1621,0.0,-12.6718,-14.1406,-14.6875,-13.4765,-13.3672,-13.3125,-13.0937,-14.1328,-14.7416,-14.5078,-14.4987,-14.4425,-14.2974,-14.2538,-14.1196,-13.9023,-13.7802,-13.5407,-13.1581,-12.7177,-11.5813,0.0,-9.0826,-7.9092,-6.247,-6.08,-6.079,-6.2662,0.0,0.0,0.0,0.0,-10.6408,-11.0633,-11.7254,-11.9709,-11.9303,-11.8085,-11.5878,-11.3121,-11.315,-11.4738,-11.723,-11.9579,-12.1948,-12.3953,-12.4554,-12.6018,-12.7797,-12.8833,-13.0278,-13.1601,-13.1928,-13.2234,-13.2098,-13.0442,-12.9816,-12.9472,-12.8772,-12.7409,-12.6052,-12.6107,-12.3408,-11.7305,-10.4948,-9.7871,0.0,0.0,0.0,0.0,0.0,0.0,0.0,0.0,0.0,0.0,0.0,0.0,0.0,0.0,0.0,0.0,0.0,0.0,0.0,0.0,0.0,-10.9161,-10.7222,0.0,-10.8114,-10.4238,-10.4435,-10.3686,-10.2436,-10.5787,-10.7795,-10.8951,-11.3563,-11.7237,-11.9952,-12.3537,-12.4475,-12.3788,-12.3105,-12.1538,-11.9769,-12.0447,-11.992,-11.8949,0.0,0.0,0.0,0.0,0.0,0.0,0.0,-14.0,-14.9218,-14.8515,-14.7812,-14.7031,-14.6015,-14.5703,-14.5624,-14.5311,-14.4609,-14.3827,-14.2885,-14.2433,-14.1101,-13.859,-13.7333,-13.4978,-13.1606,-12.8002,-11.9621,0.0,0.0,-8.3545,0.0,-6.3472,-6.3931,0.0,0.0,0.0,0.0,-10.2674,-10.9503,-11.8201,-11.7859,-11.7768,-11.7436,-11.5069,-11.2651,-11.0698,-11.1394,-11.272,-11.4652,-11.6961,-12.0526,-12.4195,-12.6604,-12.6994,-12.7333,-13.077,-13.168,-13.1601,-13.1928,-13.2234,-13.1863,-12.9585,-12.8517,-12.7791,-12.7075,-12.5563,-12.4339,-12.4312,-12.2019,-11.6519,-10.4853,-10.9665,-11.1943,0.0,0.0,0.0,0.0,0.0,0.0,0.0,0.0,0.0,0.0,0.0,0.0,0.0,0.0,0.0,0.0,0.0,0.0,-9.2017,0.0,-9.8018,-9.7036,-10.2755,-10.575,-10.5966,-10.4052,-10.3645,-10.4816,-10.6945,-10.8722,-11.0211,-11.2864,-11.5838,-11.8768,-12.064,-12.126,-12.1188,-12.1151,-11.891,-11.5702,-11.5065,-11.3085,-10.7373,0.0,0.0,0.0,0.0,0.0,0.0,0.0,-14.3906,-14.7578,-14.7422,-14.7968,-14.789,-14.6484,-14.5703,-14.5078,-14.4609,-14.3828,-14.3125,-14.2812,-14.171,-14.0135,-13.8026,-13.6809,-13.4893,-13.2185,-12.8963,-12.1603,0.0,0.0,0.0,0.0,0.0,0.0,0.0,0.0,-9.5119,-10.2712,-10.8811,-11.3505,-11.6681,-11.5648,-11.4156,-11.2447,-11.0425,-10.8895,-10.7723,-10.756,-10.9964,-11.3332,-11.4795,-11.906,-12.4135,-12.6767,-12.7832,-12.8557,-13.1595,-13.2045,-13.149,-13.1501,-13.1167,-13.0535,-12.8572,-12.7482,-12.6703,-12.6073,-12.4188,-12.2512,-12.2477,-12.1122,-11.8436,-11.3765,-11.1515,-11.0604,0.0,0.0,0.0,0.0,0.0,0.0,0.0,0.0,0.0,0.0,0.0,0.0,0.0,0.0,0.0,0.0,0.0,0.0,-9.2169,0.0,-10.1047,-9.9363,-10.2255,-10.3459,-10.2938,-10.3342,-10.3645,-10.4382,-10.6418,-10.7632,-10.8445,-11.0313,-11.1703,-11.288,-11.4557,-11.5193,-11.5041,-11.4774,-11.1174,-10.5126,-9.6851,-8.226,-6.4814,-10.5768,0.0,-11.3967,0.0,-13.0778,-13.4609,-14.4297,-14.5781,-14.5625,-14.5,-14.6015,-14.6328,-14.5078,-14.4687,-14.4297,-14.3672,-14.289,-14.2265,-14.2109,-14.0937,-13.9295,-13.7175,-13.6325,0.0,-13.241,-12.9687,-12.3977,-11.5191,-10.3113,0.0,0.0,0.0,0.0,0.0,-9.8815,-10.3174,-10.6754,-11.3194,-11.5403,-11.4655,-11.3693,-11.1901,-10.9474,-10.8276,-10.729,-10.6493,-10.6463,-10.9432,-11.3191,-11.4214,-11.8567,-12.4012,-12.61,-12.764,-12.9074,-13.126,-13.1684,-13.1434,-13.0922,-13.0309,-12.9337,-12.7305,-12.6395,-12.5516,-12.4225,-12.2436,-12.1003,-12.0431,-11.9325,-11.8363,-11.8255,-11.2518,-10.976,-11.5648,0.0,0.0,0.0,0.0,0.0,0.0,-9.6531,-9.0612,-8.8384,0.0,0.0,0.0,0.0,0.0,0.0,0.0,0.0,0.0,0.0,0.0,0.0,-9.9841,-10.0611,-9.9861,-10.1751,-10.2641,-10.3049,-10.5248,-10.6104,-10.5581,-10.6166,-10.6272,-10.5817,-10.6144,-10.6264,-10.5852,-10.3609,-9.8269,-8.9523,-7.2956,-5.1872,-2.9293,-11.5994,-11.9986,-12.7578,-14.1406,-14.3828,-14.3828,-14.3984,-14.3984,-14.3984,-14.3984,-14.3984,-14.3984,-14.3984,-14.3281,-14.2812,-14.2812,-14.2031,-14.1172,-14.0312,-14.0234,-13.8894,0.0,0.0,-13.4571,-13.2061,-12.9975,-12.7325,-12.41,0.0,0.0,-10.3011,0.0,-9.3406,-10.1166,-10.1404,-10.6473,-11.487,-11.4907,-11.4442,-11.3721,-11.2861,-11.1717,-11.0208,-10.9541,-10.8727,-10.8118,-10.9758,-11.1848,-11.4129,-11.571,-11.9568,-12.3788,-12.4669,-12.635,-12.8002,-12.9707,-13.0828,-13.1257,-13.0219,-12.9734,-12.8666,-12.5783,-12.4908,-12.3938,-12.0905,-12.0206,-11.9709,-11.7826,-11.6194,-11.5083,-11.5155,-11.4414,-11.3616,-11.2907,0.0,0.0,0.0,0.0,0.0,0.0,-9.3912,-9.1713,-8.7026,0.0,0.0,0.0,0.0,0.0,0.0,0.0,0.0,-8.7146,-8.6792,0.0,-8.5469,-9.2994,-9.7162,-9.7681,-9.9164,-10.0243,-10.0948,-10.3621,-10.3864,-10.1882,-10.0006,-9.9313,-9.9024,-9.5186,-9.3872,-9.3549,-8.7225,-7.9298,-6.8211,-4.4106,-2.7162,-0.9946,-13.4705,-13.6686,-13.9609,-14.3281,-14.4531,-14.4687,-14.4062,-14.3984,-14.3828,-14.3281,-14.3203,-14.2734,-14.1484,-14.2187,-14.2265,0.0,-14.0234,-13.9291,0.0,-13.7522,-13.6367,-13.4572,-13.4572,-13.3715,-13.1689,-13.041,-12.8599,-12.6286,0.0,0.0,0.0,-10.0329,-10.3017,-11.096,-11.0338,-11.1508,-11.4085,-11.3567,-11.2569,-11.1367,-11.1037,-10.9165,-10.6543,-10.638,-10.6811,-10.7509,-10.7975,-11.1326,-11.5746,-11.7255,-12.0352,-12.3779,-12.5347,-12.6662,-12.8079,-13.0406,-13.0439,-12.9621,-12.9125,-12.8407,-12.7261,-12.5471,-12.399,-12.2501,-12.1351,-11.8784,-11.6486,-11.5934,-11.4515,-11.3583,-11.4082,-11.4171,-11.3616,-11.2722,-11.4059,0.0,0.0,0.0,0.0,0.0,-10.2003,-10.0343,0.0,-9.8677,0.0,0.0,0.0,0.0,0.0,0.0,0.0,0.0,-8.994,0.0,-9.1697,-9.4001,-9.5347,-9.5528,-9.7495,-9.8216,-9.825,-9.9578,-9.7024,-9.1508,-9.1775,-8.8174,-8.2179,-8.2817,-7.9387,-7.3494,-7.0508,-5.8493,-3.9784,-1.4254,1.399,4.3599,-14.3428,-14.4196,-14.4609,-14.4062,-14.4531,-14.4531,-14.3672,-14.3515,-14.3281,-14.2422,-14.2031,-14.1328,-13.9922,-14.0307,0.0,-13.9124,-13.8187,-13.7366,-13.6499,-13.5935,-13.5118,-13.3932,-13.3824,-13.2969,-13.1337,0.0,0.0,-12.722,-11.8625,-11.2884,-11.0066,-10.8987,-11.1166,-11.5849,-11.474,-11.4074,-11.3715,-11.3022,-11.1539,-10.9962,-10.9861,-10.8563,-10.6418,-10.6892,-10.7845,-10.9275,-11.0239,-11.343,-11.725,-11.8858,-12.1691,-12.46,-12.5799,-12.6889,-12.8022,-12.9425,-12.9246,-12.8219,-12.7485,-12.6824,-12.5864,-12.4723,-12.3272,-12.19,-12.0345,-11.7377,-11.4947,-11.4166,-11.2666,-11.1554,-11.2047,-11.1708,-11.1064,-11.0175,-11.1458,-11.1652,-10.9517,0.0,0.0,0.0,0.0,0.0,0.0,-9.8065,0.0,0.0,0.0,0.0,0.0,0.0,0.0,-8.7366,-9.0519,0.0,-9.1388,-9.1854,-9.2086,-9.2086,-9.4331,-9.4723,-9.3323,-9.3739,-8.9522,-8.2062,-8.1792,-7.6822,-6.8894,-6.8504,-6.3537,-5.5141,-4.9228,-3.3782,-1.1403,1.7996,4.8846,7.8869,-14.37,-14.3984,0.0,0.0,-14.3984,0.0,-14.289,-14.2734,-14.2422,-14.1406,-14.0625,-13.9687,-13.8671,-13.7609,-13.6901,-13.6795,0.0,0.0,0.0,-13.5082,-13.4601,-13.338,-13.3419,-13.2567,-13.1018,-12.9774,-12.8386,-12.6877,-12.3589,-12.1074,-11.9267,-11.8451,-11.742,-11.6012,-11.5127,-11.4371,-11.3571,-11.2583,-11.1075,-10.9406,-10.9282,-10.9352,-10.9545,-11.0432,-11.1688,-11.3318,-11.5566,-11.7467,-11.9085,-12.0596,-12.3139,-12.5932,-12.6096,-12.682,-12.7388,-12.7181,-12.7332,-12.7128,-12.5527,-12.5115,-12.4837,-12.3418,-12.2797,-12.1599,-11.8174,-11.6084,-11.4381,-11.2765,-11.0608,-10.8964,-10.8964,-10.7756,-10.6629,-10.5885,-10.7047,-10.7481,-10.6025,0.0,0.0,0.0,0.0,0.0,0.0,-9.0729,-9.299,0.0,0.0,0.0,0.0,0.0,-8.4038,-9.113,-8.8461,-8.6597,-8.6234,-8.7394,-8.7754,-8.7507,-8.9712,-8.9167,-8.6297,-8.6297,-8.1585,-7.3313,-7.1066,-6.5761,-5.847,-5.3525,-4.6959,-3.887,-2.5144,-0.7154,1.5381,5.0019,7.5619,9.5997,0.0,0.0,-14.3984,-14.3984,-14.3515,-14.2968,-14.2812,-14.2187,-14.1328,-13.9687,-13.9297,-13.8276,-13.5796,-13.5286,-13.4592,-13.3483,-13.3993,-13.3993,-13.2978,-13.2866,-13.2722,-13.2088,-13.2117,-13.1732,-13.0576,-12.9739,-12.7413,-12.3824,-12.2904,-12.0989,-11.8015,-11.8394,-11.6844,-11.3621,-11.3941,-11.2737,-11.0196,-10.9465,-10.9774,-11.0898,-11.0262,-11.1256,-11.2893,-11.3669,-11.4925,-11.6429,-11.83,-11.9906,-12.1474,-12.3089,-12.375,-12.4227,-12.5634,-12.542,-12.4975,-12.6591,-12.6867,-12.6193,-12.459,-12.4569,-12.4604,-12.268,-12.1292,-11.9818,-11.7109,-11.4777,-11.2765,-11.1186,-10.901,-10.743,-10.743,-10.6693,-10.602,-10.5817,-10.6567,-10.6857,-10.5887,-10.5937,0.0,0.0,-10.1264,-10.0608,-10.0946,-10.0675,-9.7636,0.0,0.0,0.0,0.0,-7.8544,-8.0024,-8.7669,-8.7797,-8.7644,-8.7919,-8.8195,-8.7224,-8.4983,-8.3118,-8.0828,-7.8433,-7.8433,-7.3577,-6.5176,-6.4968,-5.802,-4.6725,-4.5872,-3.8061,-2.5188,-1.3723,0.5514,2.9791,5.7382,7.742,9.2218,-14.2995,-14.3595,-14.3828,-14.3281,-14.2968,-14.25,-14.1718,-14.1172,-14.0312,-13.8515,-13.7804,-13.6672,-13.4728,-13.3912,-13.3134,-13.2256,-13.2779,-13.2788,-13.2049,-13.2005,-13.1717,-13.1179,-13.1179,-13.0564,-12.9333,-12.8409,-12.5994,-12.2089,-12.2393,-12.0735,-11.6985,-11.7805,-11.6477,-11.3277,-11.3349,-11.1875,-10.9586,-10.9608,-11.0147,-11.1037,-11.1268,-11.3127,-11.5629,-11.6416,-11.7869,-11.9704,-12.0505,-12.1567,-12.2674,-12.3188,-12.3408,-12.3382,-12.4157,-12.4052,-12.3804,-12.4533,-12.4877,-12.4869,-12.3735,-12.3866,-12.4101,-12.2574,-12.1208,-11.9763,-11.774,-11.5746,-11.3603,-11.1306,-10.9285,-10.7954,-10.7954,-10.7338,-10.691,-10.725,-10.3392,-10.1497,-10.4778,-10.1421,0.0,-10.4304,-10.4306,-10.4261,-10.4667,-10.4599,-10.1187,-9.2982,-9.2896,0.0,-8.3859,-8.1641,-8.2119,-8.5358,-8.3573,-8.2776,-8.3034,-8.1952,-8.054,-7.8747,-7.739,-7.5131,-7.2639,-7.2638,-6.7811,-5.8866,-5.9228,-5.151,-3.8463,-3.7034,-2.7714,-1.3197,-0.0544,1.8564,4.1434,6.2421,7.6954,8.6044,-14.2777,-14.3483,-14.3593,-14.25,-14.2422,-14.2031,-14.039,-14.0078,-13.9375,-13.7578,-13.6523,-13.5418,-13.4284,-13.3028,-13.218,-13.2101,-13.2101,-13.1971,-13.1691,-13.1718,-13.1333,-13.0487,-13.0487,-12.9667,-12.7874,-12.67,-12.4453,-12.0908,-12.151,-11.9661,-11.5846,-11.6649,-11.5773,-11.3317,-11.2752,-11.1638,-11.0278,-11.1107,-11.1366,-11.122,-11.2845,-11.542,-11.8216,-11.9157,-12.0753,-12.2453,-12.26,-12.2894,-12.3188,-12.2674,-12.2674,-12.2867,-12.2361,-12.2853,-12.3136,-12.232,-12.2965,-12.3799,-12.312,-12.3363,-12.3706,-12.3228,-12.2195,-12.0743,-11.9124,-11.7578,-11.5673,-11.2758,-11.0765,-10.9722,-10.9583,-10.8818,-10.7925,-10.7081,-9.9991,-9.6586,-10.2098,0.0,-9.5565,-10.3472,-10.4782,-10.506,-10.54,-10.5612,-10.3791,-9.8914,-9.9794,-9.7458,-8.9992,-8.8264,-8.6518,-8.4026,-7.9088,-7.6258,-7.5963,-7.3315,-7.2179,-7.2179,-7.2164,-7.076,-6.834,-6.7997,-6.3177,-5.4775,-5.3749,-4.6002,-3.3252,-2.8998,-1.8593,-0.4161,1.0663,2.8536,4.7704,6.3053,7.1865,7.5993,-14.3019,-14.3483,-14.3593,-14.25,-14.1484,-14.0781,-14.0312,-13.9609,-13.8515,-13.6718,-13.6132,-13.5127,-13.3182,-13.2457,-13.2098,-13.1761,-13.179,-13.1818,-13.1718,-13.1718,-13.1333,-13.0487,-13.0487,-12.9614,-12.7847,-12.543,-12.2561,-11.9117,-11.8453,-11.677,-11.4071,-11.4854,-11.3928,-11.1808,-11.2294,-11.1472,-10.9474,-11.0969,-11.2618,-11.4517,-11.6782,-11.9221,-12.15,-12.2965,-12.3797,-12.4215,-12.4876,-12.4289,-12.3408,-12.3922,-12.2894,-12.1397,-12.199,-12.1875,-12.1843,-12.2703,-12.3894,-12.4714,-12.3501,-12.3511,-12.4007,-12.5338,-12.4355,-12.2279,-11.9993,-11.8733,-11.7436,-11.5033,-11.3152,-11.1881,-11.1317,-10.9905,-10.6265,-9.8124,-10.1223,-10.2387,-9.6058,0.0,-10.5198,-10.8013,-10.7338,-10.7181,-10.8424,-10.6943,-10.5076,-10.2961,-10.087,-9.7811,-9.3257,-9.1267,-8.823,-8.4026,-7.8742,-7.5196,-7.3315,-7.0878,-6.9462,-6.9505,-6.6829,-6.5667,-6.5294,-6.2551,-5.8912,-5.488,-4.8757,-4.1299,-3.3198,-2.6054,-1.6477,-0.4187,1.0676,2.5561,4.0135,5.1243,5.6159,5.5635,-14.2359,-14.3326,-14.3828,-14.3281,-14.1797,-14.039,-13.9609,-13.9218,-13.8281,-13.6484,-13.591,-13.4806,-13.2877,-13.2215,-13.1684,-13.095,-13.1433,-13.1486,-13.095,-13.1433,-13.1102,-12.9871,-12.9276,-12.7341,-12.3602,-12.1839,-11.9634,-11.6644,-11.6644,-11.5096,-11.1877,-11.4356,-11.3665,-11.0274,-11.1447,-11.1645,-11.1156,-11.2614,-11.48,-11.7179,-11.9511,-12.1887,-12.4068,-12.4362,-12.5023,-12.5684,-12.517,-12.4582,-12.3922,-12.3408,-12.2453,-12.147,-12.095,-12.1209,-12.1582,-12.247,-12.4726,-12.6875,-12.6998,-12.6413,-12.5872,-12.6702,-12.5101,-12.2991,-12.1876,-12.0972,-11.9864,-11.7361,-11.5955,-11.4881,-11.3593,-11.2376,-11.0438,-10.6751,-10.3436,0.0,0.0,-10.1861,-10.2875,-10.8473,-10.928,-10.9704,-11.0405,-10.8618,-10.675,-10.4668,-10.283,-10.0459,-9.7298,-9.4123,-9.1505,-8.9312,-7.923,-7.2727,-7.0257,-6.7523,-6.6148,-6.639,-6.4985,-6.3399,-6.1793,-6.0671,-5.7125,-5.2118,-4.7036,-3.9693,-3.0253,-2.2615,-1.1809,0.1398,1.219,2.4075,3.5746,4.235,4.253,3.7612,-14.1874,-14.2761,-14.336,-14.2889,-14.1406,-13.9922,-13.8984,-13.8906,-13.8281,-13.6713,-13.5969,-13.5005,-13.3445,-13.2314,-13.139,-13.0795,-13.11,-13.0947,-13.0246,-13.0887,-13.0602,-12.8923,-12.6884,-12.3835,-11.9279,-11.7811,-11.5816,-11.3157,-11.3715,-11.2388,-10.9469,-11.301,-11.2779,-10.9443,-11.1549,-11.2741,-11.3569,-11.5671,-11.7673,-11.9597,-12.2179,-12.4362,-12.6197,-12.561,-12.6197,-12.7299,-12.583,-12.5096,-12.4582,-12.3408,-12.272,-12.2234,-12.0854,-12.1258,-12.2468,-12.3124,-12.6416,-12.9799,-13.0466,-12.9309,-12.7758,-12.7985,-12.5995,-12.3775,-12.3628,-12.3114,-12.2086,-12.0051,-11.89,-11.774,-11.629,-11.513,-11.3831,-11.2583,0.0,0.0,0.0,-10.3626,-10.255,-10.9694,-11.1121,-11.1865,-11.2008,-11.0523,-10.892,-10.6704,-10.5483,-10.3961,-10.1937,-9.8379,-9.6162,-9.5125,-8.1734,-7.2992,-6.9998,-6.7852,-6.6143,-6.5266,-6.5266,-6.3771,-6.0371,-5.9559,-5.5754,-4.955,-4.494,-3.6924,-2.6744,-1.9105,-0.7941,0.5067,1.3442,2.2221,3.0594,3.3721,3.0379,2.3709,-14.1874,-14.1957,-14.1476,-13.9582,-13.9062,-13.8984,-13.8906,-13.8906,-13.851,-13.7171,-13.6718,-13.6011,-13.4773,-13.2845,-13.1787,-13.2486,-13.0985,-12.9946,-12.9872,-13.0022,-12.9398,-12.7895,-12.3056,-11.9376,-11.6994,-11.3787,-11.0819,-10.7861,-10.778,-10.7258,-10.6332,-10.9289,-11.0453,-11.0453,-11.404,-11.5866,-11.6058,-11.9903,-12.1764,-12.2128,-12.5323,-12.7078,-12.7886,-12.7886,-12.84,-12.8987,-12.8106,-12.6858,-12.561,-12.5463,-12.4468,-12.3322,-12.2487,-12.309,-12.4518,-12.5713,-12.9687,-13.3395,-13.2287,-13.0393,-12.8815,-12.957,-12.7708,-12.5317,-12.4582,-12.4362,-12.4142,-12.3163,-12.1769,-12.0449,-11.9422,-11.7441,-11.2673,-10.2999,0.0,0.0,-10.1149,-10.7085,-11.2803,-11.4176,-11.3198,-11.2681,-11.3577,-11.2189,-11.1219,-11.0964,-10.9199,-10.801,-10.7816,-10.5676,-10.2751,-9.8954,-8.8151,-8.0008,-7.535,-7.5431,-7.318,-6.8453,-6.8453,-6.7032,-6.4392,-5.8145,-5.3454,-4.9374,-3.9521,-3.0723,-2.2724,-1.5223,-0.7168,0.1429,1.237,1.9296,2.291,2.3201,2.0746,1.6357,-14.1874,-14.0181,-13.8834,-13.8879,-13.8723,-13.8616,-13.8905,-13.8733,-13.8363,-13.7873,-13.6899,-13.574,-13.4001,-13.2923,-13.1794,-13.0843,-13.0698,-13.024,-12.8991,-12.8982,-12.7551,-12.4543,-11.935,-11.5281,-11.2851,-10.9949,-10.7755,-10.6387,-10.7848,-10.8039,-10.7257,-11.3225,-11.5028,-11.3468,-11.7801,-12.0123,-12.0666,-12.3303,-12.4954,-12.5992,-12.8195,-12.9575,-13.0309,-12.9795,-13.0088,-13.0602,-12.9281,-12.8473,-12.7666,-12.6197,-12.5449,-12.4759,-12.3741,-12.413,-12.512,-12.7339,-13.0307,-13.2908,-13.2701,-13.1946,-13.1125,-13.0852,-12.8758,-12.6356,-12.5514,-12.517,-12.5023,-12.4215,-12.3628,-12.26,-12.0691,-11.9664,-11.7388,-11.2322,0.0,-11.3791,-11.012,-11.2322,-11.4525,-11.4818,-11.4648,-11.4728,-11.502,-11.4185,-11.345,-11.2841,-11.166,-11.0852,-11.0242,-10.8451,-10.6074,-10.3769,-9.9706,-9.3019,-8.3005,-8.1802,-7.8796,-7.4266,-7.4266,-7.0733,-6.4219,-6.1868,-5.6817,-4.9283,-4.0831,-3.1809,-2.1945,-1.4625,-0.5732,0.3713,0.8229,1.0674,1.198,1.1845,0.9599,0.62,-14.1506,-13.9304,-13.7828,-13.8738,-13.8639,-13.8529,-13.8905,-13.8624,-13.8309,-13.7979,-13.7071,-13.5802,-13.399,-13.3084,-13.1985,-13.0569,-13.052,-12.9985,-12.8803,-12.7009,-12.4777,-12.2033,-11.666,-11.2568,-10.9574,-10.6799,-10.5209,-10.4997,-10.7357,-10.8834,-10.9297,-11.6342,-11.8577,-11.7258,-12.1919,-12.435,-12.4908,-12.673,-12.8148,-12.9281,-13.0676,-13.1703,-13.2364,-13.163,-13.163,-13.1924,-13.0529,-12.9721,-12.9163,-12.7502,-12.6936,-12.6702,-12.5423,-12.5398,-12.6213,-12.8324,-13.0314,-13.1947,-13.2532,-13.2499,-13.2079,-13.1076,-12.9006,-12.707,-12.6201,-12.5904,-12.561,-12.5317,-12.4876,-12.3995,-12.2307,-12.1426,-12.0398,-11.9003,-11.7608,-11.6727,-11.6434,-11.592,-11.5626,-11.5626,-11.5773,-11.6066,-11.636,-11.6041,-11.5375,-11.4795,-11.441,-11.388,-11.3378,-11.1683,-11.0359,-10.9559,-10.9559,-10.4788,-9.5177,-9.1551,-8.7452,-8.2984,-8.1834,-7.7388,-7.0141,-6.8119,-6.2078,-5.3197,-4.5627,-3.579,-2.5331,-1.9308,-1.1364,-0.3108,-0.3089,-0.3059,-0.3309,-0.4179,-0.5036,-0.4771,-14.0617,-13.9567,-13.8906,-13.8906,-13.8906,-13.8906,-13.8906,-13.8519,-13.8001,-13.7581,-13.7446,-13.6826,-13.5349,-13.3491,-13.2343,-13.212,-13.0452,-12.9281,-12.9354,-12.4052,-12.0927,-12.097,-11.5511,-11.0907,-10.7334,-10.4895,-10.3384,-10.2874,-10.5885,-10.894,-11.1993,-11.7395,-12.0364,-12.1264,-12.5948,-12.8087,-12.8346,-13.0734,-13.1703,-13.1777,-13.2584,-13.3392,-13.3979,-13.3245,-13.2878,-13.2805,-13.1997,-13.0676,-12.9338,-12.9489,-12.9415,-12.8948,-12.7387,-12.7328,-12.7879,-12.8728,-12.9926,-13.1095,-13.1607,-13.1718,-13.1402,-13.0312,-12.8556,-12.7219,-12.6937,-12.6271,-12.5904,-12.6711,-12.561,-12.4509,-12.4509,-12.2527,-12.0618,-11.9811,-11.893,-11.8122,-11.7314,-11.7241,-11.7241,-11.7241,-11.6507,-11.6287,-11.7094,-11.7241,-11.7241,-11.7241,-11.7241,-11.7241,-11.7241,-11.6507,-11.6088,-11.6167,-11.6206,-11.4795,-11.1904,-10.557,-9.9979,-9.4798,-9.1029,-8.7769,-8.4458,-7.656,-6.929,-6.2292,-5.297,-4.3137,-3.276,-2.9378,-2.5793,-2.2094,-2.1882,-2.2057,-2.2694,-2.6272,-2.3235,-1.6724,-13.9934,-13.9128,-13.8906,-13.8906,-13.8509,-13.8278,-13.8825,-13.8519,-13.8001,-13.7581,-13.7202,-13.6196,-13.4398,-13.3573,-13.2691,-13.1117,-13.0441,-12.9158,-12.6878,-12.3495,-12.0257,-11.6777,-11.1576,-10.7426,-10.4856,-10.4072,-10.4555,-10.5948,-11.0583,-11.4368,-11.7536,-12.3034,-12.602,-12.6928,-13.0073,-13.143,-13.1611,-13.2739,-13.3392,-13.3465,-13.4273,-13.4787,-13.4934,-13.4126,-13.3686,-13.3612,-13.2217,-13.1508,-13.1028,-12.9987,-12.987,-13.0129,-12.8977,-12.8768,-12.8827,-12.8417,-12.9287,-13.0345,-12.9625,-13.0159,-13.1038,-13.015,-12.9114,-12.7867,-12.6396,-12.5904,-12.5904,-12.6711,-12.6124,-12.5317,-12.5317,-12.3775,-12.2086,-12.0691,-11.9811,-11.8783,-11.7388,-11.7682,-11.7608,-11.6507,-11.658,-11.6947,-11.7241,-11.7682,-11.7975,-11.7975,-11.7975,-11.7975,-11.7975,-11.7828,-11.8007,-11.8572,-11.8572,-11.8394,-11.8256,-11.2642,-10.7256,-10.2385,-10.132,-9.7567,-9.1593,-8.9318,-8.31,-7.4183,-6.8932,-5.9851,-4.8787,-4.7497,-4.3288,-3.7898,-4.0146,-4.4004,-4.8205,-4.9364,-4.8808,-4.6647,-14.1328,-13.9765,-13.8906,-13.8906,-13.8538,-13.8285,-13.839,-13.7789,-13.7128,-13.6553,-13.6145,-13.5088,-13.3423,-13.3192,-13.2522,-13.0661,-12.9857,-12.833,-12.5283,-12.2215,-11.8297,-11.3249,-10.9912,-10.7425,-10.5443,-10.5757,-10.7567,-11.0493,-11.5526,-11.9659,-12.3232,-12.7495,-13.0152,-13.1316,-13.3145,-13.3906,-13.3906,-13.442,-13.4567,-13.4713,-13.5227,-13.5227,-13.4787,-13.4273,-13.3686,-13.3057,-13.2098,-13.1749,-13.1464,-13.0696,-13.0586,-13.0561,-13.0162,-12.9294,-12.8315,-12.7678,-12.7928,-12.8079,-12.7911,-12.8928,-12.9799,-12.9082,-12.8815,-12.8348,-12.7009,-12.6418,-12.6491,-12.7592,-12.7005,-12.6197,-12.6197,-12.4876,-12.3408,-12.2086,-12.1132,-12.0104,-11.8783,-11.8783,-11.8489,-11.7461,-11.7608,-11.7828,-11.8122,-11.8269,-11.8603,-11.9002,-11.9002,-11.9076,-11.9519,-11.9224,-11.9338,-12.0104,-11.9811,-12.0031,-12.0912,-11.7652,-11.4226,-11.0744,-10.927,-10.636,-10.2442,-10.0146,-9.5226,-8.8247,-8.2445,-7.5053,-6.6622,-6.441,-6.1,-5.7489,-6.1199,-6.567,-7.038,-7.1915,-7.1049,-6.865,-14.3984,-14.1172,-13.8906,-13.8906,-13.8906,-13.8729,-13.8001,-13.673,-13.5587,-13.5249,-13.4744,-13.3938,-13.2591,-13.2359,-13.1912,-13.0588,-12.9022,-12.6836,-12.3938,-12.0365,-11.5839,-11.0498,-11.0265,-10.9793,-10.8775,-10.9712,-11.1963,-11.5883,-12.0565,-12.4759,-12.8687,-13.0841,-13.2763,-13.4273,-13.5007,-13.5374,-13.5374,-13.5374,-13.5374,-13.5374,-13.5301,-13.4787,-13.3979,-13.3832,-13.291,-13.1573,-13.1716,-13.1464,-13.1039,-13.1696,-13.137,-13.068,-13.0932,-12.9121,-12.6787,-12.6631,-12.5891,-12.5404,-12.6616,-12.7643,-12.8298,-12.764,-12.8136,-12.8724,-12.8116,-12.7519,-12.7446,-12.8987,-12.8106,-12.7005,-12.7005,-12.5684,-12.4289,-12.3676,-12.2794,-12.1911,-12.1124,-12.0407,-11.9966,-11.9818,-11.9229,-11.9155,-11.9818,-11.9303,-11.9313,-12.0191,-12.0198,-12.0571,-12.1152,-12.0481,-12.0419,-12.0838,-12.0104,-12.0104,-12.0912,-12.1007,-12.0205,-11.8729,-11.5247,-11.4085,-11.4768,-10.9468,-10.5929,-10.3231,-9.4707,-8.9061,-8.5702,-8.1223,-7.9451,-7.9503,-8.3678,-8.7053,-8.9864,-9.303,-9.0746,-8.5506,-14.3984,-14.1172,-13.8906,-13.8906,-13.8906,-13.8826,-13.8729,-13.6966,-13.5684,-13.5317,-13.5106,-13.436,-13.2941,-13.2733,-13.1971,-13.0661,-12.9022,-12.5652,-12.0008,-11.8779,-11.6105,-11.1203,-11.0352,-11.1793,-11.5097,-11.4914,-11.6714,-12.1044,-12.5135,-12.8811,-13.215,-13.3403,-13.4345,-13.5081,-13.5301,-13.5374,-13.5374,-13.5374,-13.5374,-13.5301,-13.4713,-13.3906,-13.3025,-13.1777,-13.114,-13.0919,-13.0284,-13.0776,-13.1676,-13.1881,-13.1395,-13.0524,-12.9526,-12.8117,-12.6604,-12.5198,-12.521,-12.539,-12.5233,-12.6906,-12.8573,-12.7556,-12.8513,-12.925,-12.7525,-12.7519,-12.8106,-12.9134,-12.8473,-12.7813,-12.7813,-12.6491,-12.5171,-12.4484,-12.3698,-12.3004,-12.2256,-12.2559,-12.2334,-12.1134,-12.1284,-12.1734,-12.196,-12.2258,-12.2712,-12.2863,-12.3013,-12.2709,-12.2129,-12.1897,-12.1532,-12.0838,-12.0691,-12.0691,-12.0912,-12.1547,-12.1531,-12.045,-12.0251,-11.9715,-11.864,-11.8207,-11.6085,-11.2737,-10.9975,-10.6022,-10.1479,-10.216,-10.1012,-9.9135,-10.2549,-10.5935,-10.9222,-10.9843,-11.0092,-10.9644,-14.3984,-14.1172,-13.8729,-13.7979,-13.8325,-13.8409,-13.801,-13.6436,-13.512,-13.454,-13.3924,-13.3076,-13.2198,-13.198,-13.1226,-12.9496,-12.606,-12.2516,-11.8957,-11.6705,-11.443,-11.2409,-11.2994,-11.5348,-11.9697,-12.1214,-12.3138,-12.5417,-12.9093,-13.2225,-13.4546,-13.4539,-13.5079,-13.6094,-13.562,-13.5374,-13.5374,-13.5374,-13.5227,-13.4713,-13.3906,-13.2584,-13.1147,-13.0796,-12.997,-12.9151,-12.9796,-13.058,-13.1277,-13.1412,-13.0623,-12.9494,-12.8563,-12.7128,-12.5415,-12.4393,-12.4502,-12.4863,-12.4707,-12.6741,-12.8711,-12.7699,-12.889,-12.9995,-12.8411,-12.84,-12.8767,-12.9207,-12.8694,-12.7959,-12.7592,-12.6491,-12.5441,-12.4709,-12.4284,-12.3698,-12.3152,-12.3381,-12.3388,-12.2627,-12.2853,-12.3004,-12.2476,-12.3608,-12.42,-12.3855,-12.4195,-12.3991,-12.3081,-12.2892,-12.2348,-12.0838,-12.0912,-12.1124,-12.1531,-12.2077,-12.2344,-12.2259,-12.2763,-12.2861,-12.2709,-12.2706,-12.1885,-12.0373,-11.8248,-11.5793,-11.3018,-11.3057,-11.1987,-11.0542,-11.1294,-11.4183,-11.7841,-11.7178,-11.8497,-12.0778,-14.3112,-14.0686,-13.8292,-13.7115,-13.7614,-13.7936,-13.7011,-13.5767,-13.446,-13.3281,-13.1971,-13.1133,-13.0852,-13.0758,-12.9896,-12.7755,-12.2378,-11.8996,-11.8541,-11.4433,-11.279,-11.4173,-11.6252,-11.9456,-12.3648,-12.7078,-12.9145,-12.941,-13.2406,-13.4708,-13.6144,-13.5145,-13.5493,-13.6704,-13.5786,-13.5301,-13.5227,-13.5227,-13.4567,-13.3612,-13.2805,-13.1147,-12.9392,-12.9934,-12.9002,-12.7737,-12.9494,-13.0384,-13.0735,-13.0602,-12.9818,-12.867,-12.8073,-12.6375,-12.458,-12.4069,-12.4228,-12.4513,-12.4907,-12.6872,-12.8711,-12.7897,-12.9419,-13.0821,-12.9591,-12.9428,-12.953,-12.9512,-12.8997,-12.8287,-12.7599,-12.6884,-12.6146,-12.5187,-12.5039,-12.4746,-12.3928,-12.3953,-12.421,-12.428,-12.434,-12.4175,-12.3493,-12.4706,-12.5202,-12.4477,-12.5136,-12.4964,-12.4067,-12.3736,-12.2793,-12.1228,-12.0985,-12.133,-12.2493,-12.266,-12.3384,-12.463,-12.469,-12.5148,-12.5717,-12.5057,-12.5211,-12.5874,-12.2993,-12.1548,-12.0979,-11.8787,-11.7765,-11.7522,-11.593,-11.7888,-12.144,-12.0376,-12.2051,-12.5116,-13.931,-13.8267,-13.7781,-13.7478,-13.771,-13.7751,-13.7519,-13.6433,-13.4774,-13.228,-13.0274,-12.9192,-12.9449,-12.9248,-12.8362,-12.5955,-12.0993,-11.7094,-11.5051,-11.2687,-11.2932,-11.6522,-11.7878,-12.1481,-12.7432,-12.9985,-13.1759,-13.3238,-13.4432,-13.549,-13.6404,-13.5993,-13.5832,-13.5885,-13.5565,-13.5007,-13.4273,-13.4273,-13.3392,-13.1997,-13.1116,-13.0353,-12.9375,-12.8141,-12.8051,-12.8635,-12.8586,-12.9453,-13.0591,-13.0219,-12.992,-12.9531,-12.7889,-12.6777,-12.5994,-12.517,-12.5015,-12.5279,-12.6465,-12.7917,-12.8885,-12.894,-13.0004,-13.0821,-12.9591,-12.9795,-13.0395,-13.0677,-13.0491,-13.0167,-12.962,-12.9405,-12.8803,-12.7299,-12.6999,-12.655,-12.5046,-12.6069,-12.6908,-12.6198,-12.6931,-12.731,-12.7233,-12.7387,-12.7042,-12.6079,-12.687,-12.6524,-12.4684,-12.3919,-12.3015,-12.2036,-12.1279,-12.1717,-12.3387,-12.4213,-12.5591,-12.754,-12.8509,-12.7782,-12.5688,-12.6713,-12.7219,-12.7325,-12.5985,-12.5334,-12.4874,-12.3699,-12.2863,-12.2496,-12.2303,-12.2911,-12.4263,-12.5523,-12.6167,-12.6477,-13.8098,-13.725,-13.7167,-13.7071,-13.7368,-13.747,-13.7236,-13.6685,-13.5236,-13.2076,-13.095,-13.0027,-12.9111,-12.8728,-12.7241,-12.4427,-11.8545,-11.4569,-11.3486,-11.4094,-11.5952,-11.9258,-12.2438,-12.6357,-13.1354,-13.289,-13.4262,-13.5587,-13.5912,-13.621,-13.6452,-13.5843,-13.5252,-13.5066,-13.4311,-13.3539,-13.2805,-13.2805,-13.1557,-12.9751,-12.9418,-12.8283,-12.6901,-12.7304,-12.7299,-12.7104,-12.729,-12.7988,-12.873,-12.7967,-12.7734,-12.7578,-12.6616,-12.6219,-12.5901,-12.5916,-12.6292,-12.6998,-12.7925,-12.9218,-13.0267,-13.0078,-13.0569,-13.0909,-13.0306,-13.0447,-13.0542,-13.0136,-13.0618,-13.0753,-12.9494,-12.9192,-12.8737,-12.7506,-12.735,-12.6894,-12.5695,-12.6169,-12.6846,-12.7099,-12.7906,-12.8532,-12.859,-12.8509,-12.8117,-12.7223,-12.6908,-12.609,-12.4803,-12.4335,-12.369,-12.2747,-12.238,-12.3101,-12.496,-12.5498,-12.6794,-12.9035,-12.9685,-12.9521,-12.8491,-12.9097,-12.9116,-12.857,-12.8219,-12.7508,-12.6677,-12.6024,-12.5631,-12.5278,-12.4202,-12.38,-12.4288,-12.7009,-12.806,-12.8266]},{"header":{"parameterUnit":"m.s-1","parameterCategory":1,"la1":30.6,"la2":28.766,"lo1":-90.7593,"lo2":-88.6598,"dy":0.0162,"dx":0.0183,"nx":116,"ny":114,"refTime":"2024-05-14T06:00:00:Z","depth":0,"parameterNumber":3,"parameterNumberName":"V-component_of_WINDS"},"data":[0.0,0.0,0.0,0.0,0.0,0.0,0.0,0.0,0.0,0.0,0.0,0.0,0.0,0.0,0.0,0.0,0.0,0.0,0.0,0.0,0.0,0.0,0.0,0.0,0.0,0.0,0.0,0.0,0.0,0.0,0.0,0.0,0.0,0.0,0.0,0.0,0.0,0.0,0.0,0.0,0.0,0.0,0.0,0.0,0.0,0.0,0.0,0.0,0.0,0.0,0.0,0.0,0.0,0.0,0.0,0.0,0.0,0.0,0.0,0.0,0.0,0.0,0.0,0.0,0.0,0.0,0.0,0.0,0.0,0.0,0.0,0.0,0.0,0.0,0.0,0.0,0.0,0.0,0.0,0.0,0.0,0.0,0.0,0.0,0.0,0.0,0.0,0.0,0.0,0.0,0.0,0.0,0.0,0.0,0.0,0.0,0.0,0.0,0.0,0.0,0.0,0.0,0.0,0.0,0.0,0.0,0.0,0.0,0.0,0.0,0.0,0.0,0.0,0.0,0.0,0.0,0.0,0.0,0.0,0.0,0.0,0.0,0.0,0.0,0.0,0.0,0.0,0.0,0.0,0.0,0.0,0.0,0.0,0.0,0.0,0.0,0.0,0.0,0.0,0.0,0.0,0.0,0.0,0.0,0.0,0.0,0.0,0.0,0.0,0.0,0.0,0.0,0.0,0.0,0.0,0.0,0.0,0.0,0.0,0.0,0.0,0.0,0.0,0.0,0.0,0.0,0.0,0.0,0.0,0.0,0.0,0.0,0.0,0.0,0.0,0.0,0.0,0.0,0.0,0.0,0.0,0.0,0.0,0.0,0.0,0.0,0.0,0.0,0.0,0.0,0.0,0.0,0.0,0.0,0.0,0.0,0.0,0.0,0.0,0.0,0.0,0.0,0.0,0.0,0.0,0.0,0.0,0.0,0.0,0.0,0.0,0.0,0.0,0.0,0.0,0.0,0.0,0.0,0.0,0.0,0.0,0.0,0.0,0.0,0.0,0.0,0.0,0.0,0.0,0.0,0.0,0.0,0.0,0.0,0.0,0.0,0.0,0.0,0.0,0.0,0.0,0.0,0.0,0.0,0.0,0.0,0.0,0.0,0.0,0.0,0.0,0.0,0.0,0.0,0.0,0.0,0.0,0.0,0.0,0.0,0.0,0.0,0.0,0.0,0.0,0.0,0.0,0.0,0.0,0.0,0.0,0.0,0.0,0.0,0.0,0.0,0.0,0.0,0.0,0.0,0.0,0.0,0.0,0.0,0.0,0.0,0.0,0.0,0.0,0.0,0.0,0.0,0.0,0.0,0.0,0.0,0.0,0.0,0.0,0.0,0.0,0.0,0.0,0.0,0.0,0.0,0.0,0.0,0.0,0.0,0.0,0.0,0.0,0.0,0.0,0.0,0.0,0.0,0.0,0.0,0.0,0.0,0.0,0.0,0.0,0.0,0.0,0.0,0.0,0.0,0.0,0.0,0.0,0.0,0.0,0.0,0.0,0.0,0.0,0.0,0.0,0.0,0.0,0.0,0.0,0.0,0.0,0.0,0.0,0.0,0.0,0.0,0.0,0.0,0.0,0.0,0.0,0.0,0.0,0.0,0.0,0.0,0.0,0.0,0.0,0.0,0.0,0.0,0.0,0.0,0.0,0.0,0.0,0.0,0.0,0.0,0.0,0.0,0.0,0.0,0.0,0.0,0.0,0.0,0.0,0.0,0.0,0.0,0.0,0.0,0.0,0.0,0.0,0.0,0.0,0.0,0.0,0.0,0.0,0.0,0.0,0.0,0.0,0.0,0.0,0.0,0.0,0.0,0.0,0.0,0.0,0.0,0.0,0.0,0.0,0.0,0.0,0.0,0.0,0.0,0.0,0.0,0.0,0.0,0.0,0.0,0.0,0.0,0.0,0.0,0.0,0.0,0.0,0.0,0.0,0.0,0.0,0.0,0.0,0.0,0.0,0.0,0.0,0.0,0.0,0.0,0.0,0.0,0.0,0.0,0.0,0.0,0.0,0.0,0.0,0.0,0.0,0.0,0.0,0.0,0.0,0.0,0.0,0.0,0.0,0.0,0.0,0.0,0.0,0.0,0.0,0.0,0.0,0.0,0.0,0.0,0.0,0.0,0.0,0.0,0.0,0.0,0.0,0.0,0.0,0.0,0.0,0.0,0.0,0.0,0.0,0.0,0.0,0.0,0.0,0.0,0.0,0.0,0.0,0.0,0.0,0.0,0.0,0.0,0.0,0.0,0.0,0.0,0.0,0.0,0.0,0.0,0.0,0.0,0.0,0.0,0.0,0.0,0.0,0.0,0.0,0.0,0.0,0.0,0.0,0.0,0.0,0.0,0.0,0.0,0.0,0.0,0.0,0.0,0.0,0.0,0.0,0.0,0.0,0.0,0.0,0.0,0.0,0.0,0.0,0.0,0.0,0.0,0.0,0.0,0.0,0.0,0.0,0.0,0.0,0.0,0.0,0.0,0.0,0.0,0.0,0.0,0.0,0.0,0.0,0.0,0.0,0.0,0.0,0.0,0.0,0.0,0.0,0.0,0.0,0.0,0.0,0.0,0.0,0.0,0.0,0.0,0.0,0.0,0.0,0.0,0.0,0.0,0.0,0.0,0.0,0.0,0.0,0.0,0.0,0.0,0.0,0.0,0.0,0.0,0.0,0.0,0.0,0.0,0.0,0.0,0.0,0.0,0.0,0.0,0.0,0.0,0.0,0.0,0.0,0.0,0.0,0.0,0.0,0.0,0.0,0.0,0.0,0.0,0.0,0.0,0.0,0.0,0.0,0.0,0.0,0.0,0.0,0.0,0.0,0.0,0.0,0.0,0.0,0.0,0.0,0.0,0.0,0.0,0.0,0.0,0.0,0.0,0.0,0.0,0.0,0.0,0.0,0.0,0.0,0.0,0.0,0.0,0.0,0.0,0.0,0.0,0.0,0.0,0.0,0.0,0.0,0.0,0.0,0.0,0.0,0.0,0.0,0.0,0.0,0.0,0.0,0.0,0.0,0.0,0.0,0.0,0.0,0.0,0.0,0.0,0.0,0.0,0.0,0.0,0.0,0.0,0.0,0.0,0.0,0.0,0.0,0.0,0.0,0.0,0.0,0.0,0.0,0.0,0.0,0.0,0.0,0.0,0.0,0.0,0.0,0.0,0.0,0.0,0.0,0.0,0.0,0.0,0.0,0.0,0.0,0.0,0.0,0.0,0.0,0.0,0.0,0.0,0.0,0.0,0.0,0.0,0.0,0.0,0.0,0.0,0.0,0.0,0.0,0.0,0.0,0.0,0.0,0.0,0.0,0.0,0.0,0.0,0.0,0.0,0.0,0.0,0.0,0.0,0.0,0.0,0.0,0.0,0.0,0.0,0.0,0.0,0.0,0.0,0.0,0.0,0.0,0.0,0.0,0.0,0.0,0.0,0.0,0.0,0.0,0.0,0.0,0.0,0.0,0.0,0.0,0.0,0.0,0.0,0.0,0.0,0.0,0.0,0.0,0.0,0.0,0.0,0.0,0.0,0.0,0.0,0.0,0.0,0.0,0.0,0.0,0.0,0.0,0.0,0.0,0.0,0.0,0.0,0.0,0.0,0.0,0.0,0.0,0.0,0.0,0.0,0.0,0.0,0.0,0.0,0.0,0.0,0.0,0.0,0.0,0.0,0.0,0.0,0.0,0.0,0.0,0.0,0.0,0.0,0.0,0.0,0.0,0.0,0.0,0.0,0.0,0.0,0.0,0.0,0.0,0.0,0.0,0.0,0.0,0.0,0.0,0.0,0.0,0.0,0.0,0.0,0.0,0.0,0.0,0.0,0.0,0.0,0.0,0.0,0.0,0.0,0.0,0.0,0.0,0.0,0.0,0.0,0.0,0.0,0.0,0.0,0.0,0.0,0.0,0.0,0.0,0.0,0.0,0.0,0.0,0.0,0.0,0.0,0.0,0.0,0.0,0.0,0.0,0.0,0.0,0.0,0.0,0.0,0.0,0.0,0.0,0.0,0.0,0.0,0.0,0.0,0.0,0.0,0.0,0.0,0.0,0.0,0.0,0.0,0.0,0.0,0.0,0.0,0.0,0.0,0.0,0.0,0.0,0.0,0.0,0.0,0.0,0.0,0.0,0.0,0.0,0.0,0.0,0.0,0.0,0.0,0.0,0.0,0.0,0.0,0.0,0.0,0.0,0.0,0.0,0.0,0.0,0.0,0.0,0.0,0.0,0.0,0.0,0.0,0.0,0.0,0.0,0.0,0.0,0.0,0.0,0.0,0.0,0.0,0.0,0.0,0.0,0.0,0.0,0.0,0.0,0.0,0.0,0.0,0.0,0.0,0.0,0.0,0.0,0.0,0.0,0.0,0.0,0.0,0.0,0.0,0.0,0.0,0.0,0.0,0.0,0.0,0.0,0.0,0.0,0.0,0.0,0.0,0.0,0.0,0.0,0.0,0.0,0.0,0.0,0.0,0.0,0.0,0.0,0.0,0.0,0.0,0.0,0.0,0.0,0.0,0.0,0.0,0.0,0.0,0.0,0.0,0.0,0.0,0.0,0.0,0.0,0.0,0.0,0.0,0.0,0.0,0.0,0.0,0.0,0.0,0.0,0.0,0.0,0.0,0.0,0.0,0.0,0.0,0.0,0.0,0.0,0.0,0.0,0.0,0.0,0.0,0.0,0.0,0.0,0.0,0.0,0.0,0.0,0.0,0.0,0.0,0.0,0.0,0.0,0.0,0.0,0.0,0.0,0.0,0.0,0.0,0.0,0.0,0.0,0.0,0.0,0.0,0.0,0.0,0.0,0.0,0.0,0.0,0.0,0.0,0.0,0.0,0.0,0.0,0.0,0.0,0.0,0.0,0.0,0.0,0.0,0.0,0.0,0.0,0.0,0.0,0.0,0.0,0.0,0.0,0.0,0.0,0.0,0.0,0.0,0.0,0.0,0.0,0.0,0.0,0.0,0.0,0.0,0.0,0.0,0.0,0.0,0.0,0.0,0.0,0.0,0.0,0.0,0.0,0.0,0.0,0.0,0.0,0.0,0.0,0.0,0.0,0.0,0.0,0.0,0.0,0.0,0.0,0.0,0.0,0.0,0.0,0.0,0.0,0.0,0.0,0.0,0.0,0.0,0.0,0.0,0.0,0.0,0.0,0.0,0.0,0.0,0.0,0.0,0.0,0.0,0.0,0.0,0.0,0.0,0.0,0.0,0.0,0.0,0.0,0.0,0.0,0.0,0.0,0.0,0.0,0.0,0.0,0.0,0.0,0.0,0.0,0.0,0.0,0.0,0.0,0.0,0.0,0.0,0.0,0.0,0.0,0.0,0.0,0.0,0.0,0.0,0.0,0.0,0.0,0.0,0.0,0.0,0.0,0.0,0.0,0.0,0.0,0.0,0.0,0.0,0.0,0.0,0.0,0.0,0.0,0.0,0.0,0.0,0.0,0.0,0.0,0.0,0.0,0.0,0.0,0.0,0.0,0.0,0.0,0.0,0.0,0.0,0.0,0.0,0.0,0.0,0.0,0.0,0.0,0.0,0.0,0.0,0.0,0.0,0.0,0.0,0.0,0.0,0.0,0.0,0.0,0.0,0.0,0.0,0.0,0.0,0.0,0.0,0.0,0.0,0.0,0.0,0.0,0.0,0.0,0.0,0.0,0.0,0.0,0.0,0.0,0.0,0.0,0.0,0.0,0.0,0.0,0.0,0.0,0.0,0.0,0.0,0.0,0.0,0.0,0.0,0.0,0.0,0.0,0.0,0.0,0.0,0.0,0.0,0.0,0.0,0.0,0.0,0.0,0.0,0.0,0.0,0.0,0.0,0.0,0.0,0.0,0.0,0.0,0.0,0.0,0.0,0.0,0.0,0.0,0.0,0.0,0.0,0.0,0.0,0.0,0.0,0.0,0.0,0.0,0.0,0.0,0.0,0.0,0.0,0.0,0.0,0.0,0.0,0.0,0.0,0.0,0.0,0.0,0.0,0.0,0.0,0.0,0.0,0.0,0.0,0.0,0.0,0.0,0.0,0.0,0.0,0.0,0.0,0.0,0.0,0.0,0.0,0.0,0.0,0.0,0.0,0.0,0.0,0.0,0.0,0.0,0.0,0.0,0.0,0.0,0.0,0.0,6.4709,0.0,0.0,0.0,0.0,0.0,0.0,0.0,0.0,0.0,0.0,0.0,0.0,0.0,0.0,0.0,0.0,0.0,0.0,0.0,0.0,0.0,0.0,0.0,0.0,0.9461,1.0774,1.2116,1.3243,1.4448,1.556,0.0,0.0,0.0,0.0,0.0,1.8178,1.9742,2.2058,2.5295,3.0702,4.0579,5.4377,5.1513,4.6598,3.9821,0.0,0.0,0.0,0.0,0.0,0.0,0.0,0.0,0.0,0.0,0.0,0.0,0.0,0.0,0.0,0.0,0.0,0.0,0.0,0.0,0.0,0.0,0.0,0.0,0.0,0.0,0.0,0.0,0.0,0.0,0.0,0.0,0.0,0.0,0.0,0.0,0.0,0.0,0.0,0.0,0.0,0.0,0.0,0.0,0.0,0.0,0.0,0.0,0.0,0.0,0.0,0.0,0.0,0.0,0.0,0.0,0.0,0.0,0.0,0.0,0.0,0.0,0.0,0.0,0.0,0.0,0.0,0.0,0.0,0.0,0.0,7.078,0.0,0.0,0.0,0.0,0.0,0.0,0.0,0.0,0.0,0.0,0.0,0.0,0.0,0.0,0.0,0.0,0.0,0.0,0.0,0.0,0.0,0.9685,1.015,1.1362,1.2858,1.4587,1.556,1.6613,1.7744,1.6759,0.0,0.0,1.7371,1.814,2.0685,2.1274,2.4161,2.9741,4.1518,5.5197,7.0354,7.2579,6.7021,5.4847,4.5543,0.0,0.0,0.0,0.0,0.0,0.0,0.0,0.0,0.0,0.0,0.0,0.0,0.0,0.0,0.0,0.0,0.0,0.0,0.0,0.0,0.0,0.0,0.0,0.0,0.0,0.0,0.0,0.0,0.0,0.0,0.0,0.0,0.0,0.0,0.0,0.0,0.0,0.0,0.0,0.0,0.0,0.0,0.0,0.0,0.0,0.0,0.0,0.0,0.0,0.0,0.0,0.0,0.0,0.0,0.0,0.0,0.0,0.0,0.0,0.0,0.0,0.0,0.0,8.0414,8.2968,8.3766,8.3932,8.6799,9.1299,8.8826,8.6895,8.5019,7.7536,0.0,0.0,0.0,0.0,0.0,0.0,0.0,0.0,0.0,0.0,0.0,0.0,0.0,0.0,0.0,0.0,0.0,0.0,0.0,1.0079,1.1226,1.2612,1.4526,1.7171,1.7531,1.8313,1.9805,1.882,1.8291,1.8496,1.9262,1.9925,2.0286,2.2562,2.8811,3.9219,6.2223,7.7217,8.4462,8.7207,8.785,8.58,7.0801,5.9704,5.2146,0.0,0.0,0.0,0.0,0.0,0.0,0.0,0.0,0.0,0.0,0.0,0.0,0.0,0.0,0.0,0.0,0.0,0.0,0.0,0.0,0.0,0.0,0.0,0.0,0.0,0.0,0.0,0.0,0.0,0.0,0.0,0.0,0.0,0.0,0.0,0.0,0.0,0.0,0.0,0.0,0.0,5.7499,5.9558,0.0,0.0,0.0,0.0,0.0,0.0,0.0,0.0,0.0,0.0,0.0,0.0,0.0,6.1925,7.2078,7.6587,8.2717,9.0843,9.8536,9.9705,9.5589,9.9762,10.0032,9.7558,10.0184,0.0,9.6368,8.8182,0.0,0.0,0.0,0.0,0.0,0.0,0.0,0.0,0.0,0.0,0.0,0.0,0.0,0.0,0.0,0.0,0.0,0.0,0.0,0.0,0.0,2.1547,2.5979,2.7406,3.29,3.4511,3.0644,2.8848,2.6284,2.2692,2.2489,2.2389,2.2195,2.901,4.1531,6.0021,7.6032,8.9176,9.9768,10.2905,10.459,10.4363,9.6374,8.2096,6.3901,6.1365,0.0,0.0,0.0,0.0,0.0,0.0,0.0,0.0,0.0,0.0,0.0,0.0,0.0,0.0,0.0,0.0,0.0,0.0,0.0,0.0,0.0,0.0,0.0,0.0,0.0,0.0,0.0,0.0,0.0,0.0,0.0,0.0,0.0,0.0,0.0,0.0,0.0,0.0,0.0,5.5457,6.3073,6.6036,6.4881,6.1617,0.0,0.0,0.0,0.0,0.0,0.0,0.0,0.0,0.0,6.3633,6.582,7.1226,8.0314,8.4952,8.9725,9.4938,10.1048,10.3075,10.1894,10.6544,10.6324,10.2527,10.8696,10.8901,10.3833,9.8989,9.3455,8.7178,0.0,0.0,0.0,0.0,6.9702,7.0907,0.0,0.0,0.0,0.0,0.0,0.0,0.0,0.0,0.0,0.0,0.0,0.0,2.3805,3.3282,3.9734,4.0616,4.7848,4.8862,4.0424,3.7722,3.3526,2.7047,2.5495,2.4766,2.473,3.8523,5.634,7.8111,8.807,9.92,11.1241,11.4889,11.6665,11.6729,11.5305,10.0845,7.7534,7.4431,6.7945,5.9621,0.0,0.0,0.0,0.0,0.0,0.0,0.0,0.0,0.0,0.0,0.0,0.0,0.0,0.0,0.0,0.0,0.0,0.0,0.0,0.0,0.0,0.0,0.0,0.0,0.0,0.0,0.0,0.0,0.0,0.0,0.0,0.0,0.0,0.0,0.0,0.0,0.0,5.9307,6.8748,7.1811,7.2615,7.0656,0.0,0.0,0.0,0.0,0.0,0.0,6.1053,6.2085,6.6278,7.3789,7.6015,8.0039,8.6133,9.0176,9.3156,9.5052,9.9408,10.1878,10.2346,10.6513,10.6095,10.2129,10.9521,11.0842,10.7262,10.6878,10.2093,9.4962,9.0542,8.542,8.0599,8.1403,8.1654,8.2809,0.0,0.0,0.0,0.0,0.0,0.0,0.0,0.0,0.0,0.0,0.0,3.2345,3.7017,4.6803,5.3707,5.5628,5.7081,5.4046,4.4954,4.1853,3.7215,3.0001,2.7589,2.6579,2.7115,5.1347,7.1333,8.6685,9.9929,10.9517,11.5855,12.0403,12.2932,12.3573,12.3444,11.2859,9.4977,8.8471,8.1482,7.3835,6.3142,0.0,0.0,0.0,0.0,0.0,0.0,0.0,0.0,0.0,0.0,0.0,0.0,0.0,0.0,0.0,0.0,0.0,0.0,0.0,0.0,0.0,0.0,0.0,0.0,0.0,0.0,0.0,0.0,0.0,0.0,0.0,0.0,0.0,0.0,0.0,0.0,0.0,0.0,7.5126,8.6023,0.0,0.0,0.0,0.0,6.3929,6.1264,6.329,7.059,7.3094,7.7493,8.4492,8.6445,8.8125,8.9726,9.1006,9.1908,9.281,9.7514,9.8048,9.4457,9.8739,9.8187,9.4139,9.8377,10.2173,10.5518,10.9092,10.9274,10.6461,9.6267,9.2401,9.2551,9.2551,9.3254,9.5213,0.0,0.0,0.0,0.0,0.0,1.4279,1.4503,1.6845,1.8773,1.9475,2.8233,3.6367,4.135,5.6604,6.7266,6.944,7.6196,7.6289,6.6867,5.7667,4.9319,4.2153,3.4287,3.7064,5.1753,6.9651,8.5187,9.8444,10.6635,11.3093,11.7949,12.2879,12.5624,12.6777,12.9007,12.5093,11.6245,10.5829,9.6557,8.8494,8.0139,6.9842,0.0,0.0,0.0,0.0,0.0,0.0,0.0,0.0,0.0,0.0,0.0,0.0,0.0,0.0,0.0,0.0,0.0,0.0,0.0,0.0,0.0,0.0,0.0,0.0,0.0,0.0,0.0,0.0,0.0,0.0,0.0,0.0,0.0,0.0,0.0,0.0,0.0,8.2056,8.7931,0.0,8.3512,7.8156,7.45,7.3031,7.3558,7.5848,8.0036,8.2327,8.4972,8.8281,8.9531,9.0508,9.1289,9.1836,9.2422,9.3008,9.5117,9.5555,9.4258,9.8583,9.803,9.3947,10.0546,10.4055,10.5723,10.9644,11.1802,11.2036,10.7215,10.5507,10.5708,10.606,10.621,10.6612,0.0,0.0,0.0,1.1997,1.3514,1.4794,1.5192,1.7839,2.071,2.3262,3.3731,4.3976,5.1656,6.8688,8.042,8.2852,8.9983,8.8771,7.586,6.553,5.5508,4.542,4.0962,4.9717,7.3421,8.3497,9.4855,10.8179,11.1649,11.5517,11.9746,12.4721,12.7997,13.0122,13.313,13.3636,13.1591,12.076,11.0943,10.2032,9.2971,8.0788,6.7336,0.0,0.0,0.0,0.0,0.0,0.0,0.0,0.0,0.0,0.0,0.0,0.0,0.0,0.0,0.0,0.0,0.0,0.0,0.0,0.0,0.0,0.0,0.0,0.0,0.0,0.0,0.0,0.0,0.0,0.0,0.0,0.0,0.0,0.0,0.0,8.532,8.6425,9.23,9.4617,9.0317,8.5694,8.2618,8.1842,8.3044,8.4414,8.6094,8.7929,8.9492,9.0625,9.1406,9.1914,9.2187,9.25,9.289,9.3476,9.375,9.4101,9.4492,9.7122,9.6408,9.3751,9.9185,10.2098,10.3547,10.8005,11.1319,11.3887,11.375,11.3944,11.4095,11.4295,11.4044,11.3442,0.0,1.0668,1.1971,1.2164,1.3595,1.4828,1.5159,1.7532,2.169,2.8384,4.1851,5.5443,6.8029,8.2611,9.2665,9.5327,9.6697,8.9546,7.0591,6.4279,5.4569,3.9536,4.7819,6.4513,8.9665,9.2453,10.0732,11.529,11.5335,11.7482,12.1577,12.6315,13.0635,13.4404,13.5921,13.7954,13.9833,13.2635,12.434,11.4674,10.0907,9.0244,8.1278,0.0,0.0,0.0,0.0,0.0,0.0,0.0,0.0,0.0,0.0,0.0,0.0,0.0,0.0,0.0,0.0,0.0,0.0,0.0,0.0,0.0,0.0,0.0,0.0,0.0,0.0,0.0,0.0,0.0,0.0,0.0,0.0,0.0,6.9506,8.1051,8.9337,8.8433,10.0184,10.5187,9.7219,9.672,9.4844,9.0191,8.8561,8.7929,8.8789,9.0,9.1054,9.1953,9.2383,9.2617,9.2617,9.2617,9.3008,9.3867,9.3867,9.4101,9.4453,9.4062,9.3398,9.2617,9.2617,9.504,9.9235,10.3967,10.8143,11.216,11.538,11.6957,11.7308,11.6806,11.6204,11.54,0.8201,0.9766,1.1083,1.0961,1.2627,1.4183,1.4722,1.7346,2.2443,3.133,4.377,5.6522,6.8573,8.2903,9.2948,9.5884,9.7404,9.3085,8.0707,6.8969,5.832,4.8783,6.816,8.4359,9.5137,10.387,11.2372,12.0784,11.8829,12.0644,12.5483,12.9792,13.3383,13.5987,13.9441,14.107,14.0889,13.6836,13.3283,12.8813,11.6892,10.7194,9.8618,0.0,0.0,0.0,0.0,0.0,0.0,0.0,0.0,0.0,0.0,0.0,0.0,0.0,0.0,0.0,0.0,0.0,0.0,0.0,0.0,0.0,0.0,0.0,0.0,0.0,0.0,0.0,0.0,0.0,0.0,0.0,6.792,7.7144,8.2292,9.2149,10.0084,10.3398,10.8219,10.9631,10.4773,10.1729,9.8447,9.4237,9.1047,8.9726,9.0586,9.0937,9.1406,9.1992,9.2109,9.2148,9.2148,9.2422,9.3008,9.3867,9.3867,9.3945,9.4062,9.3945,9.3398,9.2617,9.2617,9.6842,10.3967,10.5468,11.0129,11.652,11.7554,11.761,11.7409,11.7208,11.6304,11.4898,0.766,0.8995,1.014,0.9933,1.1694,1.3201,1.3565,1.6525,2.2897,3.456,4.5136,5.7095,7.153,8.2704,9.0985,9.5367,9.2913,8.7333,7.8473,6.5098,6.0046,6.5859,8.1181,9.4688,10.5665,11.3356,11.9827,12.4927,12.3071,12.4661,12.9917,13.2736,13.5621,13.8205,14.1272,14.2217,14.1295,13.9825,13.8739,13.7221,13.003,12.0428,11.0229,10.4321,9.7113,8.9873,8.6629,8.56,8.444,7.586,0.0,0.0,0.0,0.0,0.0,0.0,0.0,0.0,0.0,0.0,0.0,0.0,0.0,0.0,0.0,0.0,0.0,0.0,0.0,0.0,0.0,0.0,0.0,0.0,7.4584,8.3409,9.1853,9.8892,10.4342,10.8118,10.9981,10.8734,10.3528,10.1245,9.8264,9.405,9.1912,9.1054,9.1562,9.1797,9.1953,9.2226,9.2265,9.2265,9.2265,9.25,9.2969,9.3594,9.5628,9.6288,9.6328,9.8295,9.8792,0.0,9.8169,10.1134,10.5857,10.7675,11.095,0.0,0.0,0.0,0.0,0.0,11.5601,11.4044,0.741,0.8337,0.913,0.911,1.0587,1.1918,1.1965,1.5051,2.2612,3.7228,4.5405,5.677,7.4372,8.1533,8.7374,9.3095,8.5477,7.7104,6.9321,5.8776,6.2508,8.4374,8.9437,9.974,11.7201,12.0135,12.3546,12.747,12.6383,12.825,13.3282,13.436,13.6535,13.9833,14.0822,14.1159,14.0553,14.0801,14.1048,14.0913,13.8929,13.0822,11.9228,11.3092,10.7522,10.2164,9.8037,9.5587,9.3696,9.0085,0.0,0.0,0.0,0.0,0.0,0.0,0.0,0.0,0.0,0.0,0.0,0.0,0.0,0.0,0.0,0.0,0.0,0.0,0.0,0.0,0.0,0.0,0.0,0.0,8.2203,8.9521,9.8012,10.1363,10.3653,10.6141,10.765,10.5529,9.7925,9.7386,9.6034,9.179,9.1836,9.2031,9.2031,0.0,0.0,0.0,0.0,9.2539,9.2539,9.2888,9.3513,9.3867,9.8573,10.0545,10.0545,10.4849,10.6022,10.5081,10.5574,10.5902,10.6151,11.0544,11.1939,11.166,11.6024,11.7509,11.7007,11.5802,11.4446,11.304,0.6645,0.7379,0.8031,0.7724,0.8861,1.0021,1.0599,1.2709,1.9945,3.599,4.2025,5.1693,6.9839,7.6783,8.189,8.6636,8.155,7.4428,6.5673,6.8679,7.5102,8.5288,9.7631,10.8314,11.6987,11.8734,12.1659,12.6133,12.4432,12.6824,13.3032,13.2322,13.3489,13.6031,13.4919,13.42,13.4268,13.6524,13.7675,13.826,13.887,13.6931,13.3687,13.0052,12.7213,12.4829,12.219,12.1361,11.9569,10.5619,10.1658,10.1623,9.5226,9.0287,0.0,0.0,0.0,0.0,0.0,0.0,0.0,0.0,0.0,0.0,0.0,0.0,0.0,0.0,0.0,0.0,0.0,0.0,0.0,7.3019,8.1427,8.9407,9.6234,9.7922,9.9719,10.3615,10.4659,10.3297,9.8561,9.8687,9.702,9.2653,9.2422,9.25,9.25,9.2265,9.2109,9.2109,9.2109,9.2109,9.2109,9.6074,9.8159,9.8614,0.0,0.0,10.4652,10.6004,10.6022,10.5081,10.5574,10.7721,11.0912,11.1541,11.2839,11.4742,11.535,11.5501,11.5199,11.3592,11.2839,11.2287,0.7057,0.7331,0.7401,0.6889,0.7315,0.8014,0.8896,1.0492,1.6477,3.0238,3.4886,4.2266,5.6422,6.1365,6.5124,6.8819,6.6918,6.5223,6.4426,6.7643,7.6657,9.2435,9.8572,10.5177,11.2605,11.5312,11.8146,12.1172,12.1147,12.3459,12.7708,12.7384,12.782,12.9013,12.8568,12.8052,12.8018,13.1516,13.3048,13.3507,13.57,13.659,13.5931,13.4044,13.3179,13.2402,12.9059,12.7977,12.6681,11.7468,11.2889,11.0355,10.4774,9.9589,9.3041,0.0,0.0,0.0,0.0,0.0,0.0,0.0,0.0,0.0,0.0,0.0,0.0,0.0,0.0,6.5289,6.4338,0.0,7.4347,7.9439,8.457,8.938,9.3649,9.4473,9.629,10.0439,10.132,10.0162,9.6521,9.6459,9.5497,9.2929,9.3125,9.3125,9.2929,9.2929,9.2851,9.2617,9.2617,9.25,9.2304,9.6842,9.9358,9.961,10.6201,10.9346,10.9115,11.1705,11.2478,11.205,11.2288,11.3753,11.5649,11.4573,11.4776,11.5551,11.4195,11.3592,11.3542,11.2739,11.1734,11.0292,0.7769,0.7368,0.6798,0.6073,0.5764,0.5983,0.7011,0.8362,1.293,2.3425,2.7103,3.2505,4.2677,4.5433,4.7477,4.9616,5.3149,5.732,6.217,6.5064,7.6021,9.6996,9.5654,9.8197,10.6215,11.0235,11.2987,11.4567,11.7064,11.9505,12.1605,12.1809,12.2104,12.2386,12.2518,12.2286,12.1874,12.5778,12.7479,12.7823,13.098,13.2223,13.2179,13.0623,13.1738,13.3348,12.9926,12.6646,12.409,12.3501,11.8529,11.1897,10.9404,10.5387,9.8267,8.0686,7.9366,0.0,0.0,0.0,0.0,0.0,0.0,0.0,0.0,7.2555,7.1876,7.0102,7.1099,7.2503,7.4371,7.5532,7.875,8.6679,8.875,9.0,9.1836,9.2109,9.3577,9.7308,9.8035,9.6643,9.4025,9.3828,9.375,9.3515,9.3711,9.375,9.3515,9.375,9.3711,9.3359,9.3359,9.3516,9.4053,9.8335,10.0968,10.1893,10.981,11.3753,11.3705,11.7362,11.9016,11.9016,11.8966,11.8765,11.8463,11.7007,11.5902,11.4898,11.309,11.2136,11.1785,11.1785,11.0529,10.8055,0.7673,0.6678,0.5738,0.498,0.4059,0.3826,0.4913,0.6284,1.0149,1.8252,2.096,2.6232,3.6852,3.8477,3.8519,3.7658,5.1711,5.9019,5.5565,6.8838,8.0394,8.8656,8.9472,9.2329,9.8016,10.2394,10.54,10.7595,11.2862,11.6519,11.9296,11.7983,11.8152,11.998,11.7511,11.6433,11.6627,11.9487,12.1103,12.1928,12.326,12.4501,12.4636,12.1107,12.5208,13.3261,13.2024,12.4466,11.5321,11.8614,11.2503,10.4123,10.7227,10.5213,9.9369,8.9939,8.3076,7.5169,5.9908,5.6116,5.8349,6.6499,6.9155,7.4314,0.0,9.0593,8.6739,8.8873,9.0235,8.9791,8.4332,8.4961,8.7187,8.9375,9.0781,9.1797,9.2422,9.2539,9.3006,9.3749,9.3828,9.3555,9.332,9.3633,9.3984,9.4336,9.4062,9.3984,9.4336,9.4062,9.3867,9.3828,9.3828,9.5628,9.9177,10.3508,10.7566,11.11,11.5747,11.8396,11.8396,11.8756,11.9016,11.9016,11.8514,11.771,11.6806,11.6103,11.4597,11.2739,11.2538,11.1182,10.9475,10.9475,10.8671,10.6906,0.7886,0.5815,0.416,0.3818,0.2891,0.2826,0.4535,0.4854,0.678,1.2047,1.3599,1.6226,2.1481,2.3698,2.5121,2.5729,3.8855,4.8554,5.2038,6.3249,7.4671,8.5293,8.4558,8.6346,9.137,9.3815,9.6976,10.0729,10.4086,10.7513,11.1251,11.1417,11.1786,11.2636,11.1308,11.0929,11.1145,11.4207,11.5502,11.6126,11.8343,11.9587,11.9458,11.6763,11.7613,11.9764,11.6197,11.0637,0.0,10.7428,10.3399,9.8329,10.4162,9.9808,9.141,8.6658,7.9807,7.3559,7.1845,7.0367,7.1811,8.1604,8.5571,8.9387,9.8176,9.9331,9.7938,9.5271,9.6266,9.5495,8.8829,8.8437,8.9648,9.0937,9.164,9.2148,9.2539,9.2383,9.2109,9.1797,9.2187,9.2773,9.3515,9.4219,9.4531,9.4179,9.4453,9.457,9.4492,9.457,9.4531,9.4258,9.6379,9.8377,9.9946,10.6622,11.0643,11.243,11.6737,11.9016,11.9016,11.9016,11.8865,11.8514,11.8012,11.7108,11.6003,11.4798,11.3391,11.1835,11.0881,10.9525,10.8219,10.8872,10.8169,10.5978,0.8008,0.5532,0.3522,0.3624,0.2765,0.2624,0.4281,0.4146,0.4884,0.7812,0.8723,0.9883,1.1608,1.3764,1.5803,1.7733,2.7723,3.7726,4.6406,5.6329,6.7235,7.9089,7.9333,8.1113,8.5248,8.733,9.0607,9.5732,9.8407,10.2045,10.6311,10.7416,10.7918,10.7918,10.7918,10.7918,10.8198,11.0492,11.1431,11.1494,11.354,11.4055,11.33,11.1506,10.7887,10.3944,10.1719,9.8018,9.4047,9.3982,9.0077,8.6798,9.3738,8.9663,8.2206,8.0248,7.377,6.8949,7.6883,7.8691,8.0901,9.1296,9.7623,10.159,10.3047,10.5708,10.6237,10.0638,9.9873,9.8438,9.2528,9.0544,9.0117,9.1562,9.1914,9.2109,9.2383,9.1992,9.125,9.0234,9.0586,9.1328,9.2383,9.3867,9.4687,9.4453,9.4883,9.5156,9.5039,9.5117,9.5677,9.6232,9.926,10.1522,10.3595,10.9531,11.3212,11.4387,11.7412,11.9016,11.9016,11.8865,11.8463,11.771,11.7007,11.6053,11.4898,11.3291,11.1935,11.078,10.9424,10.8068,10.7114,10.7918,10.7215,10.4754,0.8008,0.6073,0.4721,0.4834,0.404,0.3396,0.3403,0.4371,0.5477,0.682,0.8312,1.0301,1.2813,1.3344,1.4068,1.5391,2.2423,2.9782,3.6786,4.9789,6.0446,6.712,7.2582,7.6499,7.8655,8.3207,8.8396,9.3541,9.8864,10.3548,10.7516,10.852,10.9023,10.9023,10.9023,10.9023,10.9023,10.9306,10.9004,10.85,10.7997,10.6738,10.5026,10.2207,9.546,8.8357,9.5326,9.0201,8.007,7.8786,7.2339,6.5895,7.2466,7.4364,7.372,7.2565,6.5233,5.9257,6.7593,7.1761,7.6582,8.8182,9.8828,10.7014,10.9173,11.1483,11.1959,10.819,10.4126,9.9873,9.6826,9.2195,8.9297,9.1054,9.1679,9.1992,9.1992,9.125,9.0234,8.8945,8.8437,8.8398,0.0,9.1914,9.4453,9.5664,9.539,9.5508,9.6367,9.5625,9.7026,10.0636,10.09,10.4848,11.2547,11.2869,11.4919,11.8706,11.9016,11.9016,11.9016,11.8463,11.761,11.6555,11.5501,11.4396,11.3191,11.1533,11.0178,10.9073,10.8571,10.7315,10.5909,10.5909,10.5206,10.3114,0.7242,0.5836,0.4834,0.5028,0.4719,0.4592,0.4827,0.5074,0.6025,0.7997,0.9651,0.0,0.0,0.0,0.0,0.0,1.949,2.5541,3.2049,4.312,5.1931,5.795,6.3893,6.9367,7.3885,7.6092,8.1109,8.905,9.3946,9.8349,10.2861,10.5897,10.7667,10.8018,10.8018,10.8219,10.8571,10.8571,10.8269,10.7667,10.6361,10.2193,9.6418,9.3254,8.5521,7.6071,0.0,6.9374,6.5856,6.4691,6.2482,6.1406,6.8192,6.6739,6.2471,6.1718,6.3525,6.7844,7.7335,8.2708,8.8283,9.918,10.5959,11.0429,11.2287,11.3291,11.2605,10.8334,10.1168,9.5045,9.3337,8.742,8.3894,8.8222,8.9609,9.165,9.5723,9.5449,9.5344,9.6827,9.7431,0.0,0.0,0.0,0.0,9.3594,9.4336,9.6234,9.9587,9.9341,10.1109,10.5669,10.8034,11.0551,11.3191,11.5822,11.761,11.9016,11.8614,11.8463,11.8463,11.7911,11.6907,11.54,11.4295,11.299,11.1533,10.9826,10.852,10.7416,10.6913,10.5909,10.4704,10.4704,10.4252,10.2789,0.0,0.591,0.5554,0.5728,0.5762,0.0,0.0,0.0,0.0,0.0,0.0,0.0,0.0,0.0,0.0,0.0,0.0,2.1225,2.7321,3.5638,4.2869,4.8278,5.4465,5.9799,6.3901,6.4952,6.9129,7.7363,8.2674,8.7743,9.2797,9.968,10.316,10.3655,10.5058,10.606,10.6562,10.6311,10.4302,10.1138,9.9682,9.3656,8.5169,8.2005,7.4573,0.0,5.8604,5.5,5.324,5.244,5.2594,5.4311,6.0932,5.996,5.7047,6.006,6.4128,7.0556,8.4165,9.0492,9.5916,10.6813,11.1031,11.2789,11.3894,11.4095,11.2853,10.8794,10.1063,9.4335,9.219,8.6595,8.3587,8.7516,8.9893,9.3232,9.9121,9.8978,9.9048,10.1496,10.1542,10.1407,0.0,0.0,0.0,9.7144,9.6864,9.8522,10.3062,10.3447,10.5319,10.9501,11.1857,11.3786,11.5237,11.7561,11.8966,11.8715,11.8212,11.771,11.7308,11.6957,11.5651,11.3643,11.2789,11.1483,10.9776,10.8068,10.7014,10.6261,10.5507,10.4654,10.39,10.39,10.3549,10.251,0.0,0.0,0.658,0.0,0.0,0.0,0.0,0.0,0.0,0.0,0.0,0.0,0.0,0.0,0.0,0.0,0.0,0.0,2.2523,2.7901,3.3114,3.8418,4.4357,4.813,4.9511,5.0331,5.3623,5.945,6.6405,7.2718,7.8616,8.9328,9.4654,9.518,9.9107,10.0975,10.1476,10.0975,9.6217,8.9136,8.8032,8.1302,7.1711,6.8999,6.2822,5.5189,5.2578,4.7857,4.2785,4.2333,4.3419,4.5846,5.1823,5.4888,5.8052,6.7543,6.7493,6.8597,8.8032,9.5062,9.9481,11.0579,11.3693,11.4095,11.4044,11.3843,11.2688,10.8922,10.2641,9.6569,9.2322,8.8349,8.6587,8.8753,9.2018,9.6284,10.163,10.1722,10.1631,10.2666,10.1487,10.126,10.2621,10.2488,0.0,10.5902,0.0,10.2459,10.6897,10.7232,10.9375,11.3239,11.3465,11.5237,11.9016,11.9016,11.8715,11.8162,11.756,11.6706,11.5702,11.5601,11.4095,11.1584,11.0931,10.9726,10.8068,10.6411,10.5708,10.5558,10.4553,10.38,10.3298,10.3298,10.2946,10.201,0.0,0.0,0.0,0.0,0.0,0.0,0.0,0.0,0.0,0.0,0.0,0.0,0.0,0.0,0.0,0.0,0.0,0.0,1.7875,2.3022,2.6701,2.8372,3.4305,3.9358,4.3174,4.4417,4.7467,5.2586,5.7439,6.1479,6.4637,7.0352,7.393,7.5452,7.6455,7.7269,7.8015,7.8992,7.794,7.5524,7.5534,7.0204,6.2069,6.0111,5.3934,4.625,4.5547,4.3489,4.1229,4.1932,4.7046,5.4505,6.2734,6.6086,6.91,7.9344,8.3612,8.778,10.0285,10.6512,11.0178,11.3191,11.4044,11.3793,11.2538,11.0328,10.606,9.7322,8.7393,7.8349,7.3052,7.3427,7.63,8.1474,9.0778,9.9955,10.6871,10.7778,10.8838,11.1774,11.2384,11.2384,11.2079,10.9554,10.9692,0.0,10.7864,10.6201,11.1391,11.1763,11.3656,11.7891,11.7809,11.7873,11.9016,11.8614,11.8112,11.756,11.6605,11.6003,11.5702,11.4496,11.304,11.1533,10.9726,10.8219,10.6964,10.5256,10.4302,10.3951,10.3649,10.3197,10.2745,10.2745,10.2595,10.196,0.0,0.0,0.0,0.0,0.0,0.0,0.0,0.0,0.0,0.0,0.0,0.0,0.0,0.0,0.0,0.0,0.0,0.0,0.0,1.9319,2.1243,2.1537,2.5384,2.8785,3.1377,3.2399,3.4565,3.8186,4.3288,4.7068,5.0234,5.7074,6.1244,6.3263,6.5255,6.6535,6.7055,6.8342,6.6762,0.0,0.0,5.8704,5.0921,4.9766,4.625,4.1882,4.1882,4.394,4.7506,5.2729,5.996,6.7894,7.4623,7.7637,8.085,9.1898,9.4962,9.7171,10.7817,11.2688,11.4747,11.4546,11.3944,11.1734,10.5407,10.1791,9.6468,8.4968,7.6632,7.0824,6.8607,7.1529,7.6761,8.454,9.4426,10.3489,11.0885,11.2164,11.3622,11.7053,11.7007,11.6806,11.7509,11.4913,11.4654,0.0,11.186,11.0544,11.5165,11.5724,11.6866,11.9518,11.8966,11.8514,11.8313,11.7509,11.7007,11.6605,11.53,11.4546,11.4195,11.309,11.1684,11.0077,0.0,10.7165,10.5809,10.4403,10.3499,10.2996,10.2996,10.2645,10.2193,10.2444,10.1325,9.9707,0.0,0.0,0.0,0.0,0.0,0.0,0.0,0.0,0.0,0.0,1.4616,1.499,0.0,0.0,0.0,0.0,0.0,0.0,0.0,0.0,1.7154,1.7448,1.8544,1.9158,1.9239,1.9826,2.0981,2.2719,2.8099,3.2592,3.6563,4.5808,5.1194,5.3378,5.7429,5.9343,5.989,6.103,5.7638,5.1513,5.2377,4.8008,4.1078,0.0,4.0425,4.0425,4.0475,4.6401,5.5792,6.689,7.5176,8.1754,8.6676,8.9387,9.2852,10.3499,10.3398,10.2042,11.2387,11.5551,11.5802,11.5049,11.3442,10.8822,9.6569,9.1798,8.6073,7.2514,6.7945,6.7057,6.93,7.3252,7.9957,9.0533,9.8103,10.5407,11.294,11.4546,11.6153,11.9317,11.8012,11.756,11.9568,11.8413,11.7911,11.8865,11.5258,11.4387,11.8005,11.8715,11.8915,11.8815,11.8463,11.7911,11.7308,11.6204,11.5702,11.5551,11.3994,11.294,11.2437,11.1584,11.0228,10.842,10.7516,0.0,10.4905,10.3699,10.2946,10.2544,10.2544,10.2193,10.1892,10.2344,9.9978,9.6783,0.0,0.0,0.0,0.0,0.0,0.0,0.0,0.0,0.0,0.0,1.475,1.515,0.0,0.0,0.0,0.0,0.0,0.0,0.0,0.0,0.0,1.6834,1.7528,1.8116,1.8624,1.9212,1.9784,2.041,2.1645,2.4044,2.7255,2.948,3.2004,3.4886,3.6049,3.6593,3.6891,3.941,3.9785,3.8757,4.1286,4.1379,3.9973,3.9873,0.0,0.0,4.0375,4.5397,5.3934,6.7693,7.7687,8.6123,9.6418,10.1088,10.38,10.9073,11.0931,11.2086,11.5902,11.7007,11.6756,11.525,11.2287,10.6562,9.4309,8.8032,7.9746,6.1918,5.6495,5.4845,5.4369,5.7847,6.6716,8.4453,9.1669,9.9531,11.1684,11.4647,11.6304,11.8313,11.8162,11.8263,11.9116,11.8514,11.8112,0.0,11.8046,11.8246,11.8915,11.8514,11.8112,11.771,11.8012,11.771,11.6706,11.6003,11.5501,11.4998,11.3391,11.2538,11.2337,11.0429,10.9324,10.8822,10.6461,0.0,10.4905,10.3298,10.2595,10.2544,10.2544,10.2444,10.2394,10.2544,9.9978,9.6232,0.0,0.0,0.0,0.0,0.0,0.0,0.0,1.4669,1.5123,1.6055,1.6458,1.6443,1.5698,1.5738,1.5818,0.0,0.0,0.0,0.0,0.0,0.0,1.67,1.7261,1.7876,1.8464,1.8918,1.9693,2.0925,0.0,2.262,2.5777,2.6273,2.7755,2.9883,3.0586,3.0898,3.1092,3.409,3.5311,3.553,3.8477,3.9672,3.9672,3.9672,0.0,0.0,4.0325,4.5497,5.3432,6.1768,7.3569,8.7128,10.0787,10.6612,10.9023,11.2036,11.3894,11.54,11.7308,11.7811,11.7308,11.4998,11.1383,10.38,8.6676,7.9143,7.0405,5.1523,4.6602,4.6602,4.9816,5.6646,6.6488,8.1051,9.0291,9.9331,11.0027,11.2186,11.4195,11.8162,11.7911,11.771,11.8514,11.8112,11.7911,11.8212,11.8715,11.9016,11.9016,11.8514,11.771,11.6555,11.6806,11.6405,11.53,11.4446,11.4678,11.6364,11.2705,11.208,11.3325,11.0073,10.842,10.7717,10.611,0.0,10.4503,10.3398,10.2595,10.2093,10.2444,10.2344,10.1877,10.015,9.7106,9.3403,0.0,0.0,0.0,0.0,0.0,0.0,1.4963,1.5368,1.6281,1.7814,1.859,1.8308,1.6565,1.6331,1.6279,0.0,0.0,0.0,0.0,0.0,0.0,0.0,0.0,0.0,1.8464,0.0,0.0,0.0,2.1705,0.0,0.0,0.0,0.0,0.0,3.0547,3.0898,3.1092,3.409,3.5311,0.0,0.0,3.9672,0.0,0.0,0.0,0.0,0.0,4.4543,5.077,5.534,6.6315,8.0579,9.5614,10.3699,10.7887,10.9226,11.1552,11.3798,11.6341,11.7547,11.7509,11.4798,11.0579,10.154,8.0097,7.1424,6.2645,4.4227,3.9865,4.1554,4.8985,5.5993,6.4982,7.834,8.5722,9.4503,10.8224,10.8831,11.1052,12.0089,11.8474,11.7816,12.0397,11.9485,11.8879,11.9285,11.9742,0.0,11.8664,11.8413,11.7409,11.5601,11.5601,11.5199,11.4095,11.304,11.408,11.7525,11.3145,11.2346,11.4375,11.073,10.8352,10.6612,10.5909,0.0,0.0,10.3549,10.2745,10.1942,10.2344,10.2243,10.1361,9.8105,9.4288,9.0531,0.0,0.0,0.0,0.0,0.0,0.0,1.5231,1.6757,1.8127,1.9094,2.0309,2.0735,1.9821,1.8752,1.7903,0.0,0.0,0.0,0.0,0.0,0.0,0.0,0.0,0.0,0.0,0.0,0.0,0.0,0.0,0.0,0.0,0.0,0.0,0.0,0.0,0.0,3.1092,3.409,0.0,0.0,0.0,0.0,0.0,0.0,0.0,0.0,0.0,4.0275,4.2484,5.2829,5.6746,5.9805,7.2686,8.6525,9.7657,9.5928,10.0637,10.6825,11.1176,11.5227,11.7509,11.4798,11.0027,10.0586,7.9947,7.0031,6.0507,4.3961,3.9079,4.0241,4.8807,4.6301,5.077,7.4824,7.0757,7.5564,10.6941,10.5387,10.7607,12.5429,12.2081,12.0699,12.7837,12.5236,12.3284,12.3337,12.339,0.0,11.7865,11.8012,11.7208,11.4998,11.545,11.5199,11.4095,11.304,11.408,11.7578,11.5563,11.4682,11.4375,11.2944,11.0264,10.6562,10.5507,0.0,0.0,10.3549,10.3047,10.2444,10.2544,10.2544,10.186,9.825,9.4288,9.0531,0.0,0.0,0.0,0.0,0.0,0.0,1.5257,1.6054,1.7203,1.9382,2.0639,2.1679,2.261,2.1602,2.0229,1.8526,1.8195,0.0,0.0,0.0,0.0,0.0,0.0,0.0,0.0,0.0,1.996,2.2942,0.0,0.0,0.0,0.0,0.0,0.0,0.0,0.0,0.0,3.409,0.0,0.0,0.0,0.0,0.0,0.0,0.0,0.0,0.0,0.0,3.766,4.216,4.7099,5.1686,5.2373,6.1545,7.4533,8.6122,9.4315,10.1209,10.8111,11.4182,11.7961,11.4898,10.9424,9.9272,7.8258,6.8205,5.8443,4.1022,3.7405,3.8503,4.1971,4.8352,5.5324,6.2629,7.1469,8.183,9.4025,9.8357,10.5754,11.9709,11.9684,12.1448,12.8262,12.8518,12.7643,12.7318,12.7643,0.0,12.3718,12.3878,12.1923,11.777,12.0128,12.0735,11.9616,11.839,11.9502,12.2883,11.8999,11.7006,11.6355,11.3489,10.9965,10.611,10.5658,0.0,0.0,10.39,10.3298,10.2544,10.2544,10.1106,9.8523,9.4846,9.0816,8.7127,0.0,0.0,0.0,0.0,0.0,1.403,1.5166,1.5841,1.7145,1.9955,2.1088,2.232,2.4175,2.3331,2.1862,2.0253,1.9709,0.0,0.0,0.0,0.0,0.0,0.0,0.0,0.0,0.0,2.0439,2.4003,2.4348,2.6204,0.0,0.0,0.0,0.0,0.0,0.0,0.0,0.0,0.0,0.0,0.0,0.0,0.0,0.0,0.0,0.0,0.0,0.0,0.0,0.0,0.0,4.3691,3.9123,4.27,5.2375,7.1238,8.2843,9.1402,9.9367,10.7627,11.3335,11.075,10.4011,9.3204,7.468,6.3825,5.3565,3.9196,3.6603,3.7156,3.8007,4.7332,5.5406,5.7276,6.7876,7.9759,9.0894,9.4467,10.0923,11.3733,11.4809,11.7716,12.5699,13.0155,13.218,13.1564,13.1732,0.0,12.8108,12.9825,12.805,12.1245,12.3643,12.3862,12.1568,12.1442,12.2215,12.3468,12.0287,11.8032,11.6225,11.3222,10.9757,10.5809,10.5809,0.0,0.0,10.4151,10.3499,10.2544,10.2544,10.0837,9.7928,9.2795,8.9389,8.6255,0.0,0.0,0.0,0.0,0.0,1.3027,1.5074,1.6907,1.8848,2.0933,2.1961,2.3074,2.4229,2.3281,2.2609,2.2999,2.0872,0.0,0.0,0.0,0.0,0.0,0.0,0.0,2.0491,1.9403,2.0757,2.448,2.448,2.6452,3.0195,3.0195,3.043,0.0,0.0,0.0,0.0,0.0,0.0,0.0,0.0,0.0,0.0,0.0,0.0,0.0,0.0,0.0,0.0,0.0,0.0,0.0,0.0,3.3726,3.4616,4.9217,6.3564,7.6336,8.2732,9.3302,10.1857,10.0508,9.1588,8.0425,6.8942,5.6287,4.5475,3.9494,3.6726,3.6185,3.9154,3.9823,4.5616,6.3072,5.4857,6.1001,10.2897,9.4919,9.1491,11.0021,10.7339,10.8548,12.0284,13.0814,13.6799,13.6223,13.559,0.0,12.8885,13.5017,13.4376,12.5342,12.5014,12.2767,11.7806,12.0153,11.9555,11.6064,11.8624,11.7107,11.2848,11.2581,11.0172,0.0,0.0,0.0,0.0,10.4151,10.3499,10.2544,10.2544,10.2544,10.1375,9.3963,9.11,8.9961,0.0,0.0,0.0,0.0,0.0,0.0,1.4546,1.5301,1.6238,1.8009,1.8653,2.0046,2.2631,2.2255,2.241,2.3855,2.2498,0.0,0.0,0.0,0.0,0.0,0.0,0.0,2.0461,2.1478,2.2752,2.448,2.6412,2.8462,3.0664,3.0976,3.1172,3.1289,3.214,0.0,0.0,0.0,0.0,0.0,0.0,0.0,0.0,0.0,0.0,0.0,0.0,0.0,0.0,0.0,0.0,0.0,0.0,0.0,0.0,3.7668,4.9646,6.2763,7.0054,7.8239,8.439,8.2299,7.6909,6.9361,5.8075,5.025,4.2979,3.491,3.4289,3.564,3.6511,4.2379,4.9545,5.7066,6.0349,6.92,8.9743,9.3057,9.972,11.7557,12.621,13.2159,13.6201,0.0,13.9676,13.9498,0.0,0.0,13.5923,13.5369,13.3329,12.8887,12.8887,12.7734,12.5058,12.2771,12.0892,11.9823,11.9297,11.6944,11.3161,11.2369,11.0017,0.0,0.0,0.0,0.0,10.4151,10.3499,10.2544,10.2544,10.0788,9.825,9.5956,9.1667,8.6837,0.0,0.0,0.0,0.0,0.0,0.0,1.4038,1.4456,1.4998,1.6473,1.677,1.8112,2.1392,2.1171,2.1646,2.3777,2.3086,0.0,0.0,0.0,0.0,0.0,0.0,0.0,2.2076,2.3267,2.4519,2.5835,2.7902,2.9711,3.1367,3.2197,3.2474,3.2391,3.3401,3.3979,0.0,0.0,0.0,0.0,0.0,0.0,3.8056,0.0,0.0,0.0,0.0,0.0,0.0,0.0,0.0,0.0,0.0,0.0,0.0,0.0,3.8862,4.8147,5.6971,6.4287,6.9468,6.7918,6.3457,5.7171,4.956,4.3594,3.9052,3.6981,3.8043,4.0472,4.4404,4.8343,5.3695,6.1468,6.1416,6.775,8.9068,9.2666,9.9879,11.807,12.915,13.5613,0.0,13.9204,14.1179,14.088,0.0,0.0,13.6991,13.4726,13.2063,12.8697,12.8697,12.7486,12.4974,12.285,12.0529,11.7439,11.7395,11.5249,11.1403,11.0678,10.9172,0.0,0.0,0.0,0.0,10.4252,10.3499,10.2544,10.2544,10.1057,9.8523,9.5679,9.1712,8.7127,0.0,0.0,0.0,0.0,0.0,0.0,0.0,1.4322,1.4916,1.5974,1.6089,1.7188,2.0217,1.9973,2.0513,2.2872,2.2687,0.0,0.0,0.0,0.0,0.0,0.0,2.4422,2.4751,2.4803,2.5881,2.793,2.9002,3.0391,3.227,3.3752,3.4211,3.3791,3.4979,3.553,3.5749,3.7049,0.0,0.0,3.9569,3.7902,0.0,0.0,0.0,0.0,0.0,0.0,0.0,0.0,0.0,0.0,0.0,0.0,0.0,0.0,0.0,0.0,0.0,5.1287,5.6172,5.6523,5.0586,4.4336,4.3086,3.6914,0.0,4.3018,4.5096,4.8146,5.764,5.5382,5.6981,7.1899,5.8456,5.9319,9.7034,9.4995,9.6526,11.4636,12.149,12.4602,12.4302,13.4895,14.1598,14.1,0.0,0.0,13.3783,13.2866,13.0624,12.5898,12.5181,12.286,11.8703,12.1019,11.8337,11.083,11.3753,11.2593,10.842,10.842,10.8068,0.0,0.0,0.0,0.0,10.4352,10.3499,10.2544,10.2544,10.2544,10.1643,9.4196,9.1383,8.9961,0.0,0.0,0.0,0.0,0.0,0.0,0.0,0.0,0.0,0.0,1.4805,1.5575,1.7533,1.8622,1.9887,0.0,0.0,0.0,0.0,0.0,0.0,0.0,2.4967,2.5177,2.4855,2.6806,2.7698,2.7495,3.0143,3.1789,3.227,3.3752,3.4379,3.437,3.6223,3.7583,3.8687,3.905,0.0,0.0,3.8477,3.7583,0.0,0.0,0.0,0.0,3.2033,3.1485,0.0,0.0,0.0,0.0,0.0,0.0,0.0,0.0,3.4072,3.421,3.5562,0.0,3.8555,3.8008,3.6328,3.4687,0.0,3.2422,3.1722,3.4003,3.6254,3.868,4.1498,4.6876,5.2565,5.7983,5.5932,6.2852,8.9524,10.8657,12.2892,13.1664,13.6391,13.8187,13.6152,13.9085,14.1239,14.1598,0.0,13.5241,13.4726,12.8715,12.4477,12.2919,11.9943,11.832,11.8703,11.5777,11.3264,11.1383,11.1692,11.0984,10.9525,10.9073,10.8621,0.0,0.0,0.0,10.4905,10.3951,10.3097,10.2544,10.2544,10.2544,10.196,9.7106,9.3683,9.0531,0.0,0.0,0.0,0.0,0.0,0.0,0.0,0.0,0.0,0.0,1.4215,1.4861,1.6327,1.7882,1.9468,0.0,0.0,0.0,0.0,0.0,0.0,2.4414,2.5625,2.6121,2.5825,2.8007,2.908,2.8671,3.1722,3.3195,3.3315,3.5358,3.6267,3.6115,3.7053,3.7902,3.8687,3.8687,3.9154,3.9569,3.8792,0.0,0.0,0.0,0.0,0.0,3.2261,3.1639,0.0,3.1172,3.1523,3.1862,0.0,0.0,0.0,0.0,3.3944,3.387,3.3117,3.3289,3.3285,3.214,3.2363,3.2623,3.1734,3.1418,3.295,3.9151,4.0105,4.2038,4.9153,5.3937,5.884,6.4713,6.5135,7.2396,9.4847,11.6272,13.1723,13.717,14.0341,14.1718,0.0,14.088,14.106,14.1359,0.0,13.5391,13.2097,12.7596,12.3216,11.9287,11.6494,11.5387,11.6364,11.3907,11.2086,11.1584,11.1282,11.073,10.9977,10.9625,10.9173,0.0,0.0,0.0,10.5206,10.2122,10.042,9.9707,9.7977,9.7333,9.6783,9.3076,9.0246,8.7952,0.0,0.0,0.0,0.0,0.0,0.0,0.0,0.0,0.0,0.0,0.0,0.0,0.0,0.0,0.0,0.0,0.0,0.0,0.0,0.0,2.4453,2.4492,2.6133,2.7031,2.7109,2.8711,2.9878,3.0537,3.3252,3.4665,3.4901,3.7771,3.8682,3.8082,3.7762,3.7418,3.7156,3.7156,3.8007,3.9362,3.9154,0.0,0.0,0.0,0.0,0.0,0.0,0.0,0.0,3.082,3.1667,3.2499,3.1357,0.0,0.0,0.0,0.0,0.0,3.4088,3.5477,3.6499,3.4696,3.4338,3.4338,3.421,3.2881,3.517,4.7346,4.7498,4.9716,6.3245,6.6589,6.9863,7.7812,7.8972,8.5982,10.5818,12.1117,13.1963,13.7289,13.9324,0.0,14.1359,14.1,14.076,14.1,13.9767,13.607,12.9165,12.7607,12.394,11.685,11.5045,11.4095,11.3994,11.3442,11.2688,11.1734,11.1584,11.1081,11.0027,10.9876,10.9525,10.8872,0.0,0.0,10.5283,9.9829,9.7211,9.6555,9.2559,9.11,9.0531,8.6837,8.5422,8.4878,0.0,0.0,0.0,0.0,0.0,0.0,0.0,0.0,0.0,0.0,0.0,0.0,0.0,0.0,0.0,0.0,0.0,0.0,0.0,2.4141,2.457,2.4961,2.6289,2.7187,2.7539,2.8867,3.0438,3.2031,3.4169,3.5886,3.7183,3.9337,3.9617,3.8238,3.8143,3.7208,3.564,3.564,3.6511,3.769,3.6511,0.0,0.0,0.0,0.0,0.0,0.0,0.0,0.0,3.043,3.0388,3.0764,3.1408,0.0,0.0,0.0,0.0,0.0,3.6081,4.2341,4.7678,4.3655,3.8461,3.5848,4.1375,3.709,3.4018,4.0838,4.4277,4.8676,5.752,6.9671,7.7758,7.6324,8.9368,10.3274,11.3128,12.5764,13.5015,13.7588,0.0,14.1,13.9504,13.9803,14.0521,14.1658,13.7475,13.4764,13.4029,12.7358,12.2689,12.0473,11.6783,11.4295,11.3442,11.2839,11.2538,11.2287,11.1835,11.1282,11.0579,10.9675,10.8922,10.832,0.0,10.5156,10.4682,9.9297,9.6878,9.6555,9.2559,9.11,9.0531,8.6837,8.5422,8.4878,0.0,0.0,0.0,0.0,0.0,0.0,0.0,0.0,0.0,0.0,0.0,0.0,0.0,0.0,0.0,0.0,0.0,0.0,2.375,2.418,2.506,2.6451,2.7042,2.7461,2.7656,2.8906,3.067,3.2854,3.5129,3.7121,3.8896,4.0371,3.957,3.7142,3.6864,3.5711,3.409,3.409,3.5376,3.7477,0.0,0.0,0.0,0.0,0.0,0.0,0.0,0.0,0.0,0.0,2.9844,2.9917,3.05,0.0,0.0,0.0,0.0,0.0,3.6234,4.0053,4.536,5.223,5.2526,5.1512,5.3275,5.0825,4.8301,4.9289,4.9237,5.1792,6.0556,7.1343,8.3353,9.7202,11.0043,11.9823,12.4516,13.0465,13.5314,13.7648,0.0,14.0162,14.0042,14.0581,14.1179,14.1838,13.9321,13.686,13.4475,13.0211,12.5774,12.0392,11.8142,11.5493,11.2789,11.2538,11.2437,11.2437,11.1885,11.1282,11.078,10.9575,10.8621,10.7767,0.0,10.3661,10.1241,9.5917,9.2559,9.0246,8.6589,8.4836,8.4878,8.2854,8.2301,8.2004,0.0,0.0,0.0,0.0,0.0,0.0,0.0,0.0,0.0,0.0,0.0,0.0,0.0,0.0,0.0,0.0,0.0,0.0,2.3906,2.4414,2.5698,2.7757,2.7884,2.8062,2.8456,2.9439,3.1257,3.3926,3.6178,3.8481,4.087,4.1053,3.9426,3.6275,3.5335,3.4065,3.2509,3.2509,3.4047,3.6464,0.0,0.0,0.0,0.0,0.0,0.0,0.0,0.0,0.0,0.0,0.0,0.0,0.0,0.0,0.0,3.2553,3.4624,3.6478,3.6723,3.9722,4.5497,5.6696,6.0462,6.2258,6.5123,6.3913,6.2095,6.1949,6.0056,6.1144,7.0922,8.0188,9.3485,11.518,12.559,13.2023,13.4297,13.5195,13.6391,13.8606,13.9204,13.9803,14.1,14.1419,14.1658,14.1658,14.088,13.8714,13.4319,13.1869,12.7311,12.0376,11.7979,11.5334,11.2186,11.2086,11.2036,11.2036,11.1584,11.1081,11.0529,10.9274,10.8169,10.7215,10.5507,10.2392,9.7836,9.316,8.8859,8.5171,8.1188,7.9726,7.9726,7.9726,7.9726,7.9726,0.0,0.0,0.0,0.0,0.0,0.0,0.0,0.0,0.0,0.0,0.0,0.0,0.0,0.0,0.0,0.0,0.0,0.0,2.4336,2.5156,2.6403,2.8305,2.8264,2.904,3.0724,3.0757,3.2445,3.5871,3.7488,4.013,4.3412,4.1679,3.938,3.6769,3.4798,3.2922,3.1132,3.1132,3.1977,3.3417,3.3417,0.0,0.0,0.0,0.0,0.0,0.0,0.0,0.0,0.0,0.0,0.0,0.0,0.0,2.9146,3.211,3.7497,4.1836,3.8753,4.846,5.8252,5.3281,5.1021,5.4938,7.3728,7.0685,6.6214,7.4763,7.7124,8.0602,9.0274,10.4028,11.3968,11.469,12.5807,13.5793,13.8965,13.9982,14.0641,14.1479,14.1119,14.1,14.1778,14.1239,14.1,14.1,13.9803,13.8426,13.6606,12.9037,12.4013,12.2205,11.5489,11.2025,11.1684,11.1182,11.0881,11.0881,11.0881,11.0529,10.9977,10.837,10.7265,10.6612,10.4955,10.1849,9.7267,9.3023,8.8859,8.5171,8.1188,7.9726,7.9726,7.9726,7.9726,7.9726,0.0,0.0,0.0,0.0,0.0,0.0,0.0,0.0,0.0,0.0,0.0,1.4643,1.4937,0.0,0.0,0.0,0.0,2.3984,2.4375,2.5,2.642,2.8628,2.8184,2.896,3.1291,3.0997,3.2509,3.5962,3.8817,4.088,4.1988,4.1057,3.8712,3.5042,3.418,3.2731,3.0898,3.0898,3.1747,3.3077,3.3077,3.3642,0.0,0.0,0.0,0.0,0.0,0.0,0.0,0.0,2.8672,2.8516,2.8516,2.8398,2.8814,3.176,3.4403,3.6478,3.6875,4.5799,5.5691,5.8353,5.9006,6.2772,7.7134,8.1878,8.3386,8.3412,8.4999,8.8514,9.6771,11.1703,12.3217,12.4911,13.1783,13.7768,14.07,14.1359,14.1598,14.1838,14.1658,14.1598,14.1838,14.1239,14.07,14.0282,13.6695,13.3758,13.2471,12.6564,12.1778,11.858,11.5878,11.3505,11.1081,11.1182,11.1081,11.078,11.0479,11.0127,10.9876,10.7918,10.6612,10.606,10.4403,10.1084,9.6792,9.2886,8.8859,8.5171,8.1188,7.957,7.9036,7.6773,7.5935,7.525,0.0,0.0,0.0,0.0,0.0,0.0,0.0,0.0,1.2186,0.0,0.0,0.0,0.0,1.695,0.0,0.0,2.188,2.3736,2.4414,2.5078,2.654,2.8712,2.8184,2.9,3.1542,3.1077,3.2313,3.5176,3.8824,4.0636,4.0493,3.9729,3.7424,3.4075,3.3368,3.215,3.0898,3.0898,3.1361,3.2189,3.2189,3.2671,0.0,0.0,0.0,0.0,0.0,0.0,0.0,0.0,2.8203,2.8125,2.8242,2.8281,2.8708,3.1202,3.5311,3.9128,3.916,4.7958,5.8001,6.2119,6.5835,7.0958,8.0599,8.768,9.2451,9.3204,9.5401,9.799,10.0157,11.42,12.5918,12.7414,13.3459,13.8845,14.1479,14.1838,14.1778,14.1598,14.1538,14.1359,14.1,14.0282,13.9051,13.7012,13.3124,12.9627,12.7099,12.2673,11.8691,11.5599,11.4379,11.2786,11.078,11.0981,11.1081,11.1031,11.0278,10.9876,10.9625,10.7717,10.6411,10.5507,10.4202,10.0294,9.4846,9.205,8.798,8.3037,8.0492,7.8242,7.6772,7.404,7.2201,7.0828,0.0,0.0,0.0,0.0,0.0,0.0,0.0,0.0,1.1911,1.0919,1.2226,0.0,0.0,0.0,0.0,0.0,2.1392,2.3074,2.4322,2.5664,2.6963,2.8292,2.8304,2.9319,3.1433,3.1077,3.1872,3.3865,3.7379,3.9284,3.9694,3.7657,3.5939,3.4421,3.2395,3.1289,3.0898,3.0898,3.0625,3.0195,3.0195,2.9922,2.957,0.0,0.0,0.0,0.0,0.0,0.0,0.0,2.8008,2.7734,2.8164,2.8281,2.868,3.0512,4.1808,5.2471,4.6634,5.6939,6.8296,6.3274,6.8698,7.7335,8.5119,8.6525,9.0191,10.4553,11.0101,10.9955,10.1725,11.3241,12.2701,11.8976,12.927,13.8785,14.1479,14.1838,14.1598,14.1,14.088,14.0401,13.9025,13.8247,13.571,13.1041,12.9311,12.6414,12.0802,11.7289,11.4639,11.3531,11.0636,10.9675,11.078,11.0228,11.0529,11.1584,11.0479,10.9625,10.9073,10.8018,10.6562,10.5005,10.4403,9.9166,9.1055,9.0607,8.5898,7.8476,7.8476,7.5941,7.2292,7.2653,7.0067,6.6409,0.0,0.0,0.0,0.0,0.0,0.0,0.0,0.0,0.9972,0.9687,1.1812,0.0,0.0,0.0,0.0,0.0,0.0,2.1336,2.1717,2.2554,2.3489,2.4293,2.4369,2.5037,2.6619,2.7765,3.0277,3.4328,3.5388,3.5851,3.5676,3.5617,3.4848,3.3497,3.2116,3.1679,3.1902,3.1614,3.0741,2.9878,3.0843,3.054,2.9531,0.0,0.0,0.0,0.0,0.0,0.0,0.0,0.0,0.0,2.7734,2.7851,2.9036,3.4738,3.965,4.3206,4.331,5.6008,0.0,6.4174,7.1912,8.2909,9.22,9.456,9.7121,10.5708,11.0484,11.205,10.8704,11.5227,12.0939,12.0262,12.5376,13.0227,13.2267,13.2947,13.2834,13.1757,13.1859,13.1405,13.0212,12.9474,12.7865,12.5378,12.1442,11.8312,11.5892,11.2144,11.0204,10.9898,10.974,11.0027,11.078,11.0579,11.1081,11.2136,11.0278,10.9274,10.9023,10.7566,10.621,10.4905,10.4001,10.1751,9.8747,9.2851,8.5513,7.7617,7.789,7.5183,7.0768,6.8354,6.5154,6.1058,0.0,0.0,0.0,0.0,0.0,0.0,0.9244,0.908,0.8943,0.8629,1.0604,1.2215,0.0,0.0,0.0,0.0,1.8909,1.9958,2.057,2.1197,2.1758,2.2412,2.2576,2.3244,2.4447,2.5629,2.7985,3.16,3.2871,3.3528,3.3612,3.4253,3.4127,3.3257,3.2275,3.2302,3.3093,3.218,3.123,3.0287,3.1008,3.037,2.8789,0.0,0.0,0.0,0.0,0.0,0.0,0.0,0.0,0.0,2.7266,2.9062,3.2197,3.7984,4.3794,4.9094,5.2293,6.4163,0.0,7.5234,8.1252,8.9287,9.7071,10.0686,10.3549,10.7918,11.1161,11.3041,11.3252,11.6804,12.0177,12.226,12.452,12.6727,12.8387,12.894,12.8553,12.7113,12.6947,12.6394,12.4899,12.3958,12.2426,11.9714,11.6427,11.3304,11.1054,10.8884,10.8018,10.8018,10.8872,10.9675,11.0479,11.0479,11.078,11.1433,10.9876,10.8872,10.842,10.7215,10.5909,10.4281,10.0119,9.7832,9.6711,8.8678,8.185,7.668,7.6797,7.3059,6.7157,6.5486,6.1152,5.5583,0.0,0.0,1.3717,1.2699,0.0,0.0,0.9597,0.9108,0.869,0.787,0.8972,1.0289,0.0,0.0,0.0,1.7109,1.7808,1.8712,2.0151,2.0639,2.1159,2.1667,2.216,2.295,2.4187,2.422,2.5184,2.7241,2.9968,3.1933,3.2809,3.3267,3.3592,3.3592,3.2515,3.2772,3.4029,3.2636,3.1475,3.0766,3.0831,2.9635,2.7656,2.7617,0.0,0.0,0.0,0.0,0.0,0.0,0.0,0.0,2.6836,3.0858,3.6017,3.9708,5.086,6.2778,6.6995,7.6221,0.0,9.0643,9.3162,0.0,9.9337,10.376,10.7672,11.0027,11.1809,11.3491,11.5704,11.7609,11.9818,12.3261,12.474,12.5949,12.6443,12.6498,12.5894,12.4193,12.3974,12.326,12.1449,12.0242,11.7983,11.4164,11.2891,11.0484,10.6562,10.7064,10.7416,10.7416,10.8068,10.8872,10.9876,10.9876,10.9876,10.9977,10.9173,10.832,10.7416,10.6535,10.5108,10.2643,9.4149,9.0069,8.8648,8.0783,7.6851,7.5703,7.5273,7.0127,6.3092,6.3492,5.8762,5.141,0.0,0.0,1.3785,1.3978,0.0,0.0,1.0908,0.9222,0.802,0.7801,0.9081,1.004,1.0386,1.2512,0.0,1.4651,1.6175,1.7216,1.747,1.8105,1.8583,1.887,1.9402,2.0442,2.2245,2.2245,2.3633,2.6408,2.7586,2.9201,3.0769,3.1245,3.214,3.3203,3.1397,3.1257,3.2318,3.1169,3.0052,2.8933,3.0056,2.935,2.7617,2.7305,2.6875,0.0,0.0,0.0,0.0,0.0,0.0,0.0,2.6367,2.8344,3.1629,3.7106,4.5853,5.4804,5.8929,7.0596,0.0,8.4925,9.1103,9.6724,9.6327,9.7045,9.9527,10.5698,10.9891,11.2486,11.208,11.3723,11.5169,11.5015,11.6228,11.6691,11.5869,11.6228,11.5971,11.4738,11.4533,11.3865,11.2169,11.1758,11.0761,10.8602,10.797,10.729,10.6009,10.6562,10.6813,10.6813,10.8169,10.9023,10.9274,10.9274,10.9525,0.0,10.7566,10.6612,10.6813,10.3435,9.959,9.478,9.1859,8.8484,8.4589,8.2243,7.8707,7.4844,7.4414,7.1058,6.6073,6.3344,5.9329,5.4316,0.0,0.0,0.0,0.0,0.0,0.0,0.0,0.0,0.7841,0.7909,0.8568,0.932,0.9895,1.1755,0.0,0.0,1.5312,1.6406,1.67,1.6994,1.7422,1.8009,1.8464,1.9122,2.0131,2.0131,2.1643,2.478,2.4496,2.5761,2.8559,2.8284,2.9317,3.132,2.9775,3.0207,3.2032,3.083,2.9642,2.8654,2.9372,2.8615,2.7031,2.6797,2.6445,2.6055,2.6055,0.0,0.0,0.0,0.0,0.0,0.0,0.0,3.2854,3.8463,4.5445,5.3561,6.2977,7.2712,8.1565,8.7488,0.0,9.7419,9.4437,9.4102,9.5634,9.9731,10.4423,10.8167,10.8314,11.0866,11.2688,11.2086,11.2538,11.2588,11.1785,11.1885,11.1785,11.0931,11.0579,10.9977,10.8822,10.8219,10.7566,10.6713,10.6411,10.611,10.5809,10.606,10.6361,10.6612,10.7215,10.7616,10.7918,10.7616,10.7516,10.7566,10.606,10.3378,9.9825,9.9586,9.671,9.2131,8.8993,8.5827,8.2945,7.9923,7.7015,7.3945,7.3515,7.0752,6.6392,6.3047,5.913,5.4519,0.0,0.0,0.0,0.0,0.0,0.0,0.0,0.0,0.0,0.8018,0.8045,0.8428,0.9517,1.0974,1.2339,0.0,0.0,0.0,1.6673,1.6807,1.7208,1.8009,1.8277,1.8437,1.849,1.8658,2.0281,2.3319,2.201,2.3118,2.6388,2.5422,2.6558,2.9157,2.8177,2.9258,3.1834,3.0472,2.9455,2.879,2.8707,2.7722,2.6406,2.6406,2.6133,2.5742,2.582,2.582,2.5742,2.582,0.0,0.0,0.0,0.0,3.4528,3.912,4.5233,5.333,6.6809,7.5226,8.2372,9.1481,9.6003,9.6617,9.1756,9.1075,9.1983,9.2346,9.8178,10.3592,10.4583,10.8314,11.1081,11.1031,11.1031,11.083,11.0278,11.0178,11.0027,10.9575,10.9073,10.8571,10.8068,10.7215,10.6612,10.6512,10.606,10.5809,10.5809,10.5809,10.606,10.6461,10.606,10.606,10.6512,10.5959,10.5407,10.5005,10.4704,10.0167,9.2086,9.4986,9.377,8.9628,8.4992,8.2137,8.0374,7.5999,7.2812,7.1106,7.0612,6.8501,6.4805,6.1168,5.7858,5.3528,0.0,0.0,0.0,0.0,0.0,0.0,0.0,0.0,0.0,0.0,0.8045,0.8031,0.823,1.0485,1.195,1.2145,1.49,1.662,1.67,0.0,0.0,1.8036,1.8063,1.8196,1.849,1.9283,2.0681,2.2815,2.2494,2.334,2.5173,2.4697,2.5801,2.7937,2.7205,2.7845,2.9291,2.847,2.7969,2.7851,2.7456,2.696,2.6406,2.6406,2.6133,2.5781,2.6172,2.6055,2.5781,2.6172,2.6055,0.0,0.0,0.0,2.9653,3.1884,3.8637,4.6786,5.2765,6.8698,8.4497,8.7903,9.0449,9.0448,8.4034,8.1984,8.1865,8.3365,9.3601,10.2734,10.2681,10.6353,10.9274,10.8822,10.8721,10.8571,10.8018,10.7918,10.7918,10.7817,10.7767,10.7516,10.6913,10.6713,10.6461,10.5959,10.5859,10.5809,10.5809,10.5809,10.5809,10.5909,10.5809,10.5809,10.5909,10.5407,10.5055,10.5005,10.3549,9.8329,9.0024,9.0089,8.6913,8.1148,7.9184,7.5886,7.17,6.987,6.6573,6.2927,6.2214,6.1628,6.0438,5.6853,5.5167,5.3498,0.0,0.0,0.0,0.0,0.0,0.0,0.0,0.0,0.0,0.0,0.0,0.8045,0.8045,1.0288,1.195,1.195,1.4728,1.6593,1.6941,1.7341,1.7635,1.7769,1.7769,1.7849,1.7983,1.9098,2.0631,2.2452,2.2346,2.3794,2.6833,2.6016,2.6133,2.733,2.7427,2.7884,2.8516,2.7656,2.7031,2.6562,2.6367,2.8203,3.0703,2.7305,2.8008,3.0237,2.6286,2.5424,2.6034,2.5352,2.5767,2.6445,2.6445,0.0,0.0,0.0,3.3115,3.9072,5.2178,6.6868,7.9317,8.3409,8.5399,8.5227,8.0532,7.9492,7.9609,8.0429,8.7526,9.444,9.7627,10.1539,10.4882,10.6685,10.6913,10.6813,10.6562,10.6813,10.7114,10.7516,10.7215,10.6913,10.6612,10.6361,10.606,10.5809,10.5809,10.5809,10.5809,10.5809,10.5658,10.5407,10.5055,10.4704,10.4453,10.3549,10.2996,10.2645,10.1992,9.7217,8.9173,8.8731,8.4857,7.8555,7.707,7.3882,6.9444,6.8465,6.5157,6.0553,6.0223,6.0239,5.9481,5.5628,5.4323,5.3006,0.0,0.0,0.0,0.0,0.0,0.0,0.0,0.0,0.0,0.0,0.0,0.8045,0.8045,0.0,0.0,0.0,1.4777,1.6727,1.7235,1.7475,1.7582,1.7582,1.7816,1.797,1.797,1.9535,2.1022,2.23,2.2809,2.4893,2.8451,2.8041,2.8196,2.8787,2.8658,2.8667,2.8711,2.7734,2.7031,2.6501,2.6627,2.9813,3.4128,2.9425,3.1477,3.5782,2.7732,2.6482,2.8222,0.0,2.5563,2.7031,2.7399,2.7298,0.0,0.0,0.0,3.4115,5.1131,6.1532,6.9185,7.5865,7.8821,7.95,7.7903,7.7969,7.8398,7.8984,8.1641,8.5758,9.1162,9.6446,10.124,10.4658,10.5206,10.5206,10.5206,10.5809,10.6411,10.6813,10.6562,10.6411,10.6411,10.606,10.5809,10.5809,10.5809,10.5809,10.5809,10.5658,10.5407,10.5005,10.4302,10.3699,10.3147,10.2042,10.1138,10.0486,10.0285,9.6538,8.951,8.7654,8.3592,7.8163,7.6353,7.2284,6.7176,6.6217,6.2473,5.7391,5.6128,5.5597,5.513,5.1138,4.9865,4.8604,0.0,0.0,0.0,0.0,0.0,0.0,0.0,0.0,0.0,0.0,0.0,0.8045,0.8045,1.0644,1.2374,1.2374,1.534,1.7235,1.7528,1.7582,1.7582,1.7582,1.8423,0.0,1.8962,2.1126,2.2298,2.2393,2.4447,2.6536,2.8516,3.0907,3.2633,3.3661,3.1538,3.0316,3.0,2.875,2.8437,2.8804,2.9136,3.1168,3.403,3.3302,3.7022,4.1477,3.1515,0.0,0.0,2.7068,2.5825,2.7196,2.8466,2.7965,2.758,0.0,0.0,0.0,4.3755,4.814,5.2741,6.3996,6.8953,7.191,7.4703,7.5742,7.6289,7.7148,7.7596,7.8999,8.3874,9.1904,9.9118,10.2909,10.3499,10.3499,10.3499,10.4403,10.5055,10.5106,10.5558,10.5859,10.5859,10.5809,10.5809,10.5809,10.5809,10.5809,10.5809,10.5306,10.5005,10.5005,10.3951,10.3097,10.2595,10.149,10.0385,9.928,9.8778,9.5983,9.0888,8.6679,8.2612,7.8958,7.5417,6.9704,6.2319,6.1952,5.7022,4.9514,4.5265,4.3667,4.3052,3.9171,3.7699,3.772,0.0,0.0,0.0,0.0,0.0,0.0,0.0,0.0,0.0,0.0,0.0,0.0,0.0,1.0733,1.2435,1.2476,1.536,1.7261,1.7555,1.7582,1.7582,1.7582,1.7893,1.8537,1.936,2.1029,2.2247,2.2775,2.4754,2.6583,2.8408,3.0084,3.1799,3.3421,3.2478,3.1623,3.0898,2.8476,2.7422,2.7591,3.1087,3.5553,3.9736,3.576,4.0484,4.7644,0.0,0.0,0.0,3.2245,3.0068,2.8741,2.9279,2.9064,2.8849,2.9611,2.9805,3.1395,3.9062,4.1665,4.4369,5.3498,5.9969,6.4426,6.6108,7.0742,7.4726,7.5078,7.5976,7.7955,8.2126,8.8324,9.3917,9.796,10.1106,10.2846,10.2846,10.4051,10.5005,10.5005,10.5507,10.5658,10.5306,10.5306,10.5106,10.4754,10.4453,10.5231,10.7261,10.6692,10.7165,10.88,10.868,10.6817,10.3582,10.0613,9.8879,9.8176,9.7573,9.4997,9.0791,8.63,8.2046,7.7832,7.1792,6.6181,6.1346,5.8182,5.2398,4.5044,4.3276,4.0798,3.8383,3.6896,3.67,3.6201,0.0,0.0,0.0,0.0,0.0,1.3017,1.4268,1.3403,1.2262,1.1461,0.0,0.0,0.0,0.0,1.3088,1.4149,1.6122,1.7368,1.7582,1.7582,1.7582,1.7582,1.7893,1.8462,1.936,2.1062,2.2247,2.2811,2.4602,2.6484,2.832,2.9297,3.0844,3.2772,3.2038,3.2117,3.2493,2.9816,2.8545,2.86,3.4023,3.8194,4.0821,3.889,4.3326,0.0,0.0,0.0,0.0,0.0,3.5793,3.4083,3.3558,3.2499,3.1291,3.0032,2.9347,2.9919,3.3995,3.5234,3.7187,4.5,5.0351,5.5078,6.0156,6.5703,7.0508,7.2656,7.5417,7.798,8.1197,8.6543,9.1653,9.4848,9.9019,10.1741,10.1942,10.3549,10.4654,10.4503,10.5055,10.5206,10.4503,10.4302,10.39,10.3398,10.2796,0.0,10.7205,10.6626,10.7399,10.9782,10.9748,10.8071,10.4544,10.0883,9.8679,9.8118,9.6616,9.4267,9.1316,8.5991,8.1735,7.864,6.8605,6.2844,6.0533,5.6343,4.974,4.2686,4.1093,3.7153,3.2357,3.2464,3.1665,3.0539,0.0,0.0,0.8428,0.9797,1.001,1.0404,1.1658,1.0895,1.0078,1.0247,0.0,0.0,0.0,0.0,0.0,1.7371,1.7609,1.7609,1.7609,1.7582,1.7582,1.7582,1.8423,1.8962,1.9063,2.1189,2.2357,2.2416,2.4184,2.6172,2.8203,2.8633,2.9961,3.2074,3.0388,3.1601,3.4957,3.2891,3.1918,3.2043,3.8139,3.8821,3.6942,4.3011,0.0,0.0,4.2145,4.2748,0.0,4.3026,4.2588,4.2467,4.1061,3.8082,3.4645,3.1971,3.079,3.0037,0.0,0.0,0.0,3.832,4.0351,4.3906,5.7031,6.0859,6.3437,7.0225,7.5167,7.8916,8.0301,8.6887,9.2455,9.3815,9.7446,10.0234,10.0787,10.2796,10.417,10.3398,10.4523,10.4453,10.3398,10.2745,10.2193,10.159,10.1088,10.2248,10.5362,10.498,10.5805,10.7488,10.6937,10.6275,10.5724,10.2135,10.0177,9.9412,9.6065,9.3907,9.3112,8.5599,8.2003,8.0791,6.6533,6.0091,5.9777,5.5842,4.9603,4.184,3.7914,3.1613,2.4318,2.4599,2.219,1.9385,0.0,0.9501,0.8428,0.9797,1.0112,1.058,1.1875,1.1913,1.1725,0.0,0.0,0.0,1.2617,1.4277,1.6124,1.8114,1.8036,1.7929,1.7929,1.7716,1.7582,1.7582,1.7816,1.849,1.939,2.0015,2.123,2.2847,2.373,2.4786,2.5977,2.6719,2.8676,3.1305,3.0433,3.165,3.4342,3.1251,3.0287,3.1781,4.068,4.4087,4.4402,0.0,0.0,0.0,0.0,4.9206,4.7851,0.0,4.4117,3.4843,0.0,0.0,3.4585,3.3382,3.2254,3.123,3.0512,0.0,0.0,0.0,0.0,0.0,4.8906,5.4961,6.1627,7.1198,7.5331,7.859,8.2481,8.834,9.236,9.329,9.7544,10.0686,10.0887,10.4405,10.7009,10.6801,10.7113,10.6697,10.5393,10.2503,10.0134,0.0,10.03,10.2552,10.563,10.9486,11.1981,11.2343,10.9623,10.806,10.789,10.4077,10.1226,9.878,9.7546,9.5572,9.3112,8.5478,8.169,8.0957,6.6239,5.9563,5.871,4.937,4.2555,3.7664,3.3573,2.7314,2.0107,2.0571,1.9685,1.9064,1.2027,1.0681,0.9533,0.9314,1.0297,1.1226,1.1699,1.2348,1.282,0.0,0.0,0.0,1.4604,1.6244,1.7576,1.838,1.833,1.817,1.8063,1.7876,1.7716,1.7582,1.7582,1.8003,1.8708,1.9184,2.0389,2.242,2.3117,2.4096,2.5352,2.5859,2.739,2.9532,2.9218,3.0351,3.248,3.0568,3.0226,3.1767,4.2344,0.0,0.0,5.207,5.6055,0.0,0.0,0.0,5.2383,5.6992,4.959,0.0,0.0,0.0,3.4612,3.4932,3.386,3.2469,3.1571,3.0983,3.0509,3.0699,0.0,0.0,4.5039,4.9961,5.6474,6.9161,7.4072,7.7882,8.3503,8.8683,9.2404,9.3828,9.7191,10.0654,10.3073,10.5914,10.829,10.9025,10.8953,10.8093,10.6318,10.3696,10.1572,10.0317,10.1316,10.3469,10.6439,11.0939,11.3291,11.3051,11.0848,10.9652,10.9359,10.6058,10.3421,10.1632,9.8854,9.6501,9.4225,8.709,8.289,8.0378,6.707,6.0412,5.7912,4.4911,3.8146,3.5624,3.0104,2.2933,1.6008,1.6193,1.4977,1.3703,0.0,1.2047,1.1227,0.912,1.0804,1.2171,1.1406,1.2472,1.3612,0.0,1.4224,1.4776,1.628,1.7565,1.8348,1.8348,1.8433,1.8326,1.7816,1.779,1.7633,1.7158,1.7344,1.745,1.745,1.8433,1.9842,2.1554,2.2425,2.3804,2.5488,2.5723,2.646,2.7662,2.7704,2.8528,2.9958,3.0541,3.1105,3.2571,4.2727,4.4543,0.0,0.0,5.5039,5.1992,5.7344,5.8125,5.7148,6.0273,5.6036,0.0,0.0,0.0,3.6611,3.6943,3.618,3.4791,3.2879,3.2295,3.2322,3.2434,3.1011,0.0,4.3562,4.564,4.923,6.4129,7.038,7.5268,8.1478,8.6531,9.0274,9.2137,9.5303,9.9593,10.5267,10.6923,10.8077,11.0319,10.984,10.8733,10.6906,10.5569,10.4346,10.3519,10.3363,10.4421,10.758,11.0498,11.1615,11.1016,11.1016,11.0717,11.0119,10.7428,10.6117,10.5638,9.9926,9.6818,9.5831,8.9334,8.4219,7.9532,6.8811,6.1805,5.673,4.1488,3.5226,3.4369,2.6654,1.8566,1.16,1.18,0.9356,0.6841,1.355,1.263,1.1755,1.1325,1.2151,1.282,1.271,1.3386,1.4441,1.5646,1.5965,1.6264,1.7079,1.7289,1.7286,1.7286,1.8262,1.822,1.6899,1.657,1.587,1.4463,1.5712,1.6378,1.6378,1.7786,1.9311,2.0742,2.1771,2.2945,2.4473,2.5614,2.6901,2.8166,2.8404,2.8922,2.9584,3.0049,3.2354,3.5964,4.0187,0.0,4.832,5.4492,5.918,6.2578,6.3398,6.0859,5.6406,0.0,5.2613,5.406,0.0,0.0,4.8239,4.0685,4.0852,4.2302,3.7115,0.0,0.0,0.0,0.0,0.0,4.031,4.1263,4.41,5.5133,5.9195,6.2409,6.8646,7.3281,7.6098,7.5857,8.5464,9.5309,10.2605,10.6211,10.8994,11.0791,11.0563,10.9703,10.776,10.5095,10.2527,10.0487,10.244,10.5192,10.8037,10.8901,10.9101,10.8982,10.8982,10.8862,10.8742,10.8283,10.6753,10.4104,10.0914,9.7784,9.5199,8.8449,8.3567,7.9532,6.8501,5.977,5.2649,3.716,3.1089,3.0104,2.2378,1.4346,0.7065,0.7437,0.6856,0.6569,1.4148,1.3884,1.3471,1.2432,1.3868,1.4943,1.4667,1.5712,1.6834,1.7905,1.7479,1.7078,1.7338,1.6504,1.5915,1.5784,1.6377,1.6425,1.5471,1.5254,1.4781,1.3864,1.4561,1.5288,1.6074,1.6881,1.8326,2.0491,2.1841,2.3114,2.4463,2.5971,2.8545,3.1615,2.9641,2.9928,3.1712,3.0611,3.0384,3.1705,4.0543,0.0,5.332,5.8945,6.3086,6.5859,6.543,6.3437,6.0508,5.6601,5.4683,0.0,5.3683,5.2092,5.0026,0.0,4.6773,4.547,0.0,0.0,0.0,3.6162,0.0,0.0,0.0,3.9352,4.1151,5.1493,5.3792,5.599,6.2696,6.631,6.8488,6.9937,7.9975,8.7989,8.9708,10.0646,10.976,11.317,11.204,11.1159,11.1472,10.974,10.7764,10.5434,10.5257,10.5859,10.7366,10.7366,10.7366,10.7366,10.7366,10.7366,10.7366,10.7366,10.6516,10.4997,10.2561,9.9696,9.6375,9.1821,8.6238,7.938,7.0005,6.0979,5.1684,3.604,2.735,2.3199,1.5267,0.9525,0.5853,0.3734,0.3122,0.2812,1.4746,1.5178,1.5358,1.359,1.5536,1.7239,1.6686,1.7943,1.9123,1.9402,1.8127,1.7272,1.712,1.6185,1.5498,1.5498,1.5614,1.5323,1.4723,1.4452,1.4099,1.3605,1.3551,1.4239,1.5839,1.6217,1.7503,1.979,2.148,2.3061,2.4544,2.5937,2.9094,3.3316,3.046,3.0273,3.2218,3.0626,2.8701,2.7793,0.0,4.7799,5.2501,5.8596,6.1803,6.291,6.4092,6.4586,6.4531,6.2461,0.0,5.3713,5.9014,5.6327,0.0,0.0,0.0,0.0,0.0,0.0,0.0,0.0,0.0,3.5414,0.0,0.0,0.0,4.7589,0.0,0.0,0.0,0.0,0.0,6.3927,0.0,0.0,0.0,9.0308,0.0,10.8658,10.9893,11.0873,11.1432,11.0948,11.0339,11.0199,10.6194,10.4264,10.569,10.5929,10.5989,10.5989,10.5989,10.5989,10.5989,10.5989,10.5989,10.6049,10.3574,10.0947,9.8139,9.5343,8.9318,8.0562,7.2993,6.3116,5.1463,3.5127,2.3537,1.5267,0.8637,0.5567,0.4323,0.125,-0.0626,-0.1872,1.5818,1.5936,1.6149,1.5908,1.7001,1.7875,1.7846,1.8672,1.9024,1.8197,1.6904,1.6123,1.6257,1.7201,1.8025,1.863,1.8817,1.8207,1.6213,1.5245,1.4105,1.2771,1.2743,1.3456,1.4813,1.6327,1.7221,1.745,1.9935,2.19,2.3461,2.4827,2.6009,2.703,2.9261,2.861,2.5913,2.8362,3.0311,0.0,3.48,3.6515,0.0,4.2898,4.737,5.1801,5.7827,6.189,6.3672,0.0,5.7349,5.6321,0.0,5.526,6.1177,0.0,0.0,0.0,0.0,0.0,0.0,0.0,4.0598,0.0,0.0,0.0,3.7244,3.7722,0.0,0.0,0.0,0.0,0.0,4.7913,0.0,0.0,6.4872,7.3248,8.1061,8.4864,9.7744,10.4226,9.9041,9.7362,9.9575,10.6669,9.8853,9.6738,10.3356,10.4313,10.4613,10.4613,10.4613,10.4613,10.4613,10.4613,10.4613,10.4613,10.1767,10.031,9.9849,9.4974,9.0454,8.6089,7.7561,6.5535,5.0662,3.1916,1.749,0.7384,0.6465,0.371,0.0622,0.0312,-0.2498,-0.6257,1.5913,1.6059,1.613,1.537,1.6088,1.6429,1.5689,1.6606,1.7099,1.6647,1.5502,1.4867,1.5146,1.4571,0.0,1.6004,0.0,1.3083,0.0,0.0,0.877,0.8242,0.9162,1.0487,1.1998,1.3554,1.4882,1.5741,1.8494,2.0189,2.0979,2.355,2.6179,2.8737,2.936,2.8785,2.7545,0.0,3.0029,0.0,0.0,0.0,0.0,4.1118,4.8259,5.2603,5.7458,6.0371,6.1739,0.0,5.7422,0.0,0.0,0.0,0.0,0.0,0.0,0.0,0.0,0.0,0.0,0.0,0.0,0.0,3.825,0.0,3.6228,0.0,0.0,0.0,0.0,0.0,0.0,0.0,5.3135,0.0,0.0,0.0,7.3133,7.945,0.0,0.0,9.6916,9.9707,10.2527,10.5551,9.9624,9.6476,9.8138,9.931,9.9838,9.9838,10.0248,10.0883,10.2099,10.2099,10.2099,10.2099,10.1679,10.0621,9.8988,9.801,9.3894,8.7144,8.0045,6.7516,5.0558,3.1608,1.6628,0.5576,0.0621,-0.218,-0.3436,-0.0939,-0.2818,-0.7507,1.5447,1.5583,1.5594,1.4903,1.503,1.4931,1.4269,1.4592,1.4909,1.5081,1.4514,1.4216,1.4501,1.4189,0.0,0.0,1.2642,1.0857,0.0,0.0,0.5709,0.5808,0.6549,0.0,0.9242,1.1002,1.2316,1.3441,1.6487,1.8156,1.8622,2.1654,2.4727,2.7922,2.8365,2.8497,2.8632,0.0,2.962,2.3252,2.6845,2.6915,2.6212,3.9165,4.7696,5.2906,5.5595,5.7845,5.9663,5.9239,5.4944,0.0,5.7127,0.0,0.0,0.0,0.0,0.0,3.8466,0.0,0.0,0.0,0.0,0.0,0.0,0.0,0.0,0.0,0.0,0.0,0.0,0.0,4.2766,4.4028,0.0,5.1251,0.0,5.4486,0.0,0.0,0.0,0.0,0.0,9.6185,9.879,10.0011,0.0,9.3513,9.4075,9.4467,9.4825,9.5167,9.5794,9.7134,9.9439,9.9439,9.9684,10.0483,10.168,10.1277,9.9474,10.0308,9.7095,9.0126,8.3322,7.044,5.2094,3.1843,1.599,0.3726,-0.4685,-0.7198,-0.5631,-0.1569,-0.3449,-0.9678,1.4457,1.4371,1.4698,1.5105,1.4514,1.4134,1.4661,1.3624,1.2986,0.0,0.0,0.0,0.0,0.0,0.0,0.0,0.0,1.5845,1.5123,0.0,0.7411,0.7475,0.6262,0.6033,0.7483,0.9282,1.0129,0.9971,1.3301,1.5707,1.7101,1.8906,2.0133,2.0762,2.5369,2.707,2.6694,3.0025,2.9545,2.6596,2.7096,2.9253,3.2673,0.0,3.9547,4.8822,4.9139,0.0,0.0,5.0555,4.8397,0.0,0.0,0.0,0.0,0.0,0.0,0.0,0.0,0.0,0.0,3.8913,0.0,0.0,0.0,0.0,3.8948,0.0,0.0,0.0,0.0,4.1591,4.2084,4.3341,4.3792,0.0,0.0,0.0,0.0,0.0,0.0,0.0,0.0,7.8958,8.0795,0.0,8.3191,8.3978,9.2401,9.1176,9.0715,9.188,9.249,9.402,9.6614,9.6614,9.7877,10.0483,10.1201,10.18,10.233,10.0951,9.9229,9.6977,8.827,7.4595,5.5926,3.2983,1.4364,-0.062,-0.9039,-0.9667,-0.5604,-0.1566,-0.5327,-1.4029,1.348,1.2571,1.2039,1.2172,1.233,1.172,1.0176,0.9864,0.0,0.0,0.0,0.0,0.0,0.0,1.611,0.0,0.0,1.1033,0.9053,0.7485,0.0,0.0,0.0,0.3889,0.4281,0.7121,0.8546,0.8509,1.1838,1.3642,1.4242,1.7245,1.8667,1.9111,2.3915,2.6235,0.0,0.0,0.0,0.0,0.0,2.505,2.7182,0.0,0.0,4.5804,4.8255,5.0731,0.0,5.2561,4.7871,4.2352,4.222,3.7076,3.124,3.1598,3.2607,0.0,0.0,0.0,4.2261,3.7421,0.0,0.0,0.0,0.0,0.0,0.0,0.0,0.0,0.0,3.9722,4.0588,4.203,4.1957,4.1761,0.0,0.0,0.0,0.0,0.0,0.0,0.0,0.0,0.0,0.0,8.2255,0.0,8.5043,8.5845,8.6329,8.7335,8.81,8.9802,9.2588,9.2588,9.2979,9.4005,9.5029,9.6666,9.922,9.9871,9.9207,9.6857,9.057,7.6184,5.5608,3.2907,1.4364,-0.093,-0.9351,-0.9978,-0.5287,0.1565,-0.125,-1.2372,1.2452,1.1513,1.0967,1.1101,0.0,0.9207,0.692,0.0,0.0,0.0,1.3513,0.0,1.978,0.0,1.6519,0.0,1.2834,0.9484,0.5987,0.6022,0.0,0.2248,0.4668,0.0,0.5927,0.7921,0.8915,0.8728,1.0809,1.1853,1.198,1.4877,1.6392,1.6541,2.0554,2.3516,2.5538,2.8005,2.8233,0.0,0.0,2.2644,0.0,0.0,3.7659,4.2713,0.0,4.713,4.939,4.9159,4.3756,3.6617,3.5088,2.7108,1.8788,2.1115,2.1019,2.143,2.7162,3.2606,0.0,3.3861,3.6141,0.0,3.1435,0.0,0.0,0.0,0.0,0.0,0.0,3.8341,3.802,4.0337,3.9648,3.9168,0.0,4.0501,0.0,0.0,0.0,0.0,0.0,0.0,7.1791,7.5305,7.7054,7.8514,0.0,0.0,8.1942,8.2928,8.4225,8.6248,8.9204,8.9204,8.9604,9.0598,9.1813,9.3703,9.6027,9.7901,9.7764,9.5408,8.9931,7.6184,5.5913,3.4491,1.6506,0.155,-0.3726,-0.3414,0.093,0.4685,-0.186,-1.7071,1.1402,1.1056,0.0,0.0,0.9079,0.0,0.0,0.0,0.6691,0.0,1.2505,1.4431,1.9161,2.1539,2.0923,1.6638,1.4418,0.0,0.6563,0.6808,0.0,0.0,1.0223,1.1979,1.167,0.0,0.0,0.0,1.0536,1.05,1.05,1.2282,1.3155,1.3325,1.5478,1.9223,2.39,2.4367,2.5342,2.6436,2.3032,2.1685,2.1799,2.5208,3.1387,3.7908,3.8344,4.2769,4.7247,4.066,3.5628,3.0406,1.9997,1.3879,1.049,1.0424,1.0404,1.2592,2.1541,2.4685,2.5997,2.8416,0.0,0.0,0.0,0.0,3.1571,0.0,0.0,0.0,0.0,0.0,3.4492,3.8125,3.6729,3.5726,3.7369,3.8229,0.0,0.0,0.0,0.0,0.0,0.0,5.8813,6.7831,6.7652,7.0047,0.0,0.0,7.7084,7.8781,8.0218,8.2542,8.5992,8.594,8.7381,9.0003,9.1412,9.2495,9.336,9.492,9.4918,9.2857,8.6854,7.4256,5.6232,3.709,2.0198,0.6519,0.6178,0.8931,1.2639,0.8105,-0.6437,-2.7273,1.1483,0.9676,0.795,0.0,0.4833,0.3426,0.0,0.0,0.0,0.0,1.2212,1.5402,1.5196,1.5688,1.4205,0.9545,1.1567,0.0,0.0,0.0,0.0,1.092,1.1784,1.201,1.1779,1.1541,0.0,1.0797,1.0725,1.0663,1.0663,1.2473,1.3274,1.3325,1.5192,1.8845,2.3465,2.1559,2.0066,1.9144,1.5487,1.2819,0.0,0.0,1.297,1.7082,3.007,3.5722,3.6322,3.2035,2.6119,1.9992,1.4331,0.8352,0.2951,0.2945,0.4825,0.8017,1.309,1.873,2.3305,2.4025,2.6291,2.7519,0.0,0.0,0.0,0.0,0.0,0.0,0.0,0.0,0.0,3.4285,3.4511,3.5176,3.6685,0.0,0.0,3.7467,0.0,0.0,0.0,5.0049,5.5961,5.8831,6.1709,6.5604,7.0995,0.0,0.0,7.1678,7.1156,7.2729,7.679,7.6731,7.801,8.1398,8.4451,8.7457,9.0465,9.1375,9.0822,8.8716,7.9376,6.7004,5.1768,3.0001,1.6833,1.041,0.701,1.4003,2.4487,1.449,-0.2126,-2.2373,1.1897,0.8775,0.0,0.5073,0.0,0.0,0.1373,0.0,0.0,0.6158,0.9782,0.0,1.3341,1.3406,1.2353,0.9826,0.9759,0.0,0.0,0.0,0.0,1.5214,1.6656,1.7298,1.6709,1.5532,0.0,1.3309,0.0,1.2462,1.1894,1.28,1.3325,1.3325,1.3587,1.565,1.9062,1.7348,1.5359,1.2962,0.9985,0.0,0.0,0.0275,-0.0809,-0.1542,1.0118,1.8093,2.2708,1.9176,1.4277,0.8326,0.1603,-0.3489,-0.729,-0.8885,-0.5675,-0.0544,0.4658,1.0513,1.5737,1.9254,2.1395,2.2969,2.2596,2.4542,2.7111,0.0,0.0,0.0,0.0,0.0,0.0,3.2038,3.3008,3.4011,0.0,0.0,0.0,0.0,3.8233,0.0,0.0,4.6953,5.4097,5.3663,5.5546,5.7751,0.0,0.0,0.0,6.2415,6.5391,6.825,7.0816,7.2496,7.4626,7.7379,7.9954,8.3094,8.6503,8.6439,8.5849,8.4318,7.4757,6.3452,5.0344,3.2811,2.2089,1.7278,1.8348,2.6415,3.6235,2.4338,0.7233,-1.3104,1.1815,0.0,0.0,0.0,0.0,0.0,0.0,0.0,0.0,0.5357,0.0,0.8155,1.1569,1.2356,1.2278,1.1425,0.0,0.8026,1.141,1.2873,1.5012,1.8241,2.2217,2.3999,2.328,2.0756,0.0,0.0,0.0,1.4886,1.3325,1.3587,1.3587,1.3193,1.1762,1.183,0.0,1.2206,1.0108,0.6973,0.4062,-0.3607,-1.2923,-0.9973,-1.3437,-1.9116,-1.5262,-0.4,0.8305,0.4822,0.1611,-0.2956,-1.2854,-1.6493,-1.7755,-2.0721,-1.6731,-0.9431,-0.3364,0.1974,0.7366,1.4504,1.6504,1.8152,2.2054,2.3067,2.4467,2.7835,2.8833,3.1156,0.0,0.0,0.0,0.0,0.0,0.0,0.0,0.0,0.0,0.0,0.0,0.0,0.0,0.0,5.1325,4.9725,4.8877,4.8329,0.0,0.0,0.0,5.3206,6.0275,6.4713,6.624,0.0,7.2817,7.5571,7.6812,7.8881,8.1579,8.0628,8.0207,7.9465,7.0455,6.0904,5.0328,3.9041,3.079,2.5822,3.3434,4.1029,4.6627,3.5092,1.9708,0.1184,0.0,0.0,0.0,0.0,0.0,0.0,0.0,0.0,0.0268,0.1103,0.456,0.5831,0.2599,0.5913,0.6574,0.2589,0.4831,0.0,0.0,0.0,0.0,1.8431,2.2153,2.4053,2.3429,2.0919,1.8586,0.0,1.5973,1.4851,1.3325,1.4744,1.4614,1.3325,1.2931,1.2273,1.0698,0.4666,0.0,0.0532,-0.8763,-1.7405,-2.507,-2.7241,-3.245,-3.8037,-3.4282,-1.9691,-0.2945,-0.6448,-0.8363,-1.0041,-1.5056,-1.8638,-2.1096,-2.188,-1.6959,-1.061,-0.9559,-0.1989,0.6881,1.1405,1.4796,1.8169,2.1962,2.527,2.7511,2.8225,3.2514,3.5882,3.3986,0.0,0.0,0.0,0.0,0.0,0.0,0.0,0.0,0.0,0.0,3.9926,0.0,0.0,0.0,0.0,0.0,0.0,0.0,0.0,0.0,0.0,4.7464,0.0,0.0,0.0,6.3681,7.0269,7.2322,7.4035,7.531,7.4994,7.4233,7.2236,6.1911,5.5044,4.9862,3.591,3.0996,3.3346,3.8083,4.4537,5.0058,3.8039,3.1296,2.3707,0.0,0.0,0.0,0.0,0.0,0.0,0.0,0.0,0.0,0.0,0.1792,0.2465,0.0304,0.1907,0.3253,0.3197,0.3192,0.5077,0.9084,1.1254,1.337,1.5343,1.915,0.0,1.7417,1.7847,1.6238,1.2174,1.3678,1.3975,1.3274,1.4074,1.4614,1.4408,0.99,0.6908,0.0,0.0,0.0,-1.0644,-2.0811,-2.9205,-3.6434,-3.9953,-4.42,-4.8164,-4.6377,-3.6604,-2.4469,-2.2552,-2.0861,-2.0218,-2.3937,-2.3811,-2.2276,-2.2147,-1.6917,-1.0784,-0.8833,-0.2867,0.4317,0.9982,1.2811,1.5664,2.1431,2.4027,2.5194,2.527,3.0631,3.5417,3.6318,3.5322,0.0,0.0,0.0,0.0,0.0,0.0,0.0,0.0,0.0,0.0,0.0,0.0,0.0,0.0,0.0,0.0,0.0,0.0,0.0,0.0,0.0,0.0,0.0,0.0,0.0,6.7456,6.885,7.0526,7.2369,7.1264,7.0464,6.9411,6.1288,5.6154,5.2458,4.1812,3.8591,4.0728,4.4527,4.9363,5.329,4.5418,4.2267,3.7941,0.0,0.7015,0.0,0.0,0.1996,0.0,0.0,0.0,0.0,0.0,0.0,0.0,0.0,0.0,0.1286,0.4749,0.1898,0.2836,0.9371,0.747,0.7709,1.0941,1.4788,1.5129,1.1801,1.4209,1.3195,0.0,1.0951,1.2527,1.271,1.3062,1.3477,1.3319,0.0,0.0,0.0,0.0,-1.6853,-2.1254,-3.087,-3.8607,-4.52,-4.9517,-5.2808,-5.5173,-5.4577,-5.0187,-4.3831,-3.799,-3.2676,-2.9187,-3.1344,-2.8226,-2.3398,-2.1559,-1.6573,-1.0646,-0.6914,-0.2885,0.1729,0.9407,1.1357,1.3323,2.0972,2.2466,2.251,2.3088,2.8775,3.4747,3.8978,3.7814,0.0,0.0,0.0,0.0,0.0,0.0,0.0,0.0,0.0,0.0,0.0,0.0,0.0,0.0,0.0,0.0,0.0,0.0,0.0,0.0,0.0,4.4104,5.0856,0.0,6.1168,6.6407,6.6533,6.798,7.0402,6.8044,6.7358,6.7421,6.2303,5.8133,5.4982,4.8974,4.6539,4.659,4.9425,5.3162,5.6487,5.3312,5.2766,4.927,0.0,0.0,0.0,0.0,0.0,0.0,0.0,0.0,0.0,0.0,0.0,0.0,0.0,0.0,0.0318,0.0634,0.0315,0.0314,0.1247,0.4352,0.6469,0.6657,1.0507,1.2403,1.1514,1.148,1.0465,0.0,0.0,1.0628,0.0,1.2481,1.0842,0.0,0.0,0.0,0.0,-1.7873,-2.2528,-2.7017,-3.7727,-4.4618,-4.9245,-5.5813,-6.0213,-6.2312,-5.8918,-5.5282,-5.1346,-4.8148,-4.062,-3.2119,-2.952,-2.8154,-2.6196,-1.9835,-1.4712,-1.0646,-0.6914,-0.2885,0.1726,0.9346,1.0961,1.2868,2.0696,2.214,2.2764,2.614,3.241,3.7298,3.7646,4.0186,4.2132,0.0,0.0,0.0,0.0,0.0,0.0,0.0,0.0,0.0,0.0,0.0,0.0,0.0,0.0,0.0,0.0,0.0,0.0,3.0788,0.0,4.06,4.9442,5.6665,6.2602,6.7183,6.597,6.6029,6.7097,6.4259,6.3405,6.3951,6.0644,5.7439,5.4753,5.0898,4.9609,4.9579,4.9873,5.3877,5.9271,5.8628,6.2362,6.168,0.0,0.0,0.0,0.0,0.0,0.0,0.0,0.0,0.0,0.0,0.0,0.0,0.0,0.0,0.0,0.0,0.0,0.0,0.0,0.1546,0.2446,0.2409,0.6272,0.7069,0.4616,0.6759,0.5309,0.0,0.0,0.0,0.0,0.0,0.0,0.0,0.0,-1.189,-1.8111,-2.4621,-3.0679,-3.6789,-4.5555,-5.2627,-5.7914,-6.2794,-6.5108,-6.569,-6.3991,-5.8777,-5.2547,-5.141,-4.4515,-3.5888,-3.2784,-3.01,-2.6448,-1.6741,-1.2715,-1.006,-0.4018,-0.1145,0.1709,0.9273,1.1153,1.2758,2.0532,2.3578,2.5204,2.6872,3.2738,3.8482,4.0566,4.0588,4.0804,0.0,0.0,0.0,0.0,0.0,0.0,0.0,0.0,0.0,0.0,0.0,0.0,0.0,0.0,0.0,0.0,0.0,0.0,3.6306,0.0,4.8739,5.8822,6.205,6.5593,6.9107,6.6791,6.6029,6.6179,6.3312,6.3717,6.6455,6.5629,6.4492,6.2893,5.9953,5.8377,5.7985,5.8165,6.2899,6.9911,7.3982,7.5708,7.0732,0.9253,0.0,0.1989,0.0,0.0856,0.0,0.0,0.0,0.0,0.0,0.0,0.0,0.0,0.0,0.0,0.0,0.0,0.0,0.0,0.0,-0.0608,-0.1796,0.0892,0.0,-0.1733,0.0,-0.1352,-0.5281,-0.1575,0.0,0.0,0.0,0.0,0.0,-1.1914,-1.8192,-2.4156,-3.033,-3.6941,-4.4012,-5.062,-5.6403,-6.1938,-6.538,-6.6393,-6.59,-6.4603,-5.9108,-5.2481,-5.1749,-4.5811,-3.821,-3.4971,-3.1233,-2.626,-1.4955,-1.1521,-0.9767,-0.2,0.0853,0.3104,0.946,1.1892,1.4301,2.1625,2.5188,2.738,2.9469,3.5629,4.1624,4.4214,4.3474,4.3236,4.5555,0.0,0.0,0.0,0.0,0.0,0.0,3.9492,3.8463,4.0979,0.0,0.0,0.0,0.0,0.0,0.0,0.0,0.0,0.0,0.0,0.0,0.0,6.6712,6.9472,7.189,6.8632,6.7294,6.7241,6.4496,6.534,6.9222,7.0604,7.1009,7.0705,6.8931,6.8024,6.8087,6.9229,7.4051,8.0961,8.4298,8.1817,7.1159,0.4811,0.1833,0.0,0.0,0.0,0.0,0.0,0.0,0.0,0.0,0.0,0.0,0.0,0.0,0.0,0.0,0.0,0.0,0.0,0.0,-0.1818,0.0,0.0,-0.5581,-0.5766,-0.9374,-0.9183,-0.5418,0.0,0.0,-0.2697,0.0,-0.5918,-1.2646,-1.788,-2.4337,-3.1317,-3.4857,-4.0526,-4.7396,-5.1137,-5.4488,-5.7983,-6.166,-6.2773,-6.2108,-5.8667,-5.5461,-5.2312,-4.9116,-4.3815,-3.8141,-3.4574,-3.0918,-2.6042,-1.4778,-1.1446,-1.0042,-0.1989,0.2831,0.6462,0.9899,1.3404,1.797,2.4873,2.6649,2.8464,3.5462,4.2578,4.7375,4.7405,5.0343,5.2678,5.235,0.0,0.0,0.0,0.0,0.0,0.0,4.3543,4.6982,4.4821,0.0,0.0,0.0,0.0,0.0,0.0,0.0,0.0,4.5607,5.4234,0.0,6.1529,6.9758,7.4219,7.4954,7.1388,6.9865,7.0357,6.7937,6.8421,7.1338,7.4339,7.552,7.5641,7.6737,7.7727,7.8845,8.2412,8.6918,9.0931,8.5637,7.7238,6.107,0.7649,0.2982,0.0,0.0,0.0,0.0,0.0,0.0,0.0,0.0,0.0,0.0,0.0,0.0,0.0,0.0,0.0,-0.1216,0.0,-0.3901,-0.5656,-0.9705,-0.9705,-0.9643,-0.9497,-1.0836,-1.1817,-1.2995,0.0,0.0,0.0,-1.0324,-1.3562,-1.8071,-2.1948,-2.7802,-3.4607,-3.8275,-4.3776,-5.046,-5.4456,-5.9272,-6.4017,-6.519,-6.4178,-6.207,-6.0779,-5.5808,-4.943,-4.8869,-4.44,-3.8434,-3.4762,-3.1287,-2.6058,-1.4858,-1.1412,-0.9917,-0.1972,0.2802,0.6391,0.9875,1.5224,2.105,2.5794,3.2106,3.8411,4.3058,4.7726,5.0867,5.1091,5.2031,5.2678,5.2563,4.9594,0.0,0.0,0.0,0.0,0.0,4.5949,4.84,0.0,5.0007,0.0,0.0,0.0,0.0,0.0,0.0,0.0,0.0,6.5345,0.0,7.3595,7.6461,7.7902,7.805,7.4811,7.3341,7.3034,7.268,7.5803,8.1674,8.3363,8.6271,8.9683,8.92,9.0923,9.4069,9.3994,9.7831,10.3642,10.4737,8.2494,4.7998,0.6889,0.2517,0.0,0.0,0.0,0.0,0.0,0.0,0.0,0.0,0.0,0.0,0.0,-0.1224,0.0,-0.2125,-0.2111,-0.3897,-0.7751,-0.8017,-0.9745,-1.3486,-1.377,-1.3682,-1.3514,0.0,0.0,-1.6467,-1.404,-1.3361,-1.449,-1.6531,-2.0102,-2.4624,-2.8077,-3.271,-3.8325,-4.1696,-4.7346,-5.3632,-5.6279,-5.956,-6.3312,-6.3279,-6.1327,-5.8409,-5.7081,-5.2893,-4.8267,-4.742,-4.3691,-3.8689,-3.4887,-3.1343,-2.6337,-1.6465,-1.2445,-0.981,-0.1947,0.3598,0.8801,1.3659,1.9249,2.5078,3.1404,3.8705,4.4989,4.8755,5.194,5.4108,5.4346,5.5392,5.5981,5.5835,5.2864,5.0589,4.9621,0.0,0.0,0.0,0.0,0.0,0.0,5.1868,0.0,0.0,0.0,0.0,0.0,0.0,0.0,6.8874,7.5284,0.0,8.1926,8.2343,8.2552,8.2552,7.9857,7.8781,7.9354,7.9708,8.3847,9.074,9.2449,9.5718,9.9775,10.0611,10.3177,10.6492,10.6174,10.7963,11.0821,11.0497,8.5463,4.8331,0.3763,0.0314,0.0,0.0,0.0,0.0,0.0,0.0,0.0,0.0,0.0,0.0,-0.0303,-0.3603,-0.5977,-0.6571,0.0,0.0,0.0,-1.2115,-1.385,-1.756,-1.7861,-1.7747,-1.754,-2.1135,-2.0909,-1.7267,-1.7094,-1.8635,-2.1836,-2.1954,-2.5494,-3.2173,-3.5473,-3.8824,-4.2463,-4.6059,-5.0913,-5.665,-5.6889,-5.6925,-5.6722,-5.6876,-5.5079,-5.1642,-4.9055,-4.8356,-4.8113,-4.5089,-4.24,-3.9404,-3.5563,-3.162,-2.7077,-1.9007,-1.4226,-0.9726,-0.2191,0.5463,1.257,1.9824,2.4983,3.06,4.0979,4.5727,4.8847,5.2284,5.5147,5.7329,5.7329,5.973,6.1562,6.1133,5.8425,5.5951,5.5193,0.0,0.0,0.0,0.0,0.0,0.0,5.2383,5.5323,0.0,0.0,0.0,0.0,0.0,7.1459,7.7832,8.3947,8.6975,8.6234,8.7394,8.8138,8.8274,8.6257,8.6484,8.8586,8.8586,9.2215,9.8627,10.1023,10.3722,10.6577,11.0969,11.4072,11.6169,11.8294,11.6969,11.302,10.5458,8.6226,5.9404,0.0,0.0,0.0,0.0,0.0,0.0,0.0,0.0,0.0,0.0,0.0,-0.1207,-0.4149,-0.5315,-0.8232,-1.403,-1.2017,-1.2017,-1.5739,-1.602,-1.7768,-2.1512,-2.1813,-2.1749,-2.1558,-2.2293,-2.3327,-2.463,-2.4447,-2.5993,-2.9151,-2.9245,-3.2678,-3.8846,-4.0069,-4.3558,-4.9062,-5.2506,-5.3837,-5.3491,-5.6181,-5.5773,-5.3847,-5.4217,-5.2072,-4.9421,-4.9001,-4.7535,-4.5417,-4.5105,-4.4431,-4.3078,-3.9311,-3.5372,-3.0292,-1.9767,-1.4174,-0.9655,-0.2175,0.5439,1.2547,1.998,2.856,3.7491,4.5247,4.9312,5.2284,5.5738,5.8573,6.0472,6.0472,6.098,6.1211,6.1094,5.8163,5.5626,5.5121,5.4854,0.0,0.0,5.6132,5.8086,5.8281,5.8125,5.8666,0.0,0.0,0.0,0.0,7.4536,7.7956,8.4661,8.6655,8.8027,8.8304,8.8581,8.9538,9.1133,9.2312,9.4221,9.6426,9.6426,9.9889,10.5838,10.7064,11.0278,11.4927,11.7202,11.9802,12.2436,12.2829,12.0264,11.5194,10.4055,8.5984,6.4572,1.1254,0.4701,0.0,0.0,0.0,0.0,0.0,0.0,0.0,0.0,-0.1503,-0.3579,-0.5588,-0.907,-1.2819,-1.7118,-1.5422,-1.601,-1.9735,-2.0023,-2.0862,-2.313,-2.313,-2.3022,-2.2805,-2.4379,-2.6494,-2.9593,-2.9667,-3.2069,-3.6605,-3.6861,-4.0391,-4.6632,-4.6661,-4.9518,-5.4042,-5.435,-5.4318,-5.4456,-5.4871,-5.3354,-5.0878,-5.1224,-4.9426,-4.6551,-4.6862,-4.6058,-4.465,-4.4837,-4.4917,-4.4299,-4.0341,-3.6452,-3.1442,-2.1679,-1.5056,-0.9553,-0.189,0.5408,1.3591,2.4104,3.3899,4.2117,4.7271,4.943,5.1772,5.6713,5.8721,5.9532,5.9532,5.9193,5.835,5.6726,5.3822,5.2555,5.4544,5.4211,0.0,5.6927,5.9014,6.0195,6.043,6.039,6.1402,6.3606,6.4145,0.0,7.6507,7.9879,8.393,8.9167,9.2007,9.3561,9.3853,9.511,9.641,9.7679,9.9055,10.1072,10.3259,10.3738,10.6956,11.248,11.3173,11.6375,12.1068,12.2084,12.3731,12.5558,12.4608,12.0611,11.4615,10.7034,9.4607,8.0589,1.3748,0.5637,0.0,0.0,0.0,0.0,0.0,0.0,0.0,0.0,-0.3277,-0.5912,-0.6744,-1.3102,-1.7695,-1.8272,-1.8272,-1.9723,-2.2925,-2.3225,-2.3158,-2.3008,-2.3008,-2.3156,-2.3412,-2.6931,-3.0453,-3.41,-3.4269,-3.7729,-4.4179,-4.4486,-4.7955,-5.4049,-5.378,-5.5357,-5.802,-5.4491,-5.4317,-5.6364,-5.3221,-5.0186,-4.7762,-4.8143,-4.6655,-4.4569,-4.4623,-4.473,-4.4837,-4.465,-4.465,-4.4114,-4.0053,-3.6099,-3.1845,-2.3777,-1.6462,-0.92,-0.1074,0.7545,1.7386,2.9869,3.8528,4.5144,4.8432,4.8702,4.9996,5.5912,5.6742,5.6208,5.6137,5.5745,5.4398,5.0789,4.8769,4.8948,5.2584,0.0,5.3519,5.7947,5.9283,5.9743,5.9936,6.0668,6.2982,6.7664,6.9552,7.344,8.0674,8.4494,8.8042,9.1699,9.6799,9.9831,10.035,10.326,10.4532,10.4532,10.5491,10.6907,10.8838,10.9881,11.2811,11.7466,11.8626,12.1421,12.519,12.5602,12.6295,12.7119,12.5015,12.0013,11.3762,11.1446,10.6544,9.9935,1.2827,0.5637,0.0,0.0,0.0,0.0,0.0,0.0,0.0,0.0,-0.3268,-0.7082,-1.0482,-1.4799,-1.8859,-2.2049,-2.235,-2.265,-2.3225,-2.3225,-2.3158,-2.3008,-2.3008,-2.4315,-2.7175,-3.0403,-3.5144,-4.1598,-4.1366,-4.4824,-5.1685,-5.204,-5.4036,-5.7276,-5.7526,-5.9271,-6.1938,-5.8384,-5.5843,-5.3704,-5.0778,-4.7564,-4.5125,-4.5669,-4.5671,-4.5211,-4.5451,-4.5237,-4.4917,-4.5104,-4.473,-4.3586,-3.9931,-3.6101,-3.1227,-2.3851,-1.6586,-0.8447,0.1886,1.7084,3.0631,3.2999,3.9209,4.5718,4.8785,4.9181,4.9849,5.3336,5.3668,5.3065,5.2797,5.2128,5.0686,4.7066,4.801,4.8836,4.6851,0.0,5.0742,5.2099,5.4692,5.669,5.7347,5.9585,6.2513,6.6227,6.868,7.2707,7.8948,8.2177,8.6326,9.1699,9.6375,10.0243,10.326,10.6077,10.7475,10.7541,10.959,11.0926,11.1961,11.3427,11.5622,11.8365,12.0678,12.343,12.6093,12.6644,12.7297,12.79,12.517,12.156,11.7391,11.3756,11.2024,11.1587,1.9374,0.8766,0.0,0.0,0.0,0.0,0.0,0.0,0.0,0.0,-0.534,-0.9722,-1.1333,-1.682,-2.2036,-2.6048,-2.436,-2.4073,-2.6048,-2.436,-2.3117,-2.29,-2.4836,-2.9106,-3.632,-3.7832,-4.1778,-4.8913,-4.8913,-5.2452,-5.9173,-5.7954,-5.9802,-6.431,-6.2414,-6.1251,-6.0353,-5.7071,-5.3837,-5.0647,-4.768,-4.5875,-4.5157,-4.5264,-4.5505,-4.5745,-4.5558,-4.5344,-4.5104,-4.4917,-4.4569,-4.3612,-3.9591,-3.447,-2.8349,-2.0769,-1.0364,0.0,0.6934,2.0871,3.3727,3.395,3.9444,4.5374,4.6784,4.674,4.7216,5.0422,5.072,5.025,4.9686,4.9154,4.7734,4.4218,4.364,0.0,0.0,4.5885,4.7426,5.0582,5.271,5.3803,5.4147,5.7147,6.0089,6.2891,6.6142,6.9691,7.3653,7.8281,8.203,8.4753,9.5264,10.2432,10.5646,10.806,10.9546,10.9948,11.0875,11.2058,11.3219,11.4709,11.7124,11.9862,12.2532,12.494,12.7234,12.8256,12.8521,12.8195,12.6602,12.3853,12.0676,11.8769,11.8456,11.9289,2.5016,1.469,0.4693,0.0623,0.0,0.0,0.0,0.0,-0.0302,-0.1193,-0.7423,-1.2108,-1.2849,-2.007,-2.5837,-2.8697,-2.7269,-2.7237,-3.007,-2.7523,-2.5386,-2.4185,-2.9002,-3.5802,-4.4597,-4.5814,-5.0058,-5.7036,-5.7317,-6.0704,-6.6427,-6.3938,-6.5441,-6.9723,-6.538,-6.1852,-5.8806,-5.4554,-5.1471,-4.8928,-4.5985,-4.5264,-4.5932,-4.5718,-4.5932,-4.6333,-4.5799,-4.5531,-4.5344,-4.4917,-4.4061,-4.2387,-3.8105,-3.1925,-2.4638,-1.703,-0.4138,0.8507,1.1988,2.3383,3.4233,3.4293,3.9726,4.505,4.4997,4.481,4.5343,4.7592,4.7737,4.7271,4.6689,4.6223,4.4839,4.1534,0.0,0.0,0.0,4.3188,4.4324,4.8267,5.0056,5.0685,5.075,5.3906,5.6399,5.8237,6.1824,6.4647,6.6515,7.1805,7.513,7.6688,9.1978,10.186,10.5256,10.7022,10.9001,11.08,11.08,11.1577,11.3541,11.5641,11.8215,12.1115,12.4314,12.6681,12.8576,12.9773,12.9835,12.8963,12.7889,12.6024,12.3855,12.3688,12.4149,12.4878,2.5016,2.4074,1.8312,0.2741,0.0,0.0,0.0,0.0,-0.1209,-0.509,-0.9261,-1.3096,-1.7145,-2.4022,-2.8915,-2.9371,-3.2355,-3.4212,-3.4495,-3.4232,-3.2262,-2.8061,-3.7329,-4.4336,-4.7863,-5.3969,-6.0483,-6.7399,-6.7676,-6.9654,-7.3422,-7.0973,-7.0028,-7.0028,-6.3539,-6.0316,-5.9774,-5.3384,-5.0436,-4.9964,-4.7168,-4.6253,-4.6547,-4.6547,-4.6734,-4.6948,-4.6627,-4.6173,-4.5718,-4.5665,-4.2858,-3.8588,-3.4833,-2.8418,-2.0837,-1.3213,-0.0283,1.2551,1.6243,2.5641,3.4516,3.4718,4.0266,4.5611,4.5344,4.5264,4.5184,4.5132,4.4621,4.4138,4.3761,4.3035,4.1288,3.7489,0.0,0.0,3.7316,3.9506,4.1615,4.2405,4.5162,4.7251,4.7336,5.0538,5.2455,5.263,5.534,5.7128,5.7327,6.0399,6.4518,6.9934,8.4386,9.4509,9.954,10.0556,10.3547,10.8491,10.8491,10.9924,11.2662,11.6621,11.9358,12.144,12.6305,12.921,13.0537,13.1072,13.1289,13.1008,12.8468,12.7216,12.6695,12.6722,12.7384,12.8573,2.5016,2.4718,1.9203,0.2727,0.2724,0.3932,0.0606,-0.2119,-0.453,-0.6924,-1.1977,-1.6967,-2.0924,-2.6139,-3.1337,-3.6286,-3.5632,-3.6119,-3.8209,-3.8513,-3.8389,-3.8077,-4.5516,-5.2233,-5.7811,-6.189,-6.6681,-7.2097,-7.0037,-7.1171,-7.5102,-6.8369,-6.6077,-6.7507,-6.0997,-5.6654,-5.4356,-5.2022,-4.9851,-4.8049,-4.7294,-4.7161,-4.7428,-4.7241,-4.7348,-4.7535,-4.7054,-4.676,-4.6467,-4.5932,-4.289,-3.844,-3.2002,-2.4691,-1.564,-0.1111,0.9112,1.6319,2.0128,2.6246,3.1783,3.4145,3.8445,4.2892,4.5064,4.5558,4.5505,4.5211,4.4997,4.4623,4.3928,4.3554,4.2726,4.0882,0.0,4.1416,4.008,4.0882,4.1684,4.179,4.3151,4.404,4.4152,4.7297,4.9035,4.9065,5.2068,5.3767,5.3769,5.6456,6.0014,6.4214,6.9815,7.8746,9.1783,9.3689,9.774,10.3638,10.3638,10.6362,11.123,11.3356,11.6492,12.0465,12.4737,12.7578,12.9402,13.0904,13.1281,13.0885,12.9896,12.8463,12.7328,12.891,12.9175,12.907,2.1464,1.8649,1.2968,0.1816,0.3025,0.4232,0.0606,-0.363,-0.7551,-1.0254,-1.5012,-1.9993,-2.5136,-2.92,-3.4134,-4.0543,-3.9904,-4.0051,-4.2473,-4.4354,-4.5723,-4.593,-5.3165,-5.9539,-6.519,-6.9356,-7.2986,-7.5587,-7.2755,-7.2377,-7.4069,-6.5823,-6.3048,-6.4663,-5.8152,-5.3747,-5.142,-5.0881,-4.9191,-4.7054,-4.7562,-4.7936,-4.8177,-4.7909,-4.7909,-4.8016,-4.7509,-4.7215,-4.6693,-4.4838,-4.0633,-3.5138,-2.838,-1.9301,-0.8272,0.7006,1.4272,1.825,2.2178,2.5455,2.8677,3.3594,3.7602,4.0981,4.5,4.5825,4.5718,4.5611,4.5451,4.5131,4.4516,4.4195,4.3821,4.3314,4.2806,4.2485,4.2378,4.2191,4.2084,4.2084,4.2138,4.2245,4.2352,4.4544,4.603,4.5798,4.7976,4.9221,4.9004,5.0897,5.3528,5.7033,5.7033,6.39,7.8109,8.2796,8.8218,9.421,9.6239,9.9948,10.4973,10.7962,11.1992,11.6731,12.1229,12.4814,12.7349,12.919,12.9894,12.9494,12.8713,12.7463,12.6363,12.7666,12.8182,12.8583,1.4159,0.5789,0.0,0.0,0.0,0.0,0.0,-0.4535,-0.9953,-1.5371,-1.7181,-2.106,-2.9078,-3.3283,-3.7013,-4.1341,-4.4918,-4.7054,-4.7081,-5.2657,-5.4156,-5.0107,-5.9811,-6.6311,-6.838,-7.5862,-7.9329,-7.8582,-7.6226,-7.3481,-7.0662,-6.4739,-6.1992,-6.2121,-5.5747,-5.2728,-5.2508,-4.9205,-4.7936,-4.7963,-4.8257,-4.8551,-4.8764,-4.8497,-4.8364,-4.8337,-4.8043,-4.7562,-4.6437,-4.2386,-3.5586,-2.7997,-2.3897,-1.198,0.1674,0.9284,1.4229,1.8133,2.2023,2.3225,2.4948,3.2793,3.7471,4.1029,4.5263,4.5959,4.5825,4.6119,4.5718,4.5318,4.5318,4.4596,4.3901,4.3607,4.3287,4.2993,4.2699,4.2672,4.2672,4.2672,4.2405,4.2325,4.2619,4.2672,4.2672,4.2672,4.2672,4.2672,4.2672,4.2405,4.3982,4.7821,4.8134,5.141,5.7943,6.6932,7.3981,7.9545,8.6007,9.0097,9.2574,10.0682,10.619,10.9543,11.6233,12.0976,12.4431,12.5995,12.6777,12.6919,12.4101,12.3514,12.3955,12.2288,12.3855,12.7029,0.4275,0.1821,0.0,0.0,0.4837,0.6642,0.0909,-0.4535,-0.9953,-1.5371,-1.9588,-2.5242,-3.3198,-3.5167,-3.8362,-4.5147,-4.6833,-4.829,-5.0299,-5.4339,-5.8005,-6.1439,-6.8374,-7.3487,-7.6182,-7.8424,-7.8431,-7.6272,-7.113,-6.7368,-6.4482,-5.8355,-5.5778,-5.585,-5.1565,-4.9794,-4.9535,-4.897,-4.8551,-4.8577,-4.8871,-4.9058,-4.9112,-4.8818,-4.8658,-4.8631,-4.8123,-4.5925,-4.3207,-4.1609,-3.3889,-2.3238,-1.3556,-0.3934,0.4499,0.673,1.0175,1.3987,1.7929,1.9162,2.1635,3.2149,3.5503,3.7876,4.4449,4.5825,4.5825,4.6119,4.5905,4.5611,4.5611,4.505,4.4436,4.3928,4.3607,4.3233,4.2726,4.2833,4.2806,4.2405,4.2432,4.2565,4.2672,4.2833,4.2939,4.2939,4.2939,4.2939,4.2939,4.2886,4.3535,4.4923,4.4923,4.6041,4.8079,5.7704,6.5405,7.1027,7.294,7.7261,8.3563,8.5878,9.1486,9.9343,10.2679,10.742,11.2876,11.2578,11.351,11.4928,11.2588,11.0296,10.8269,10.8948,10.9625,11.0562,0.0,0.0,0.0,0.0,0.393,0.4527,-0.3624,-0.8428,-1.2902,-1.8584,-2.1868,-2.6871,-3.4816,-3.5689,-3.8941,-4.6912,-4.8875,-5.0874,-5.415,-5.8621,-6.423,-7.0423,-7.4137,-7.6625,-7.8024,-7.8256,-7.6021,-7.1413,-6.5361,-6.0969,-5.812,-5.3136,-5.094,-5.1396,-4.945,-4.8738,-4.8738,-4.8925,-4.8978,-4.9032,-4.9219,-4.9219,-4.9058,-4.8871,-4.8658,-4.81,-4.6131,-4.3763,-4.0821,-3.5938,-2.6272,-1.4876,-0.6252,0.0846,0.5602,0.5854,0.8385,1.2333,1.5989,1.726,1.9978,3.1586,3.4516,3.65,4.4354,4.6012,4.6039,4.644,4.6226,4.5932,4.5932,4.5451,4.4917,4.4436,4.4088,4.3714,4.3233,4.3233,4.3127,4.2752,4.2806,4.2886,4.2993,4.3046,4.2583,4.0976,4.0976,4.1001,4.1154,4.1052,4.1675,4.3714,4.3607,4.3688,4.4008,4.994,5.5403,6.0129,6.2769,6.5818,6.9424,7.3095,7.7803,8.3378,8.8799,9.3933,9.8772,10.0136,10.1521,10.2654,10.0853,9.8282,9.5549,9.5868,9.6899,9.8042,0.0,0.0,0.0,0.0,0.0,-0.2422,-0.9953,-1.3768,-1.755,-2.2027,-2.3153,-2.6642,-3.429,-3.5775,-3.9074,-4.6886,-5.0823,-5.4493,-5.8453,-6.4675,-7.0986,-7.7013,-7.7209,-7.6521,-7.5109,-7.5403,-7.2017,-6.4566,-5.8803,-5.4571,-5.1667,-4.8919,-4.7994,-4.8871,-4.9139,-4.9272,-4.9272,-4.9272,-4.9272,-4.9272,-4.9245,-4.9058,-4.8764,-4.8711,-4.8047,-4.6916,-4.3115,-4.0821,-3.7885,-2.5897,-1.4677,-0.5134,-0.1143,0.2254,0.4704,0.4699,0.7149,1.0696,1.4986,1.6238,1.946,3.1233,3.4334,3.6607,4.474,4.6413,4.6386,4.6948,4.6627,4.6226,4.6226,4.5745,4.5237,4.4404,4.4087,4.3771,4.319,4.2639,4.2482,4.243,4.2221,4.2195,4.243,4.2247,4.0792,3.7608,3.7322,3.7438,3.8199,3.7988,3.9708,4.3982,4.3714,4.3714,4.4008,4.3744,4.5242,4.8573,5.4354,5.5335,5.2605,6.0992,6.4279,6.4193,7.4326,8.0191,8.2762,8.7483,8.9409,8.9467,8.8178,8.6297,8.4167,8.2668,8.4253,8.7393,0.0,0.0,0.0,0.0,0.0,-0.0606,-0.2422,-1.0178,-1.5459,-1.4521,-1.989,-2.6117,-3.1916,-3.6187,-4.1294,-4.6912,-5.0823,-5.6602,-6.5498,-6.7544,-7.1149,-7.7504,-7.7629,-7.4698,-6.95,-6.9047,-6.4031,-5.3892,-5.024,-4.7202,-4.4537,-4.399,-4.5604,-4.9165,-4.9245,-4.9272,-4.9272,-4.9272,-4.9272,-4.9245,-4.9032,-4.8738,-4.8417,-4.7963,-4.5796,-4.2538,-4.1704,-3.5347,-2.5595,-1.357,-0.8036,-0.5128,-0.113,-0.1398,-0.3039,-0.3005,-0.2459,-0.0274,0.6289,1.0545,1.6357,3.0918,3.4736,3.6757,4.4534,4.6413,4.6627,4.7001,4.676,4.652,4.652,4.6039,4.4633,4.135,4.049,3.9078,3.5634,3.5433,3.5368,3.4735,3.4778,3.4907,3.4971,3.5346,3.4898,3.4362,3.4115,3.5476,3.8215,3.8434,4.0075,4.3982,4.3928,4.3928,4.4008,4.126,4.155,4.5034,4.3768,4.3869,4.5839,4.4784,4.7196,5.1973,5.7249,6.183,6.6216,6.8584,7.0401,7.1696,6.9823,6.7813,6.5627,6.5349,6.615,6.719,0.0,0.0,-0.2422,-1.0254,-0.7249,-0.5438,-1.0862,-1.434,-1.689,-1.7116,-2.0912,-2.6169,-3.2655,-3.5982,-4.1061,-4.9385,-5.6456,-6.2762,-6.8334,-7.1517,-7.3957,-7.5464,-7.373,-6.8625,-5.9679,-5.7816,-5.4182,-4.8457,-4.3821,-4.0741,-3.9535,-4.1454,-4.389,-4.6529,-4.8359,-4.9272,-4.9272,-4.9272,-4.9219,-4.9032,-4.8738,-4.8257,-4.741,-4.5356,-4.3172,-4.0103,-3.4779,-2.5087,-1.4087,-0.775,-0.4561,-0.3108,-0.2805,-0.3884,-0.575,-0.7336,-0.6797,-0.3815,0.381,0.8585,1.5234,3.0658,3.4838,3.7276,4.4843,4.6734,4.6867,4.7028,4.6841,4.6573,4.644,4.6039,4.5038,4.2637,4.2189,4.049,3.6187,3.5962,3.509,3.2858,3.2918,3.2959,3.2817,3.3121,3.241,3.0594,3.2119,3.4095,3.5875,3.7865,4.0344,4.3982,4.4008,4.319,4.155,3.9665,3.8575,3.8842,3.6948,3.523,3.3454,3.3166,3.4088,3.5942,4.1005,4.5612,5.0024,5.4229,5.6753,5.7852,6.0428,5.8808,5.5264,5.6835,5.5887,5.3144,-0.1873,-0.2149,-0.634,-2.0186,-1.5071,-1.1765,-2.1394,-1.9685,-1.8897,-2.2902,-2.4459,-2.7873,-3.5062,-3.6878,-4.1893,-5.2918,-6.3029,-6.9049,-6.9826,-7.5383,-7.6436,-7.2038,-6.8478,-6.1195,-4.9957,-4.6253,-4.4153,-4.3614,-3.7654,-3.5151,-3.5526,-3.9711,-4.2072,-4.3431,-4.7419,-4.9245,-4.9219,-4.9219,-4.8978,-4.8631,-4.8337,-4.741,-4.582,-4.2532,-4.0056,-3.693,-2.6935,-1.572,-0.5708,-0.5131,-0.2549,-0.0561,-0.3633,-0.5241,-0.6802,-0.9764,-0.8687,-0.4892,0.1908,0.776,1.5234,2.9821,3.4375,3.7512,4.5255,4.7108,4.6825,4.6181,4.5997,4.5429,4.456,4.4,4.3744,4.3411,4.336,4.2042,3.8481,3.7601,3.591,3.272,3.1867,3.1248,3.1077,3.1382,3.0347,2.7596,3.0621,3.3192,3.4115,3.724,4.0491,4.3824,4.4035,4.237,3.8622,3.8087,3.5671,3.1363,3.08,2.7458,2.2167,2.4026,2.3207,2.0782,2.6704,3.1434,3.5549,4.2065,4.5501,4.7184,5.3444,5.3105,4.9374,5.1717,4.8693,4.2167,-0.9131,-1.0578,-1.1751,-1.6272,-1.417,-1.2961,-1.6581,-1.645,-1.7743,-2.273,-2.8881,-3.4315,-3.8037,-4.262,-4.8632,-5.707,-6.3995,-6.9664,-7.4003,-7.6726,-7.5103,-6.8636,-6.467,-5.7619,-4.7328,-4.0051,-3.4997,-3.168,-3.1036,-3.0969,-3.1178,-3.5487,-3.9591,-4.3171,-4.7341,-4.9139,-4.8871,-4.8871,-4.8551,-4.8043,-4.7722,-4.5203,-4.1725,-4.071,-3.6114,-2.9402,-2.4704,-1.5608,-0.5416,-0.1989,-0.0567,0.0,-0.0558,-0.4981,-1.0193,-1.0676,-1.0663,-0.931,-0.4969,0.3629,1.44,2.6526,3.2414,3.7512,4.5255,4.7241,4.6496,4.2775,4.2084,4.1042,3.7168,3.6496,3.6326,3.5902,3.5817,3.5393,3.4385,3.1725,2.9591,2.8845,2.5824,2.3883,2.3869,2.3897,2.527,2.7951,2.8708,3.1839,3.8417,3.8774,4.0564,4.4116,4.4142,4.2208,3.8904,3.5617,3.0732,2.3926,2.0641,2.0239,2.188,1.612,1.3091,1.2821,1.6866,2.0693,2.4556,2.8558,3.4362,4.0393,4.1219,4.3525,4.5535,4.2915,3.9176,3.4482,-1.6345,-1.8679,-1.9278,-2.0485,-1.7171,-1.5663,-1.9898,-2.0428,-2.1117,-2.2992,-2.6048,-3.0318,-3.5806,-4.2448,-4.9801,-5.7033,-6.6049,-7.2288,-7.4405,-7.3036,-6.8984,-6.1751,-5.6121,-4.8188,-3.7355,-3.375,-3.038,-2.6355,-2.6727,-2.8022,-3.0251,-3.45,-3.8783,-4.291,-4.6904,-4.8604,-4.8337,-4.8337,-4.7883,-4.6905,-4.4562,-4.2301,-3.9708,-3.5305,-2.9975,-2.4131,-1.5911,-0.8669,-0.2247,-0.0558,0.0,-0.0278,-0.2486,-0.5235,-0.8252,-1.0186,-0.9385,-0.6934,-0.335,0.4512,1.3979,2.3522,3.0745,3.692,4.2653,4.3964,4.3679,4.1657,3.9312,3.7184,3.5001,3.4617,3.54,3.7165,3.7421,3.7588,3.7233,3.5881,3.31,2.876,2.6896,2.4984,2.2963,2.4689,2.6648,2.8205,3.2231,3.6156,3.935,4.1301,4.3195,4.4676,4.4543,4.1787,3.6127,3.4509,2.8691,1.9284,1.5636,1.3613,1.2938,0.9594,0.818,0.8145,0.981,1.2558,1.6396,2.2221,2.6704,3.0366,3.6496,4.1423,4.4318,3.8831,3.4314,2.9613]}]]